GFSNGP_250_spd_000.txt.gz
Wind_Speed
56 58 46 41 35 34 35 39 35 58 59 66 67 66 66 65 59 56 54 53 52 51 51 53 54 52 53 56 59 61 64 66 70 73 76 79 84 89 94 97 101 105 109 104
47 53 49 39 33 31 28 37 48 58 61 63 62 66 65 60 56 54 53 51 51 51 51 53 54 56 58 61 64 66 68 71 75 78 81 84 89 94 98 102 106 109 101 95
44 42 44 36 37 33 21 29 52 55 61 62 65 65 60 55 53 51 49 48 50 52 54 56 58 60 62 65 67 70 73 76 79 82 85 89 94 98 102 106 107 99 97 98
47 41 46 44 43 38 41 41 46 54 64 63 63 60 56 53 52 50 49 50 50 52 55 58 60 63 65 68 71 74 77 79 81 85 90 94 98 101 106 103 96 96 98 98
51 45 45 54 51 49 45 39 41 49 57 59 59 57 55 53 51 50 50 50 51 54 56 58 60 64 68 71 74 76 79 82 85 89 93 96 100 104 97 94 96 96 97 98
50 47 53 51 49 47 42 26 33 44 53 55 55 55 52 51 50 51 52 53 54 56 57 59 61 62 65 70 74 77 81 84 88 91 95 100 100 92 92 93 94 95 97 95
43 43 37 40 39 28 36 26 31 40 48 52 52 53 52 51 50 52 53 54 56 57 59 62 64 67 69 72 75 79 82 86 91 95 98 92 89 90 92 92 93 94 92 96
33 33 39 33 24 27 21 32 32 40 47 50 52 53 53 53 54 55 55 56 58 59 61 64 67 69 72 76 79 82 86 90 93 90 86 87 87 90 90 89 88 90 95 102
33 30 28 28 30 31 31 30 36 42 44 48 50 51 52 53 54 54 54 56 59 61 65 67 69 72 75 78 82 86 89 87 82 82 83 84 85 85 85 85 90 95 101 107
25 23 22 24 25 27 29 33 38 42 43 45 48 50 53 53 53 54 55 57 60 62 65 69 72 75 79 82 83 81 78 78 79 81 81 83 81 81 85 90 95 101 106 113
22 21 23 24 24 27 29 34 40 42 44 46 47 49 51 52 54 56 58 61 64 67 70 72 75 76 76 74 72 74 75 76 77 77 77 77 80 85 91 97 102 106 112 119
23 24 22 21 22 24 29 35 40 43 45 47 48 50 52 54 57 59 62 64 66 68 68 67 67 65 66 69 70 71 73 72 70 71 73 79 85 92 97 103 108 114 121 124
21 22 21 20 18 20 22 26 31 37 41 44 47 50 52 54 56 57 56 55 56 57 56 58 61 64 67 68 69 67 64 65 66 72 77 84 90 96 101 110 117 123 121 114
18 16 15 16 17 18 19 21 24 26 29 31 34 36 39 40 41 43 46 49 51 54 57 59 62 64 65 61 56 56 59 65 70 77 84 90 95 100 106 114 119 114 111 107
16 15 15 15 16 17 18 19 21 24 27 30 32 34 37 39 42 44 47 50 52 54 56 58 57 53 49 50 54 59 64 71 77 84 89 95 100 107 113 118 110 104 101 97
17 16 16 17 17 17 17 20 24 27 29 31 35 38 40 43 45 47 48 48 49 49 47 45 43 44 49 54 60 65 71 78 84 90 95 101 108 113 117 110 102 98 94 89
21 21 19 18 20 22 24 26 29 32 35 37 38 40 43 45 45 43 43 43 41 39 38 41 45 50 55 61 66 73 78 84 89 95 101 108 114 116 107 99 95 93 89 87
28 28 29 27 29 29 30 31 33 35 37 40 42 41 39 39 38 38 36 34 35 37 41 45 51 56 62 67 73 79 85 90 96 102 109 115 114 103 97 94 92 89 88 86
35 34 33 34 35 35 35 37 38 38 40 39 33 31 30 29 29 29 31 34 37 42 47 53 58 63 69 74 80 85 91 96 103 108 114 112 103 98 93 91 89 88 85 79
42 40 39 40 40 41 41 42 41 40 38 32 27 27 28 28 30 33 36 40 45 50 54 59 65 71 76 81 87 92 97 103 109 113 111 103 99 95 91 89 87 85 77 70
47 45 43 43 43 44 45 44 44 40 35 32 31 32 33 34 37 40 44 48 53 57 61 66 72 78 83 88 93 98 103 109 113 113 104 100 96 91 88 86 83 75 68 64
50 49 49 48 48 48 47 47 44 38 36 35 36 37 38 41 44 47 51 56 60 64 69 74 80 84 89 94 98 104 110 114 112 106 102 95 89 87 84 80 73 66 62 56
44 46 46 46 46 46 46 41 38 37 38 39 41 43 45 48 51 55 59 63 67 71 76 81 86 90 95 99 103 109 114 113 106 101 93 88 86 83 78 70 64 60 54 47
30 34 37 38 38 38 36 36 38 40 42 44 47 49 52 55 59 62 66 70 74 78 82 86 91 95 99 104 110 114 112 107 99 90 85 83 80 75 67 61 58 52 46 40
28 27 28 29 31 33 36 39 42 45 48 50 53 56 58 61 65 69 73 77 80 84 88 92 96 99 104 110 113 110 107 96 86 83 82 79 72 64 58 56 50 44 38 32
36 35 35 36 38 40 43 46 48 51 55 57 59 61 65 68 71 75 79 82 86 90 94 97 101 106 109 111 108 104 91 83 82 81 76 69 61 56 54 48 41 36 31 24
45 45 45 46 48 49 51 53 55 58 61 63 65 68 71 74 78 82 85 88 92 95 99 102 106 107 108 106 103 87 79 77 75 73 67 59 54 51 46 39 35 29 22 17

GFSNGP_250_spd_003.txt.gz
Wind_Speed
40 44 39 39 29 29 41 45 48 44 40 42 43 48 49 53 60 65 65 65 65 62 57 56 56 56 57 58 57 57 58 60 62 65 67 70 74 78 82 86 89 94 99 102
31 30 32 35 47 44 49 51 48 36 31 32 38 42 46 51 62 64 64 63 62 59 55 55 53 53 55 56 57 58 60 61 64 67 71 75 79 83 86 91 95 99 102 105
28 27 27 28 43 47 39 38 47 36 30 27 31 36 43 52 59 61 62 61 58 54 52 50 49 50 54 55 57 58 61 64 67 71 75 79 83 87 92 95 98 101 104 108
32 32 32 21 20 18 34 28 22 32 27 30 34 41 50 57 58 59 60 57 53 51 50 50 50 51 53 55 58 60 63 66 70 74 78 82 86 89 92 96 100 103 108 110
32 29 17 24 25 26 20 18 29 23 26 27 33 43 49 55 58 59 57 53 50 49 49 49 50 52 54 56 59 61 65 68 72 76 79 82 86 90 94 98 103 107 106 102
31 29 24 13 27 32 27 18 10 30 29 34 32 40 50 56 57 56 52 49 47 47 48 49 50 52 54 58 61 64 67 71 74 78 82 86 89 93 97 102 103 99 101 103
28 26 29 29 25 26 20 7 4 14 27 28 37 43 52 55 53 50 47 47 46 45 48 50 52 55 58 60 63 67 70 74 77 81 85 89 92 97 99 97 96 98 98 93
27 28 31 23 23 24 20 16 9 3 15 33 39 42 49 52 50 48 46 45 45 46 49 52 55 58 59 62 66 71 74 77 80 84 88 93 94 93 92 94 95 92 89 93
29 23 20 20 27 28 25 25 18 11 11 20 28 41 47 49 48 47 46 46 47 48 50 52 55 59 62 65 69 72 75 79 84 88 89 88 88 91 92 89 84 85 90 96
29 25 22 21 23 25 22 21 23 22 17 17 25 37 44 46 46 46 46 47 49 51 54 57 59 61 65 68 71 76 80 83 84 83 82 84 87 85 79 80 84 89 96 102
23 20 24 23 22 20 18 19 20 21 22 26 30 34 41 43 43 45 48 50 52 54 57 60 63 66 70 73 76 78 79 77 76 79 82 80 74 73 79 84 89 94 100 106
20 21 20 20 21 17 16 18 19 19 24 27 32 36 39 42 43 45 48 51 54 58 61 64 67 69 70 70 69 69 69 74 76 74 68 67 73 79 84 90 96 101 107 112
19 21 19 17 15 14 14 15 16 18 20 27 33 35 38 41 44 47 50 53 56 58 60 62 60 59 61 62 66 69 73 68 61 62 66 71 77 83 90 99 103 107 113 119
12 10 8 7 7 8 10 11 13 15 18 21 25 28 31 34 37 40 41 43 45 47 49 51 55 58 61 66 67 61 56 56 60 65 71 77 83 89 94 99 104 112 117 108
12 10 7 7 7 7 7 8 9 11 13 16 18 21 24 27 30 33 37 41 45 49 52 55 58 60 59 55 51 51 55 59 65 71 77 83 89 94 99 104 111 110 102 102
17 14 13 11 10 10 10 11 13 13 15 18 21 25 29 33 36 40 44 49 52 54 55 55 53 50 46 46 50 54 59 65 71 77 83 89 94 98 104 110 107 99 97 97
17 17 16 13 13 13 14 14 15 16 19 22 25 29 33 36 40 45 47 47 46 43 41 39 39 41 44 49 54 59 65 71 77 83 89 94 100 104 111 107 98 97 97 94
20 20 19 20 20 20 21 22 23 25 28 31 32 33 34 37 39 36 33 32 32 31 32 35 39 44 49 55 60 65 71 76 83 89 95 101 105 112 106 99 96 97 95 89
27 27 28 27 27 29 30 30 31 33 35 37 38 38 39 38 32 29 28 28 30 33 37 41 46 51 56 61 66 72 77 83 88 95 102 106 114 111 99 96 96 93 89 86
35 35 35 36 36 34 35 37 38 39 41 42 42 42 41 36 31 30 32 34 37 40 45 49 53 58 63 68 73 79 84 89 95 102 106 114 114 99 95 95 93 90 86 79
44 44 44 44 44 44 44 44 44 45 45 45 43 41 41 36 34 35 38 40 44 48 52 56 61 65 70 74 79 84 90 95 101 107 113 113 102 95 93 91 89 85 77 69
24 34 43 50 53 52 50 49 49 49 48 47 43 44 41 38 38 39 42 46 50 54 59 63 67 71 76 81 86 91 95 101 107 112 113 102 95 92 91 88 84 75 66 63
22 24 28 34 41 46 49 52 52 50 49 46 44 42 39 39 41 44 48 52 56 61 65 69 73 78 82 87 92 96 101 107 113 114 101 94 91 89 87 83 74 65 60 56
27 27 30 29 29 33 36 39 41 43 43 40 37 37 39 42 45 49 54 59 63 67 71 75 79 84 88 93 97 102 107 112 112 102 91 89 87 85 80 71 62 58 54 49
34 33 33 32 30 28 28 29 30 31 31 34 37 40 44 47 52 57 61 65 69 73 77 81 85 89 94 99 103 107 110 109 100 91 89 86 84 79 68 60 56 51 46 41
39 38 38 37 36 36 35 35 35 37 39 42 45 48 51 55 59 63 67 71 74 78 82 86 91 96 100 103 107 108 106 98 89 87 85 82 77 66 58 54 48 43 38 33
45 44 43 42 42 43 43 44 45 46 49 51 54 56 59 62 66 69 72 77 81 85 88 93 98 101 104 106 105 103 95 88 84 83 79 74 63 57 53 47 41 36 32 28

GFSNGP_250_spd_006.txt.gz
Wind_Speed
28 29 25 20 18 11 4 4 11 18 25 30 37 43 49 57 57 53 53 53 54 57 59 61 62 59 60 57 54 53 53 54 57 61 64 65 67 69 70 73 76 79 84 88
31 30 29 26 19 17 12 16 21 23 27 28 28 34 39 48 54 54 52 52 52 51 53 59 59 58 56 54 52 53 53 55 59 64 65 68 69 70 73 76 79 84 88 92
23 26 22 31 28 26 22 26 24 29 30 28 28 29 35 42 46 45 46 47 46 49 54 56 54 54 54 51 51 52 54 57 62 65 68 69 70 73 75 79 83 86 90 94
15 18 21 18 16 27 25 28 24 22 21 23 22 20 24 30 36 39 40 40 43 50 52 52 53 52 48 48 51 53 55 59 63 65 66 68 71 75 77 81 85 90 94 97
15 24 18 21 12 18 15 25 25 19 23 20 13 7 13 16 24 28 31 39 46 49 50 50 49 48 48 48 50 53 57 61 62 64 67 70 73 77 81 84 88 93 97 101
11 13 12 21 14 15 11 4 10 12 12 15 12 12 10 13 12 21 31 41 45 47 47 46 46 46 48 49 52 56 59 61 62 65 69 73 77 81 84 88 92 96 101 104
18 14 11 16 12 3 7 13 9 5 5 7 8 13 13 14 18 20 30 38 43 44 45 45 45 46 48 52 55 57 59 62 65 69 73 77 79 82 87 91 96 99 98 96
17 18 14 16 10 10 9 9 10 5 4 6 12 17 13 13 19 25 32 38 43 45 45 44 45 47 50 54 56 59 62 65 68 72 75 78 82 86 91 96 96 91 92 87
21 21 19 16 18 16 18 21 22 20 11 1 7 10 14 17 23 33 35 41 45 46 45 45 47 49 52 54 56 60 63 66 70 74 78 82 87 91 92 87 87 82 79 85
22 18 17 15 20 19 15 20 23 15 13 7 7 10 13 18 26 31 36 40 44 44 44 47 49 50 53 56 60 63 67 70 74 78 83 87 87 84 83 79 73 78 83 89
23 25 29 30 23 27 20 15 15 14 11 11 11 15 19 22 27 29 36 41 43 44 46 48 51 54 57 61 64 67 70 74 78 82 81 78 79 74 68 72 77 82 88 94
18 17 19 16 16 18 10 11 12 10 11 13 16 19 18 23 28 32 35 39 42 45 47 50 53 57 60 63 66 70 73 74 73 72 74 70 65 66 71 77 83 88 94 100
20 20 18 15 13 12 13 11 8 6 7 12 14 17 19 21 23 26 30 35 39 43 47 51 56 60 62 65 66 67 65 66 68 66 62 60 65 71 78 85 90 95 100 105
15 14 10 5 3 1 3 6 5 6 6 8 10 14 16 19 23 28 32 36 40 45 48 51 53 55 57 59 60 61 62 60 58 56 59 64 71 76 82 87 94 101 107 113
12 12 12 10 9 7 5 4 4 4 5 6 8 10 12 16 20 25 28 32 35 39 43 47 51 54 56 58 57 54 52 50 53 58 64 70 76 82 87 94 99 102 109 112
7 7 8 9 9 7 7 6 6 7 7 8 9 11 15 19 23 26 30 34 39 45 49 51 50 48 46 44 43 43 47 52 58 63 70 76 82 87 94 98 102 109 106 103
9 9 11 12 11 10 9 10 10 11 12 14 17 19 22 25 28 31 32 35 41 42 37 35 35 37 37 39 42 47 53 59 64 70 76 82 87 93 98 102 108 102 100 98
15 14 14 13 13 15 16 17 18 18 19 20 23 26 28 30 34 35 35 37 40 37 34 35 36 37 40 45 50 54 60 65 71 76 82 87 93 98 103 108 100 96 96 90
19 20 20 20 21 22 23 24 25 27 28 29 31 33 35 38 39 39 40 40 41 39 39 38 39 42 47 51 56 61 66 71 77 82 87 93 98 104 107 102 94 93 87 83
25 26 27 28 29 30 31 31 33 35 36 37 39 40 42 43 45 45 45 44 44 41 42 42 44 48 53 57 62 67 73 78 83 88 94 98 104 108 101 92 90 85 82 78
31 30 32 34 36 38 39 41 43 44 45 46 46 47 47 48 50 50 49 48 46 43 44 46 49 53 58 64 69 74 79 84 89 94 99 105 107 101 91 89 85 79 77 70
33 36 38 39 41 38 42 44 47 51 52 52 52 52 50 51 52 51 47 46 42 44 46 49 54 59 65 70 75 80 84 90 96 100 105 107 99 92 88 84 79 74 68 63
29 26 26 26 27 27 27 26 29 33 37 40 41 42 43 43 42 43 42 40 42 45 49 55 60 65 70 75 81 86 91 96 100 104 105 98 90 86 83 77 75 67 61 57
33 33 32 32 31 29 29 28 28 29 29 30 32 33 34 34 34 36 39 42 46 51 56 61 66 71 77 82 87 91 96 100 104 103 97 89 85 82 77 74 67 60 55 49
40 39 39 38 37 35 34 32 31 31 31 31 31 32 34 36 38 41 46 49 53 58 63 68 73 78 83 88 92 96 100 102 102 97 90 85 82 78 75 68 58 54 48 41
45 45 45 44 42 41 40 38 37 37 37 37 38 40 42 44 45 49 53 58 62 66 71 76 80 84 89 92 96 100 100 100 96 90 84 83 79 75 69 58 53 47 41 34
50 50 49 48 46 46 45 45 45 44 44 45 46 50 52 53 54 58 62 66 70 74 79 82 86 90 93 96 99 98 98 93 90 85 82 79 74 68 57 51 46 40 34 27

GFSNGP_250_spd_009.txt.gz
Wind_Speed
20 34 42 42 40 36 35 28 13 2 13 27 47 62 63 57 57 60 56 51 47 44 44 46 48 50 50 50 52 60 58 58 58 59 59 57 56 58 61 63 67 70 74 77
23 35 42 45 48 44 37 27 17 11 11 14 23 39 60 57 52 49 45 44 42 38 42 49 52 50 50 49 47 58 58 58 58 58 56 54 57 60 61 66 69 73 78 81
19 22 28 33 37 42 42 38 33 31 28 23 20 26 40 54 54 51 48 47 44 44 46 47 46 46 47 46 47 57 59 58 55 52 52 55 57 60 64 68 72 77 81 83
15 19 18 22 29 35 42 42 38 35 34 32 24 24 29 39 47 50 48 45 43 47 45 44 45 41 41 44 48 54 52 50 47 50 53 56 59 63 66 71 76 79 82 85
11 21 25 25 19 24 27 31 34 36 35 30 27 21 16 23 28 34 38 41 43 43 43 41 39 39 41 41 47 48 46 46 47 51 54 57 60 65 70 75 79 82 84 89
9 15 15 21 24 19 22 17 18 20 23 21 18 15 13 8 8 19 26 32 35 35 33 34 34 33 35 41 44 42 41 44 48 51 54 59 64 69 74 78 81 85 89 92
5 9 7 11 15 17 19 22 14 14 11 11 10 9 6 7 7 6 5 9 13 19 23 25 27 32 35 36 36 38 42 46 50 54 58 63 68 73 76 80 85 88 92 96
8 2 1 2 7 11 12 16 17 16 14 11 7 11 7 7 4 2 5 6 4 11 17 22 26 28 31 33 36 40 44 49 53 57 62 67 71 75 79 83 87 90 96 97
13 11 10 10 8 9 11 13 13 17 17 16 6 8 11 7 9 6 3 3 7 10 16 22 27 30 34 37 40 44 48 53 57 62 66 70 73 78 82 85 90 92 89 89
23 22 23 21 20 19 19 22 20 23 9 1 12 18 18 15 12 9 7 9 12 17 21 26 31 35 39 42 46 50 53 58 62 67 70 74 78 81 84 87 84 85 79 77
28 29 30 28 25 26 27 25 13 12 7 5 13 15 16 17 15 13 13 13 18 21 25 29 36 41 44 48 50 54 58 63 67 70 73 77 80 82 79 79 78 72 76 82
23 19 20 22 19 17 18 16 13 10 5 5 13 16 17 17 18 19 18 18 19 21 26 31 37 44 49 52 55 60 64 67 68 71 75 77 74 74 74 68 68 74 80 87
20 18 18 15 12 12 12 12 8 5 4 5 9 15 17 19 18 18 20 23 24 26 29 34 39 45 50 55 58 61 64 67 69 69 68 69 67 63 63 68 73 79 86 93
17 17 15 12 7 6 6 6 7 6 5 5 7 10 15 17 19 20 22 22 23 27 31 36 41 47 51 55 58 60 61 63 63 61 57 55 56 62 68 74 81 89 95 99
13 12 12 13 16 12 9 9 9 9 8 7 7 9 11 12 12 13 15 18 22 26 30 36 41 45 49 53 55 56 54 50 49 49 51 56 62 68 74 79 85 91 97 103
12 15 16 17 15 12 10 9 8 8 7 6 6 8 9 11 12 14 16 20 23 28 33 36 40 45 47 47 46 45 45 45 47 51 57 61 68 74 80 85 91 97 101 105
14 13 12 11 12 11 11 11 9 9 9 10 11 12 14 15 18 21 23 26 31 33 36 38 40 43 45 45 45 45 46 49 53 57 62 68 75 80 86 91 96 101 105 100
14 13 13 16 16 16 16 15 14 14 15 16 17 18 20 24 25 28 31 34 37 39 40 42 45 47 47 45 45 47 50 53 58 63 69 75 80 86 91 95 100 101 98 94
16 16 18 22 21 21 20 18 18 19 21 23 25 27 30 32 33 36 38 40 42 45 47 49 50 50 48 45 46 49 53 58 63 70 76 82 88 91 95 99 98 94 89 85
20 20 22 23 22 22 22 24 24 26 29 31 34 37 39 41 43 44 46 47 49 51 52 52 50 50 46 44 47 52 58 64 70 76 82 88 92 95 99 96 90 86 80 72
24 25 25 26 26 27 29 30 31 33 37 40 44 47 50 52 52 52 51 53 53 52 49 46 44 40 41 46 52 58 64 71 77 83 89 93 96 98 95 88 84 76 68 63
29 29 30 30 31 32 35 38 40 41 41 34 30 30 32 34 36 38 39 40 40 39 36 36 39 43 48 53 59 65 72 78 84 89 93 96 97 93 87 82 74 65 61 55
37 37 36 35 34 36 33 26 26 29 30 30 31 30 29 28 27 26 27 28 31 34 38 42 46 51 56 62 67 73 79 85 89 93 97 95 91 84 79 72 65 61 55 53
45 45 46 45 45 37 33 33 32 33 33 34 34 34 33 32 32 32 33 35 38 41 45 50 55 59 64 70 75 81 86 90 93 96 95 90 82 77 72 65 61 54 52 49
37 36 36 37 38 39 38 37 38 38 39 39 39 39 39 39 39 39 41 44 47 50 54 58 63 67 73 77 82 87 89 93 95 95 90 82 76 72 65 62 55 50 48 42
42 43 42 42 43 43 43 44 44 45 46 46 46 45 45 46 46 47 49 52 55 59 62 67 70 75 80 84 87 89 92 94 94 88 81 76 72 66 61 54 49 47 41 36
49 47 48 49 48 49 49 49 50 50 50 51 51 51 51 53 54 54 56 59 63 66 69 73 77 81 84 87 89 92 93 92 87 82 76 73 67 61 54 48 46 40 35 30

GFSNGP_250_spd_012.txt.gz
Wind_Speed
12 18 26 35 41 44 40 32 26 13 11 14 15 24 39 51 54 57 61 55 57 54 52 49 43 39 37 42 46 49 51 49 47 51 59 64 66 67 67 64 63 61 62 66
8 11 20 29 39 44 45 43 33 26 13 5 3 17 33 42 46 46 47 46 52 52 51 49 43 37 37 43 47 50 51 49 48 48 55 65 65 61 63 62 61 62 64 68
5 10 16 24 29 37 43 46 47 39 20 19 11 20 31 31 34 38 38 45 46 47 46 47 43 41 39 41 47 50 50 52 52 52 53 60 61 59 60 60 60 61 66 71
9 12 12 16 29 33 37 40 45 44 44 40 30 12 27 28 29 34 37 41 44 45 45 43 40 38 39 42 44 46 48 48 50 50 51 56 59 57 55 55 58 64 68 72
9 18 14 18 28 31 33 34 37 41 41 40 39 30 14 30 28 32 36 38 39 41 42 42 43 40 39 38 41 44 47 47 45 46 47 51 53 51 50 54 60 65 70 75
5 9 14 18 20 25 28 31 27 32 31 31 34 32 27 18 30 28 31 35 39 40 41 40 40 40 39 39 41 42 41 39 39 39 41 45 46 47 50 58 63 68 72 77
3 8 11 12 16 20 21 22 20 26 26 23 20 20 23 22 14 26 32 32 34 35 37 38 37 37 37 38 36 32 28 26 29 33 38 41 44 50 56 61 66 72 77 81
9 7 6 10 13 15 16 18 21 23 14 21 7 10 11 14 19 17 17 18 23 24 25 26 27 24 20 17 17 18 22 26 31 34 38 43 49 54 60 65 71 76 82 87
20 17 14 15 14 19 22 23 22 21 16 14 7 8 10 9 9 15 17 18 15 14 13 12 11 11 12 15 18 22 25 30 34 38 43 48 53 59 65 70 76 81 86 92
26 26 23 23 24 26 26 24 22 20 11 5 8 13 13 11 8 8 9 9 9 8 6 5 7 10 14 18 23 27 30 34 39 44 50 55 60 65 70 75 81 87 91 91
32 31 29 27 28 28 27 18 15 12 7 7 13 12 17 16 17 14 11 8 8 6 6 8 11 15 19 23 27 31 38 43 48 52 57 61 66 71 77 82 85 85 84 80
29 30 28 28 23 20 15 13 15 12 8 8 10 15 17 18 18 16 15 13 12 11 13 17 21 23 26 31 35 40 45 50 55 59 64 68 72 76 79 78 77 73 70 74
32 30 28 24 17 13 12 12 12 6 6 7 9 13 16 19 19 18 16 17 17 18 21 24 26 29 32 36 39 43 48 52 56 61 64 68 70 72 70 65 65 67 73 80
28 26 22 19 14 12 14 14 8 7 7 8 7 8 10 14 19 19 18 19 19 19 21 24 26 29 32 35 39 44 49 53 57 60 61 59 58 59 61 63 70 75 79 85
22 22 20 19 16 18 16 11 8 9 8 7 7 7 6 8 11 12 11 10 12 14 18 20 23 29 33 37 41 44 47 51 54 54 53 54 56 59 63 68 74 80 87 94
16 16 16 17 18 16 13 10 9 7 6 7 7 5 3 3 6 8 10 13 16 19 22 26 30 33 36 39 42 46 49 52 54 53 53 53 57 62 67 73 80 86 92 96
13 14 14 15 16 16 14 11 9 8 8 8 7 7 9 11 13 15 19 22 26 29 31 33 37 39 42 44 47 49 51 52 53 49 50 54 60 66 73 79 85 92 97 100
16 17 17 17 18 17 16 15 14 14 13 13 13 15 17 19 21 24 28 31 33 36 37 40 43 45 47 48 49 48 47 45 43 47 52 59 66 73 79 85 90 94 99 97
18 19 20 20 20 20 19 19 18 19 20 19 20 21 24 27 30 33 37 41 44 45 46 47 47 48 48 45 39 38 40 44 49 55 62 69 74 80 86 89 93 95 91 86
21 21 20 20 23 25 25 25 25 23 22 22 24 28 31 34 38 42 42 42 41 41 41 41 40 36 31 33 37 41 47 53 58 65 71 77 82 86 89 92 90 85 81 76
23 24 25 25 26 28 29 27 26 26 28 29 32 35 37 30 26 31 30 27 26 26 25 24 25 30 34 39 45 50 56 62 68 73 79 84 87 89 91 87 80 77 73 67
28 28 30 30 30 30 29 29 30 31 32 36 35 25 26 28 30 31 30 28 28 29 31 32 35 39 43 49 54 59 65 70 75 81 85 87 89 91 85 78 74 70 64 59
33 33 33 33 33 33 33 34 37 35 34 30 28 29 31 33 34 35 36 35 36 38 39 41 45 49 53 57 62 67 73 78 83 86 87 90 90 84 78 73 67 62 57 50
38 37 37 39 40 41 41 40 39 39 39 37 35 35 37 38 39 41 42 43 44 46 48 50 53 56 60 64 70 75 80 84 87 88 91 90 83 77 72 66 60 55 49 45
45 43 42 44 46 46 47 49 49 47 45 40 40 41 43 44 46 48 48 48 50 51 54 57 60 63 67 72 77 82 85 88 90 90 88 83 76 70 65 60 54 48 44 42
52 51 49 49 50 47 43 41 40 38 39 42 43 45 48 49 51 52 52 53 54 57 60 63 66 70 74 78 82 86 88 89 88 86 81 75 69 63 59 54 47 43 41 38
54 53 50 49 47 43 43 44 44 45 47 48 50 51 53 54 55 56 57 59 60 62 65 68 72 76 80 83 86 86 87 86 84 81 73 69 62 59 53 46 42 41 37 34

GFSNGP_250_spd_015.txt.gz
Wind_Speed
10 2 4 14 20 27 35 36 40 36 31 28 21 18 15 16 21 27 41 44 54 64 62 58 49 47 47 47 46 44 45 48 49 49 50 52 52 53 56 57 61 66 70 72
5 3 5 12 20 23 32 41 45 46 40 30 21 13 6 4 7 17 25 34 47 52 53 52 48 47 45 40 39 41 43 44 47 49 49 51 53 55 58 52 55 61 69 71
8 6 1 12 16 22 33 38 40 44 46 36 23 20 16 13 9 12 19 27 34 39 44 45 46 45 40 38 39 38 39 39 48 46 48 51 53 57 53 57 58 59 64 70
7 6 4 14 13 17 27 37 41 43 44 42 22 18 16 13 10 12 14 19 26 32 38 41 42 41 39 40 37 37 38 39 52 50 51 52 54 58 61 59 57 58 59 64
10 10 5 5 11 17 18 26 36 41 41 39 32 15 13 12 12 16 19 23 26 30 33 35 38 41 42 39 21 31 37 43 45 46 49 52 54 56 56 54 56 53 54 58
12 8 1 8 10 15 21 25 28 30 38 31 31 24 13 13 13 16 20 22 25 29 32 35 38 39 38 38 38 48 46 41 50 48 52 52 52 51 51 46 44 46 50 56
10 6 5 10 13 18 21 28 35 29 30 27 20 22 16 9 11 15 19 23 26 30 31 34 35 36 37 38 41 44 46 46 48 49 47 46 41 37 37 39 44 49 53 57
16 13 13 16 16 20 24 26 30 29 27 14 10 9 12 10 10 11 14 19 25 27 31 32 31 32 35 37 39 41 42 40 35 31 29 30 33 36 40 44 48 53 58 63
17 19 20 23 24 25 27 30 33 23 22 14 5 2 4 6 8 11 15 17 20 23 23 27 29 29 28 27 25 24 22 22 24 27 29 33 37 42 46 50 55 60 65 71
24 27 27 27 29 29 29 28 30 19 15 7 7 11 6 4 11 13 11 13 14 15 15 17 18 18 17 16 16 17 20 23 27 31 36 40 44 49 53 58 63 69 74 80
25 28 30 31 31 32 28 25 22 17 13 9 9 11 11 10 7 11 13 16 15 14 13 12 12 12 13 15 18 21 24 28 33 37 42 47 52 56 61 66 70 75 79 82
29 29 30 28 29 27 22 22 16 16 12 8 6 8 12 11 12 10 10 9 9 10 10 11 13 14 16 18 22 26 29 33 38 43 49 54 58 63 66 69 72 74 74 73
28 28 31 32 31 21 18 17 18 17 10 8 6 7 8 9 13 15 16 12 12 12 12 15 18 20 21 22 24 26 30 37 43 46 49 53 57 60 63 66 66 66 68 70
25 28 33 31 25 18 18 18 21 14 10 8 7 7 6 9 11 14 14 14 12 13 15 18 17 16 19 23 27 32 36 40 43 47 52 55 59 60 61 62 62 62 66 72
28 30 31 29 25 21 20 21 16 10 9 8 7 4 1 2 3 5 8 7 6 8 11 14 18 22 26 29 33 37 41 44 47 51 54 56 56 56 56 57 60 66 73 80
27 27 26 24 21 21 21 17 12 9 9 7 5 5 4 2 2 4 7 9 11 15 19 24 27 32 34 36 39 42 45 48 51 52 50 49 49 52 57 62 69 75 81 86
21 22 21 18 16 16 15 11 11 12 11 9 8 7 7 7 9 12 14 17 20 25 30 34 37 39 42 44 45 47 49 51 46 43 45 49 54 60 67 72 78 84 89 93
14 14 14 13 12 12 12 13 13 13 13 13 13 13 14 15 17 20 23 27 30 35 39 42 43 44 45 46 46 45 42 39 42 46 51 57 63 69 75 81 86 90 92 91
18 17 17 15 14 16 18 18 18 18 18 18 17 18 20 23 24 27 29 34 31 28 32 32 31 30 30 30 31 33 37 43 49 55 60 66 71 77 83 87 90 90 88 83
23 21 21 20 20 20 21 23 23 23 23 22 24 25 27 28 29 31 36 26 28 27 30 31 30 30 31 34 37 42 47 53 58 63 68 73 79 85 88 90 88 83 80 79
26 23 23 24 24 24 26 27 28 29 30 29 29 30 31 32 36 29 26 26 30 31 33 36 38 40 42 44 47 52 56 60 65 70 76 81 86 89 89 87 81 78 75 72
32 29 28 28 29 29 29 30 31 32 33 32 32 33 34 34 28 28 29 31 33 35 39 41 43 45 47 50 53 58 62 67 72 77 82 87 89 89 87 81 76 72 68 64
37 34 32 33 32 31 32 33 33 33 33 34 35 38 39 35 36 38 37 37 39 42 44 46 48 50 52 56 60 65 69 73 79 83 87 89 89 87 82 76 71 65 61 55
41 40 39 38 37 36 36 36 37 38 39 39 41 43 43 44 47 45 43 44 45 46 49 51 54 56 59 62 67 70 75 80 84 87 90 89 86 80 74 70 63 58 51 46
47 46 45 44 43 43 42 42 42 43 44 44 45 48 49 45 42 43 44 48 49 52 54 56 59 62 65 68 72 76 81 84 87 90 89 88 79 74 69 61 55 48 44 42
56 54 52 51 50 48 48 48 47 47 48 48 49 47 45 43 44 46 49 52 56 58 59 61 64 67 69 73 76 81 85 88 89 90 88 81 73 67 58 52 46 42 40 37
58 58 58 57 55 54 53 53 53 53 52 53 51 48 48 49 51 53 56 58 60 62 64 66 70 72 74 77 80 85 87 89 90 87 82 73 69 57 51 45 42 40 37 33

GFSNGP_250_spd_018.txt.gz
Wind_Speed
10 10 13 2 9 11 19 27 32 38 46 26 29 31 27 19 17 17 18 17 18 29 38 40 48 53 46 52 52 44 40 43 45 48 50 52 55 57 56 57 53 54 60 62
8 13 12 4 5 10 21 29 37 42 45 28 30 28 27 26 19 8 4 3 6 18 26 29 35 38 43 40 37 37 37 37 40 44 46 50 52 52 49 51 54 59 62 66
11 7 11 3 4 9 17 23 37 35 42 39 27 26 24 25 27 21 12 9 14 20 26 33 37 36 33 31 32 30 30 33 35 38 38 40 43 49 50 50 56 61 65 66
13 7 14 6 7 11 21 22 33 35 40 42 32 26 22 23 23 24 24 23 22 26 30 34 34 31 31 30 29 27 29 30 27 24 35 43 59 53 55 58 62 61 64 67
15 10 15 9 6 14 18 25 24 40 39 39 37 24 21 23 20 19 22 23 24 24 25 27 28 28 27 26 23 23 21 14 25 34 33 39 52 56 63 61 60 62 63 63
16 14 14 7 6 13 22 28 30 33 37 32 27 28 21 19 22 20 17 16 17 18 20 21 22 23 24 22 21 20 10 26 32 29 40 47 56 57 57 60 63 63 62 57
14 17 10 10 8 17 23 27 31 36 34 28 22 21 15 14 12 18 17 17 17 16 16 17 18 18 19 20 19 20 21 30 41 42 46 55 56 61 64 63 58 50 49 52
13 20 17 12 13 21 26 30 32 32 28 22 20 18 16 9 7 7 9 15 16 13 14 10 15 19 20 22 26 34 38 48 50 54 56 58 62 59 48 46 48 50 53 56
14 16 18 17 18 23 28 32 32 30 23 15 15 15 13 11 6 2 6 8 11 16 19 23 29 25 24 30 30 35 40 46 49 52 52 44 40 41 44 47 51 54 58 62
18 18 19 20 23 24 29 33 32 29 22 18 15 13 11 10 5 3 3 7 10 11 15 21 28 28 24 27 31 34 36 35 34 33 34 38 41 43 46 50 55 59 64 67
22 21 22 23 26 26 28 30 29 29 22 20 16 10 7 7 5 5 3 4 6 8 9 13 16 19 21 21 21 22 24 26 28 31 33 36 39 44 50 55 59 63 67 70
25 27 27 24 26 28 28 27 23 23 24 19 14 11 8 7 3 3 3 6 8 11 10 12 14 15 15 16 18 20 23 24 26 30 34 39 44 50 54 58 63 67 68 67
28 31 29 23 27 29 26 23 18 20 21 18 10 9 7 7 3 5 6 8 7 7 7 7 8 9 12 15 17 19 22 26 30 36 41 45 50 55 58 62 62 60 60 63
36 29 23 24 29 28 25 18 19 20 20 14 7 6 7 7 6 8 7 8 8 8 7 7 8 10 14 18 22 25 29 34 39 42 47 49 52 56 59 56 55 58 62 69
33 25 24 25 28 27 26 24 22 19 18 9 4 4 3 3 4 3 3 3 3 4 7 10 14 19 23 27 31 36 40 43 45 48 50 52 54 52 50 54 59 66 73 79
25 23 23 27 26 25 23 19 18 17 13 7 5 6 5 4 3 2 2 5 8 11 15 20 24 29 35 39 42 45 47 48 48 47 47 45 45 50 56 63 68 74 80 86
27 25 24 23 22 20 16 14 13 13 11 11 10 8 6 6 6 7 9 12 15 20 24 29 32 30 30 30 31 32 33 33 34 36 40 46 53 59 64 70 76 83 88 92
29 22 20 18 16 15 14 12 11 11 12 13 12 11 11 11 13 15 17 19 24 26 32 24 27 27 29 31 33 34 36 38 40 44 49 54 60 66 71 77 84 89 93 93
25 17 18 17 16 14 14 14 13 13 15 16 17 16 16 17 20 22 24 26 30 33 28 26 28 29 31 33 36 38 40 43 46 50 56 61 67 72 78 84 90 94 93 88
25 23 22 20 21 18 16 18 18 18 19 21 21 21 23 24 25 27 30 31 32 28 26 28 31 33 35 39 41 43 46 48 52 58 63 68 75 80 86 91 94 93 86 82
31 31 30 28 25 22 21 22 22 23 24 25 26 27 28 29 31 31 31 31 31 31 33 35 37 39 42 44 46 49 52 55 60 65 69 76 81 87 93 95 94 86 79 76
34 33 34 33 30 29 28 28 27 28 29 30 30 31 32 32 32 33 34 37 36 38 42 43 44 45 48 49 52 55 58 62 66 70 75 81 87 94 96 94 87 79 74 68
38 38 39 38 35 33 33 32 32 32 32 32 32 33 33 35 36 38 41 42 43 48 47 46 46 48 51 55 58 61 64 68 73 77 82 87 94 97 94 89 80 71 65 60
43 41 41 40 39 38 37 35 35 35 35 35 36 37 38 40 42 45 47 48 50 47 44 44 47 50 54 60 63 66 69 73 78 81 86 93 97 96 89 79 71 64 58 51
50 47 46 45 44 42 41 40 40 40 41 42 42 43 44 46 47 49 50 52 51 49 48 49 52 56 60 63 66 69 72 76 80 85 92 94 96 90 81 72 64 57 49 44
56 55 53 52 50 49 48 47 47 46 47 47 48 48 48 50 52 54 55 57 56 55 55 56 58 59 63 67 69 72 75 79 85 90 92 96 92 83 75 65 57 49 44 42
59 60 60 58 56 55 54 53 52 52 52 53 54 54 54 56 57 58 59 60 59 59 61 62 63 66 69 71 74 76 79 84 89 92 96 90 83 77 69 59 52 45 43 41

GFSNGP_250_spd_021.txt.gz
Wind_Speed
21 18 16 14 14 10 12 12 17 27 34 40 38 34 35 36 32 27 30 27 24 27 25 26 32 32 33 39 39 50 57 58 50 46 47 52 54 55 56 56 54 57 60 61
19 18 16 19 15 9 9 18 22 28 38 41 37 34 32 26 26 23 9 7 9 6 7 10 17 22 23 30 32 34 46 44 35 36 40 43 45 44 45 48 54 57 59 57
18 17 18 18 12 12 12 14 21 30 37 39 37 33 30 21 25 28 27 23 18 16 19 16 12 21 30 32 31 35 36 37 36 36 35 34 35 37 43 51 58 56 52 58
19 18 23 19 13 12 13 13 20 29 34 35 36 31 29 20 19 24 26 28 27 28 31 30 27 25 33 34 32 32 32 31 31 29 27 25 29 26 37 34 53 52 62 64
17 19 21 19 13 12 15 18 23 29 32 34 33 31 29 23 14 19 24 26 31 34 36 35 34 35 36 36 35 30 26 24 21 20 13 22 23 27 44 45 50 61 70 68
17 17 21 20 14 14 13 18 24 30 31 31 32 28 26 22 15 13 15 19 22 26 27 28 28 27 26 24 24 23 23 23 26 24 29 36 40 40 46 56 58 56 64 68
15 19 20 19 16 17 15 20 26 30 29 30 30 25 21 19 17 8 14 12 15 16 17 18 19 21 19 21 21 24 28 28 22 22 29 45 48 50 52 51 54 59 62 72
17 17 20 18 18 20 18 24 29 32 30 27 23 24 17 18 11 9 9 14 15 18 14 15 14 16 17 18 21 27 33 32 35 34 39 39 43 44 47 53 59 65 70 64
19 20 24 22 22 17 18 24 29 30 27 28 21 23 16 10 12 7 4 4 3 6 14 11 17 16 17 21 24 21 22 28 30 32 35 39 42 47 53 60 66 59 59 60
18 18 21 22 17 17 22 25 29 29 25 23 21 21 15 9 7 8 3 3 5 7 8 4 6 5 17 14 14 17 23 30 35 40 44 49 53 56 56 54 54 55 57 61
16 20 20 18 18 19 22 25 30 30 22 21 19 18 11 5 5 5 6 3 3 1 7 10 13 16 16 20 21 24 27 29 30 32 34 36 40 44 47 49 52 55 59 65
16 22 23 23 24 22 23 25 27 21 20 21 18 15 8 4 1 1 2 3 4 3 3 3 6 9 10 12 14 14 17 21 25 30 35 38 40 43 47 51 55 59 63 63
25 23 26 24 26 24 24 25 25 16 18 20 18 13 7 3 4 6 4 1 0 2 4 5 6 9 13 14 16 18 21 23 27 31 34 38 44 49 52 55 58 58 53 59
26 25 24 23 24 23 26 25 24 19 19 18 16 11 6 5 6 6 4 4 4 6 6 6 7 8 10 13 17 22 26 31 35 39 44 48 51 53 53 49 46 53 59 65
29 26 24 25 23 25 26 28 24 20 19 15 12 9 5 6 6 6 6 6 5 4 5 6 10 15 20 24 29 32 33 32 31 30 30 31 33 37 43 49 53 59 65 72
34 30 28 24 24 26 27 25 22 17 16 14 12 9 9 8 7 6 4 4 5 7 11 15 20 25 30 30 26 26 27 28 29 31 34 37 41 45 49 55 61 66 72 79
34 33 33 27 27 30 24 23 17 15 13 13 13 13 13 11 9 7 7 8 11 14 17 23 26 31 27 26 26 27 28 30 33 36 39 43 48 52 58 63 68 73 79 85
36 35 33 29 32 28 23 19 18 15 13 13 15 15 14 12 11 12 13 14 17 20 24 29 32 31 27 28 28 32 34 37 40 43 46 50 54 59 65 70 76 80 86 92
36 37 32 33 31 27 20 17 15 14 13 15 17 17 17 17 18 18 19 20 23 26 30 29 28 29 30 33 37 39 40 43 46 49 53 58 63 68 73 78 81 86 92 93
36 31 32 34 30 25 19 17 18 18 17 18 19 21 22 22 23 24 25 27 29 30 30 32 35 35 37 42 45 46 48 49 52 55 60 65 69 73 78 82 87 92 93 88
33 33 34 36 31 26 23 22 22 22 23 23 23 24 26 27 28 28 30 32 33 34 34 36 38 40 46 47 47 47 49 52 55 60 65 68 72 78 82 88 92 94 90 78
38 37 37 39 33 30 28 27 26 27 26 26 26 27 29 31 32 33 33 34 36 38 40 41 45 46 48 47 46 47 49 52 57 61 67 72 77 82 88 94 94 94 79 72
41 39 38 37 35 34 34 34 33 31 31 32 33 34 34 35 36 35 36 38 39 41 43 45 46 48 52 52 52 53 55 58 61 67 73 77 82 88 94 95 95 84 73 66
44 43 40 39 38 37 37 37 37 37 36 36 37 38 38 38 39 41 41 42 43 45 47 48 51 53 56 57 57 59 61 65 68 73 78 82 87 92 96 94 89 76 68 62
49 47 45 44 43 41 42 42 41 42 42 42 42 42 42 42 43 44 45 47 49 51 52 53 56 58 61 61 61 63 65 68 72 76 81 86 91 94 95 88 80 71 64 59
52 52 51 49 48 48 47 46 47 46 47 47 47 46 47 47 47 49 51 53 56 58 58 60 63 64 65 66 66 67 69 72 76 80 84 89 93 94 87 81 75 66 61 56
55 55 54 54 53 54 53 51 51 51 51 51 51 52 52 52 52 54 56 59 62 64 64 65 67 68 68 69 69 72 74 77 80 85 88 91 91 87 76 77 68 61 57 51

GFSNGP_250_spd_024.txt.gz
Wind_Speed
29 30 31 29 27 25 22 22 24 24 22 31 41 40 40 37 34 41 46 42 44 38 32 28 26 28 30 31 30 33 38 42 44 50 52 56 53 50 49 49 50 51 52 55
26 29 30 26 24 23 22 23 22 26 29 30 35 37 35 30 27 34 36 27 20 17 15 14 16 19 19 19 19 18 26 27 26 33 38 37 36 39 40 43 44 49 51 56
30 29 25 24 26 25 24 24 21 24 23 29 35 35 30 28 22 24 26 23 20 15 17 14 1 10 14 12 14 16 26 28 26 28 33 32 32 32 33 37 39 43 40 41
27 25 22 25 26 27 23 16 18 22 24 28 32 30 26 25 16 14 17 20 21 22 23 18 15 6 8 19 18 20 24 28 33 33 29 25 23 20 18 36 35 29 38 58
25 21 22 24 27 24 19 17 20 21 22 28 30 28 22 21 17 9 10 15 19 22 22 23 28 32 32 32 32 33 29 27 28 27 26 23 16 22 37 36 33 45 53 53
23 22 24 26 29 22 19 19 21 24 27 28 28 24 20 19 16 13 2 6 11 13 18 23 27 33 37 33 37 29 27 25 23 22 22 31 26 33 41 43 37 50 56 57
20 21 28 24 28 24 22 19 22 25 30 30 22 20 17 13 17 13 8 8 6 7 8 16 19 15 19 25 22 26 24 24 28 29 32 33 35 39 44 46 51 51 54 57
20 18 25 24 27 24 22 18 23 27 29 31 23 17 13 8 11 8 6 5 8 7 10 9 10 17 17 19 22 23 24 24 26 26 31 35 36 41 47 51 53 54 55 61
21 20 22 25 25 24 21 20 21 27 30 28 23 17 14 5 6 9 7 5 2 4 7 7 13 10 14 15 15 19 19 24 28 32 33 33 35 37 45 48 53 57 57 60
25 21 22 23 26 26 24 23 20 25 26 25 21 17 14 6 3 3 5 9 8 5 2 5 4 1 9 10 9 11 16 19 23 30 33 36 39 42 45 47 50 55 62 67
20 25 23 22 24 27 26 22 22 25 24 23 20 18 16 8 5 5 0 2 2 3 3 6 5 3 7 6 9 8 11 17 22 28 32 34 37 40 42 46 49 52 55 58
24 21 22 23 25 24 23 23 24 26 24 20 19 18 17 11 9 8 4 4 4 2 3 4 5 5 6 6 9 12 14 17 20 23 26 30 34 39 43 46 49 53 58 61
28 27 26 25 22 22 22 24 27 28 27 21 21 19 16 11 12 10 9 7 7 5 5 6 7 9 11 13 15 17 20 22 25 27 30 34 38 42 46 49 50 46 43 47
30 28 23 18 18 19 20 25 28 30 29 23 23 19 15 11 14 11 11 11 11 9 8 8 9 10 11 12 15 19 24 27 29 29 28 28 28 31 34 38 41 45 50 56
31 30 26 22 19 20 23 27 30 32 28 23 22 17 14 13 11 12 13 13 10 10 9 8 9 11 15 19 23 28 27 26 27 30 29 30 33 37 40 43 48 52 58 63
33 29 27 27 25 24 24 27 29 30 26 21 19 18 15 15 12 12 12 11 9 9 11 12 15 18 22 25 29 29 29 30 31 32 36 39 41 44 48 52 55 60 65 69
35 32 29 28 28 30 27 27 29 27 24 18 18 18 17 16 14 13 12 12 11 12 15 16 18 23 28 28 28 27 29 32 37 40 44 47 50 52 55 58 61 64 68 73
38 35 32 31 30 30 29 32 31 27 23 20 18 18 19 18 18 18 17 16 17 18 18 21 24 28 28 29 31 34 36 40 45 48 49 51 53 54 57 60 64 70 74 81
42 40 36 34 33 33 34 32 29 28 23 22 19 20 22 22 21 21 21 21 22 23 25 27 29 32 32 33 36 39 40 43 44 44 44 47 50 55 59 65 70 75 81 87
45 42 41 38 37 36 35 31 29 27 24 22 21 23 24 25 25 25 26 27 27 29 30 32 34 36 35 37 39 40 42 45 48 49 51 54 58 62 66 70 74 79 86 90
51 46 43 42 38 35 32 30 28 27 24 26 25 25 25 27 29 31 31 31 33 33 34 37 37 37 39 41 42 44 47 51 54 56 57 58 61 65 70 75 80 86 91 94
51 48 48 45 37 35 31 32 32 31 29 28 28 28 29 30 32 33 33 34 35 35 37 39 39 40 42 45 47 50 52 56 59 61 62 65 68 71 76 81 85 90 92 83
54 50 49 46 39 37 37 37 37 35 32 29 29 30 31 33 34 35 36 36 37 39 40 42 42 44 46 50 53 56 59 61 64 66 69 71 74 78 82 85 90 91 83 74
51 50 48 46 42 39 42 42 42 40 38 38 37 37 37 37 36 38 38 38 39 40 42 43 45 47 51 54 58 61 64 65 68 71 75 77 80 84 87 90 90 81 77 71
52 50 49 49 46 46 44 45 45 44 42 42 41 40 41 41 40 41 41 42 42 43 46 49 50 52 56 59 61 65 68 71 74 77 79 82 85 88 91 89 81 76 73 68
53 53 51 51 51 51 49 47 47 46 45 44 44 45 45 45 45 45 46 46 47 50 52 54 55 58 62 65 68 71 74 76 78 81 84 86 89 92 89 77 75 72 69 63
55 56 55 55 55 56 55 54 52 51 49 49 48 48 49 49 48 49 49 50 53 55 57 59 61 64 68 70 73 76 78 80 83 85 87 89 91 85 78 74 70 69 63 59

GFSNGP_250_spd_027.txt.gz
Wind_Speed
35 36 34 31 34 32 28 30 30 35 40 44 44 44 44 44 47 47 46 42 41 45 49 52 49 43 40 42 45 48 51 52 53 59 60 61 62 64 65 60 62 70 71 67
28 27 27 30 29 28 29 30 34 39 39 36 35 37 39 43 38 39 35 31 35 36 34 31 27 25 23 22 25 27 29 30 33 38 42 46 49 54 57 57 51 51 54 55
27 27 28 27 28 30 32 34 35 34 30 27 30 31 38 31 30 29 22 26 28 26 29 24 23 19 19 15 12 12 16 21 24 23 21 19 21 24 28 28 31 33 34 39
27 28 27 27 30 33 32 32 30 25 24 26 25 31 36 27 24 20 17 21 21 23 23 15 13 16 10 8 9 4 4 13 16 23 25 30 29 25 20 20 23 28 29 24
27 26 26 31 33 33 30 27 26 25 25 24 28 32 28 24 18 14 12 19 19 17 17 11 7 12 22 27 26 24 26 25 35 33 35 25 23 20 19 21 20 24 25 34
27 28 30 30 31 33 30 26 25 24 26 26 29 28 26 21 14 12 10 13 19 18 16 14 15 7 20 30 28 31 30 29 29 26 27 27 20 18 19 18 19 29 35 38
27 27 26 28 28 30 30 26 24 24 27 27 26 25 22 22 13 12 7 10 13 16 16 18 14 11 9 8 15 17 24 23 24 23 21 21 24 24 26 28 36 42 47 52
25 23 26 26 28 27 27 31 28 24 24 24 26 21 19 19 15 12 7 6 7 6 10 10 12 10 8 6 6 6 4 4 8 15 21 23 22 23 30 36 42 45 50 54
24 24 22 25 28 29 27 31 30 26 26 25 24 18 18 16 15 13 10 8 6 7 5 8 12 9 7 8 5 3 4 6 11 15 19 23 28 31 29 38 40 47 50 54
24 26 24 22 27 28 30 31 29 26 28 27 24 21 17 18 11 14 11 9 8 8 9 7 4 8 10 9 9 7 10 11 13 15 20 24 28 30 35 37 40 43 47 51
29 28 26 23 26 27 30 30 31 29 27 26 26 22 21 18 15 14 14 9 6 4 4 8 8 5 4 7 9 8 8 10 14 18 21 26 32 35 38 40 41 43 46 50
31 29 31 32 31 29 26 26 29 26 28 28 29 27 22 21 16 14 14 12 10 6 3 4 4 4 5 6 8 9 12 15 17 19 22 24 26 29 32 36 41 45 49 51
33 31 33 31 31 28 27 27 28 27 30 28 28 28 24 23 18 16 15 16 14 12 10 9 9 10 9 9 11 12 15 19 23 27 29 32 32 33 34 36 36 38 41 46
34 35 37 29 29 30 29 27 27 29 30 28 29 28 25 26 20 17 17 18 17 16 13 12 11 11 10 9 12 16 20 24 28 28 29 30 33 36 37 38 41 45 49 54
37 38 38 33 31 28 27 27 27 29 28 29 28 28 26 27 20 18 18 18 17 17 16 15 11 10 12 15 18 22 26 28 29 29 30 32 35 39 44 47 50 54 57 60
39 40 39 35 34 31 31 29 27 26 26 29 27 27 23 23 21 20 18 19 17 15 14 12 14 16 18 20 23 26 26 26 28 30 33 37 41 44 45 47 49 52 55 58
41 40 41 36 34 31 32 33 33 33 28 30 27 23 22 21 21 20 19 16 15 16 16 17 19 21 23 24 27 29 28 30 33 37 38 38 40 42 44 46 48 51 54 59
41 41 43 41 37 34 33 32 32 33 30 27 27 24 23 21 19 22 21 20 21 21 21 21 23 25 26 28 31 33 33 35 38 39 40 42 45 47 49 51 53 55 59 66
41 43 44 42 40 38 36 35 34 32 30 27 28 27 25 24 22 25 26 26 25 24 25 26 28 29 31 33 35 37 37 39 41 43 46 49 52 53 55 58 61 64 68 74
44 43 44 44 43 41 38 37 36 36 31 29 29 27 26 27 27 29 31 29 29 30 31 32 33 35 37 37 39 39 41 44 45 48 51 54 56 58 62 66 69 71 76 81
50 48 47 47 46 43 43 41 40 37 34 33 31 29 29 29 29 32 34 34 34 34 35 37 38 39 40 41 41 44 46 48 50 53 57 59 62 66 70 73 77 81 83 86
56 54 52 52 49 48 48 44 43 38 35 34 32 31 30 32 32 34 35 36 37 38 40 40 40 42 43 43 44 46 48 51 54 58 61 64 69 73 76 81 84 86 89 86
61 59 58 58 55 53 52 47 45 43 38 36 33 32 32 34 35 35 36 37 40 41 41 41 42 43 43 44 47 50 53 56 59 62 66 70 74 78 82 86 89 92 86 80
67 66 64 63 61 58 56 53 49 47 44 41 39 39 39 39 37 36 37 39 40 41 41 41 42 43 45 48 51 55 58 60 63 67 71 75 79 83 86 90 92 86 80 75
59 62 64 64 63 62 60 57 51 48 47 46 43 44 45 45 45 43 41 41 42 44 45 45 47 48 50 52 56 59 63 66 69 72 76 79 83 87 91 93 87 81 75 71
55 58 60 61 61 59 59 58 55 52 49 49 47 48 48 49 50 48 46 46 47 47 48 49 50 52 54 56 60 64 67 70 73 77 80 84 87 91 93 87 81 75 71 66
52 55 57 57 59 59 59 58 57 55 53 51 53 52 52 52 52 52 50 49 50 51 52 53 55 56 57 61 65 68 71 74 77 79 84 87 89 91 87 81 78 73 67 63

GFSNGP_250_spd_030.txt.gz
Wind_Speed
36 38 38 40 42 45 44 44 42 42 40 42 43 46 47 48 48 49 48 45 48 46 47 44 43 47 48 49 50 46 46 46 47 51 53 56 62 70 69 64 65 65 67 68
35 34 35 36 36 34 33 30 31 35 33 35 38 39 41 42 44 40 41 42 40 40 34 31 38 41 46 50 46 42 36 32 29 29 33 38 46 51 54 54 55 56 56 52
31 33 34 33 32 30 28 28 28 30 33 33 35 37 36 37 34 38 35 35 36 30 25 31 34 40 44 40 38 36 31 23 18 16 17 20 25 32 38 44 49 48 48 50
23 25 29 30 29 26 27 26 29 33 32 31 32 29 32 34 34 35 32 31 32 22 22 27 31 31 36 29 22 23 26 25 16 8 6 12 15 15 16 18 22 26 27 27
21 23 25 25 25 26 27 29 31 30 29 30 26 28 31 36 36 30 27 28 26 20 19 21 26 27 28 28 11 12 16 21 17 17 19 14 20 24 24 25 22 19 16 16
23 23 25 25 27 27 29 30 29 29 27 25 26 27 30 34 29 27 24 24 22 19 19 19 19 21 20 21 11 15 12 11 16 18 19 25 25 24 19 15 20 18 13 17
25 26 25 25 26 26 28 32 30 27 25 26 26 24 26 25 27 26 21 20 21 15 17 19 17 17 18 19 20 16 13 12 15 11 12 11 8 10 8 9 10 13 22 26
26 25 24 25 26 27 30 34 35 32 28 28 29 27 26 24 26 26 22 19 19 18 15 14 16 18 17 19 18 15 15 15 14 13 10 7 3 3 8 9 10 14 19 23
28 25 26 27 26 29 30 32 33 31 31 32 30 29 30 23 24 25 25 21 19 19 19 17 15 15 15 18 18 17 13 14 16 17 15 10 10 14 15 19 23 29 27 31
29 27 26 26 28 30 31 31 28 28 29 31 30 32 32 27 23 25 26 25 20 19 20 17 15 13 11 13 14 14 13 11 11 11 16 19 20 21 24 28 31 33 37 40
30 30 30 29 30 28 26 28 29 28 31 33 32 35 32 31 26 24 25 24 21 16 14 14 13 13 13 13 12 12 12 12 13 16 19 21 22 23 26 28 30 33 36 39
31 32 32 29 29 25 23 26 28 29 31 32 31 34 32 32 27 25 25 23 20 17 12 11 10 10 10 11 10 11 11 11 13 16 19 22 25 28 30 32 31 34 37 39
34 34 33 30 34 30 29 29 28 29 30 29 29 33 33 31 28 26 26 23 21 19 16 16 14 13 12 11 9 8 10 15 20 23 26 26 24 25 28 31 33 37 41 46
37 35 36 33 33 34 31 32 31 32 31 31 32 32 31 31 26 27 27 24 20 20 20 21 18 15 14 12 11 12 15 21 24 24 23 24 26 29 32 35 39 42 44 46
43 38 34 36 33 33 33 34 33 32 33 31 29 29 29 28 24 27 26 23 20 20 22 22 19 16 14 14 16 18 21 23 25 26 26 28 31 35 37 37 38 40 43 45
48 43 40 35 34 35 36 35 31 31 30 29 28 28 28 29 28 25 24 21 20 22 23 23 20 17 17 18 21 23 25 27 29 31 33 35 38 39 41 43 46 49 50 52
52 47 44 39 36 36 38 38 36 35 34 31 31 31 30 30 30 26 21 20 21 22 25 22 20 20 22 24 27 27 30 31 33 37 37 39 43 44 47 49 51 54 56 59
54 51 49 44 43 39 41 40 36 35 33 31 29 30 30 30 30 27 22 22 23 24 24 24 25 26 27 30 31 33 34 36 39 42 42 44 47 50 53 55 58 61 63 66
56 53 52 48 45 42 43 44 40 38 35 34 32 32 31 32 30 29 25 26 27 28 29 30 30 31 32 34 36 38 40 42 44 46 48 49 53 55 57 60 63 67 69 72
56 56 53 50 48 45 44 46 44 41 37 36 34 33 33 35 31 30 29 29 32 33 35 36 36 37 37 39 41 43 45 47 49 51 51 53 56 59 62 64 68 70 73 78
56 53 50 49 49 46 43 45 45 44 42 39 37 37 38 37 33 32 32 32 34 37 39 40 41 41 42 44 46 47 49 51 52 53 54 57 60 63 66 69 71 74 79 82
58 54 52 51 50 48 45 45 47 47 45 42 41 41 41 38 35 34 34 35 35 38 41 43 44 46 47 48 49 50 51 52 53 54 57 61 63 67 70 73 75 80 85 85
58 57 56 55 54 52 51 50 50 49 48 46 45 46 45 41 38 39 36 36 36 38 40 43 45 47 49 49 50 51 52 53 56 58 61 64 67 71 73 75 80 84 86 84
56 60 61 60 60 58 56 56 55 54 53 52 51 51 48 44 43 44 43 40 39 40 42 43 45 47 49 50 51 53 55 57 59 61 65 68 71 74 76 79 83 85 81 78
50 57 62 66 66 65 63 62 62 61 59 58 56 55 54 51 48 46 47 47 46 46 48 49 51 52 52 52 53 55 57 59 62 65 68 70 73 75 78 84 84 85 79 76
47 50 54 59 64 68 69 69 68 67 65 64 63 61 60 57 54 51 50 50 48 50 53 55 55 55 55 56 56 58 60 63 66 67 70 71 75 78 82 84 83 79 76 76
41 45 47 49 53 58 62 65 66 67 67 66 64 63 62 60 57 56 54 53 52 53 54 55 56 57 58 58 59 61 64 65 67 69 70 74 78 81 83 80 76 74 76 76

GFSNGP_250_spd_033.txt.gz
Wind_Speed
37 41 44 46 48 52 60 68 67 65 60 62 58 63 65 63 60 64 61 54 47 48 50 49 51 50 42 44 41 41 48 52 54 46 45 45 49 50 50 51 50 54 64 71
33 37 40 43 46 48 50 54 61 68 66 62 50 51 53 54 53 46 37 38 42 43 47 47 42 37 34 34 34 42 48 55 55 41 31 30 32 34 35 37 40 43 45 51
30 31 34 36 39 41 43 44 44 43 41 37 38 40 43 41 33 30 34 36 40 43 42 38 35 30 26 31 36 40 43 49 55 49 43 25 23 22 21 22 23 27 33 42
28 30 31 32 35 33 33 32 30 31 33 37 38 36 33 24 25 34 28 35 38 36 36 31 27 22 22 24 30 31 34 38 47 47 47 34 31 19 15 9 9 14 19 25
25 28 30 32 33 29 29 29 31 34 35 34 33 27 26 25 27 31 34 30 31 30 30 28 23 20 22 19 22 31 29 29 34 37 38 36 28 23 14 7 1 6 13 16
15 19 24 27 30 30 31 33 34 33 32 31 30 25 24 26 27 28 33 29 28 27 27 27 22 20 23 19 17 22 25 24 25 28 25 27 32 32 22 22 18 8 2 11
18 19 20 22 24 28 29 31 31 29 30 33 31 25 26 27 23 28 32 32 31 27 27 26 24 21 22 17 14 17 22 20 19 23 24 25 25 26 25 25 20 15 19 16
22 23 22 23 23 27 30 30 28 28 30 31 28 24 28 26 26 29 30 30 31 28 25 25 24 22 21 21 16 16 16 20 19 19 20 23 23 23 24 22 20 18 14 14
30 28 27 27 27 28 29 28 28 29 31 33 31 29 29 30 30 30 29 30 31 29 23 25 25 26 25 21 17 15 15 14 15 16 16 19 20 21 21 21 22 24 26 28
31 30 32 32 32 30 30 29 28 29 33 35 34 31 31 34 32 32 32 30 31 30 24 21 23 24 22 20 19 17 15 15 14 15 16 17 18 18 20 21 23 25 27 29
31 31 34 34 31 28 26 26 29 29 30 31 28 29 29 32 36 35 34 31 30 29 24 19 18 17 16 16 16 15 14 14 13 10 14 17 20 22 22 22 22 23 25 27
31 35 36 33 30 29 30 30 30 31 32 31 28 28 29 32 34 34 34 32 30 27 23 19 19 17 16 16 16 15 14 11 12 16 20 23 24 23 22 23 24 27 30 33
35 37 36 34 31 31 30 28 28 26 25 26 27 29 29 30 32 32 31 28 30 28 22 21 20 19 19 18 16 15 13 14 16 20 21 24 25 25 25 27 30 33 34 37
41 40 36 34 33 33 30 29 29 25 26 29 28 26 27 29 30 28 27 25 31 30 24 20 22 21 21 20 19 17 17 18 20 22 25 27 29 31 33 34 37 39 41 43
44 43 38 35 33 33 31 30 31 31 31 30 28 29 28 25 24 26 26 27 30 30 24 22 22 22 22 22 20 20 22 22 24 27 29 31 33 36 38 39 41 44 46 50
47 46 42 38 35 34 35 33 34 35 33 29 27 27 27 25 26 28 28 29 29 29 24 23 24 24 24 25 25 25 25 26 30 32 34 35 39 42 44 46 48 50 52 54
49 49 48 42 38 36 33 34 35 35 35 32 31 27 28 29 30 30 29 30 29 29 27 25 25 26 27 28 28 29 29 31 33 36 38 40 44 47 48 51 53 55 57 60
51 53 53 49 45 42 40 38 35 34 35 36 36 33 29 30 29 29 29 31 30 31 30 29 27 28 29 31 32 33 35 37 38 40 43 46 49 52 54 57 58 60 62 65
57 55 55 54 50 49 47 45 42 40 37 38 39 35 31 31 31 31 32 31 32 33 32 31 31 33 34 35 37 39 40 42 43 45 48 51 53 55 57 59 62 64 67 69
57 60 58 56 55 53 52 50 48 45 43 43 43 41 37 35 35 35 35 33 33 35 35 34 34 37 39 41 43 44 45 47 47 49 53 54 55 57 60 63 66 68 70 72
48 58 59 60 58 56 56 54 52 50 47 44 45 45 43 41 41 41 37 35 35 36 37 36 35 37 41 44 46 48 50 51 52 55 56 57 57 60 63 67 68 70 72 75
46 46 55 60 58 59 58 56 52 51 51 49 47 47 47 46 46 44 40 38 37 37 37 37 37 39 40 43 47 50 52 54 55 56 57 58 59 63 66 68 70 71 74 76
46 48 49 53 61 59 58 57 56 55 53 51 49 48 48 49 48 46 44 42 41 40 39 40 42 43 44 46 48 50 52 53 53 54 57 59 62 65 67 69 70 73 75 76
38 43 48 52 57 63 62 58 56 55 53 53 52 50 49 49 49 49 48 47 47 45 44 44 46 47 48 49 50 51 53 53 56 58 61 63 65 67 68 69 73 73 74 76
35 38 42 47 54 60 64 62 59 58 57 56 56 55 54 52 53 53 54 54 54 52 50 50 50 51 53 55 56 57 57 57 58 61 63 64 65 67 69 72 72 72 73 73
32 35 37 41 46 53 59 62 63 62 61 60 60 60 60 59 59 59 60 60 59 58 57 56 54 54 55 57 58 58 58 59 61 63 64 65 67 69 71 69 70 71 70 70
26 28 32 36 39 44 50 55 59 62 63 64 65 65 65 66 66 66 66 66 65 63 60 58 57 57 57 58 59 60 60 60 61 64 64 66 68 67 66 69 68 67 68 65

GFSNGP_250_spd_036.txt.gz
Wind_Speed
35 40 44 46 47 51 57 56 57 55 55 55 55 52 54 55 56 57 59 62 66 70 71 71 66 62 58 55 56 56 52 48 50 44 44 46 49 45 44 46 48 50 53 57
34 37 39 41 44 49 51 55 57 59 58 57 54 52 53 53 54 59 60 66 66 64 56 55 53 53 49 51 50 46 45 38 39 44 45 50 48 40 32 31 32 34 36 39
29 33 36 39 42 43 43 43 43 46 49 56 55 53 56 57 58 58 61 58 47 44 45 46 48 48 45 45 41 38 37 29 35 42 42 42 45 38 33 28 25 21 19 22
23 27 32 36 38 39 40 40 41 41 41 42 41 45 48 53 57 55 43 31 37 37 38 42 40 39 37 38 38 32 31 31 30 32 32 33 34 33 31 32 26 26 19 14
23 24 27 29 32 36 39 40 42 44 42 41 39 40 41 41 42 31 29 29 31 34 34 34 34 33 34 33 35 30 29 28 28 30 27 28 30 32 31 31 30 30 28 31
21 25 26 27 30 30 33 35 34 33 33 33 35 35 37 36 28 26 28 28 28 32 31 29 30 31 31 31 32 31 32 26 24 25 26 25 25 25 27 28 28 27 28 29
18 21 26 29 31 32 33 34 35 36 35 36 37 36 34 29 27 29 28 29 29 31 32 30 28 30 29 28 28 27 28 27 25 24 22 20 20 22 25 24 23 23 23 23
21 21 20 24 28 32 35 37 38 39 39 37 35 34 32 30 31 29 29 29 28 28 31 32 30 29 28 28 27 27 26 26 25 22 21 19 21 21 20 21 23 24 23 21
24 22 24 23 24 26 32 35 37 37 37 37 36 34 33 33 30 30 30 31 31 29 31 32 31 27 28 27 26 26 26 24 21 20 19 19 19 22 25 27 26 24 24 24
30 28 26 27 27 27 30 32 33 34 35 35 36 37 36 33 32 33 33 33 31 32 31 31 29 26 26 25 23 23 23 23 23 20 18 18 22 25 26 26 25 24 24 24
36 34 32 32 31 32 33 36 35 34 34 34 36 35 35 35 35 33 32 32 29 31 32 30 28 27 25 23 21 19 19 19 19 18 17 19 22 22 22 22 22 24 26 28
41 37 36 34 35 35 37 38 36 36 35 34 34 36 34 33 31 32 33 32 28 30 30 29 26 27 26 25 23 22 21 21 20 19 19 21 22 24 25 26 29 31 32 34
42 39 37 37 37 37 39 39 37 35 34 33 33 33 33 31 31 30 31 28 28 28 29 29 26 26 26 26 25 22 21 21 22 22 23 24 26 28 30 31 33 35 38 40
44 39 35 36 38 40 40 38 35 34 33 34 34 32 32 30 29 28 26 27 27 28 29 30 28 25 25 26 26 25 25 25 25 25 26 27 29 32 35 37 39 41 44 45
45 39 36 36 40 41 41 38 35 34 33 34 33 32 30 27 28 28 27 29 29 27 31 29 28 25 25 25 26 27 27 28 28 29 30 30 33 36 39 41 44 47 50 51
47 43 39 40 42 42 42 40 36 35 35 35 33 30 28 26 27 27 28 29 28 29 31 31 29 27 27 28 28 28 30 31 32 34 34 34 36 40 43 45 48 52 55 57
48 48 44 45 45 43 42 41 39 37 37 35 34 32 28 27 29 29 31 30 30 30 29 29 31 31 29 29 30 31 33 35 36 37 38 39 42 45 48 50 52 56 59 61
51 51 50 47 49 47 44 42 40 38 38 37 36 35 33 33 34 35 35 33 31 29 30 29 31 32 32 32 32 34 37 39 40 42 43 43 45 50 53 55 56 60 62 63
49 52 53 52 51 51 48 46 43 40 38 37 36 35 35 35 36 37 37 35 34 32 31 32 33 34 33 34 35 37 40 42 44 46 47 48 51 54 57 59 60 62 63 65
47 49 54 55 52 52 53 51 48 46 44 42 41 40 39 39 39 39 41 40 38 36 34 35 35 35 34 34 35 36 38 43 46 49 51 53 55 58 59 59 60 62 64 68
45 47 50 55 55 55 56 56 54 52 51 50 48 46 46 46 45 45 46 46 44 41 40 40 39 38 37 36 37 39 41 42 44 46 48 50 53 54 55 58 61 64 67 69
43 45 48 48 55 58 59 58 58 57 57 56 55 53 53 52 51 49 49 48 47 47 46 45 43 42 41 41 41 43 44 46 48 49 50 52 53 54 58 62 64 67 69 70
43 43 46 49 48 53 60 61 62 61 60 59 59 58 57 56 54 54 53 50 49 51 50 50 47 46 46 45 45 45 46 48 50 51 53 55 58 61 63 65 66 68 69 70
37 41 44 48 50 49 50 56 62 63 61 64 65 62 60 58 56 55 54 53 53 53 52 52 51 49 49 49 51 51 52 54 53 53 55 58 61 62 62 64 67 68 70 71
29 32 35 41 46 50 52 53 53 55 61 65 63 61 60 59 58 56 54 54 55 55 54 53 51 52 54 55 55 56 58 58 57 58 57 58 60 60 61 64 66 69 71 71
23 24 28 33 36 40 43 48 52 55 55 57 61 63 62 60 58 57 55 55 56 57 59 59 57 56 58 60 61 63 63 61 60 59 59 61 61 61 63 65 68 67 67 66
25 26 26 26 28 32 35 39 42 45 48 51 55 59 62 63 63 63 63 62 62 62 64 65 65 66 65 65 66 64 63 61 60 60 60 59 61 63 66 67 64 64 64 62

GFSNGP_250_spd_039.txt.gz
Wind_Speed
32 34 37 45 48 49 52 59 63 67 72 76 84 90 91 90 89 88 89 92 90 86 87 85 84 82 80 79 78 77 74 68 68 65 62 58 57 57 60 55 59 63 65 59
26 32 37 39 45 51 54 54 58 62 65 67 70 71 74 77 77 74 71 70 70 70 70 70 70 71 71 74 71 64 60 61 59 57 55 53 53 49 49 52 52 56 52 50
25 27 31 36 41 44 51 53 53 55 57 57 59 65 67 66 63 62 57 56 60 63 63 65 62 66 67 61 56 55 55 53 51 49 49 47 46 46 48 44 41 42 39 40
22 25 28 31 34 38 43 44 49 53 57 58 56 56 55 54 50 52 54 59 62 61 60 55 54 54 53 54 52 49 47 46 44 42 44 41 43 46 43 38 32 30 33 32
19 22 25 28 31 34 36 38 39 42 46 49 51 53 57 58 59 61 58 58 56 51 45 46 46 45 47 44 43 40 40 39 38 37 40 41 43 43 39 31 30 31 34 36
23 22 22 25 29 33 35 37 40 40 39 39 38 35 38 40 41 44 47 47 42 35 40 42 39 40 38 36 36 34 34 32 33 34 35 39 39 35 29 30 31 34 34 32
21 25 28 27 28 29 30 36 38 40 41 41 39 41 43 44 43 42 42 41 35 37 38 39 35 36 33 33 34 32 31 30 29 30 31 34 33 30 27 26 31 32 31 30
22 24 25 30 32 30 33 33 35 36 36 37 36 37 37 36 36 38 39 36 33 35 36 38 33 32 34 32 33 32 30 30 29 30 31 29 26 26 26 27 28 27 27 28
26 26 26 27 28 32 35 36 36 40 39 39 38 38 38 38 39 38 36 36 34 35 37 36 34 33 34 32 32 30 28 28 28 29 29 26 27 26 25 26 26 26 27 28
30 29 29 28 26 27 29 35 39 42 44 44 46 45 41 39 40 36 36 39 36 36 36 33 33 33 33 31 31 29 27 25 25 25 26 26 25 25 25 25 26 27 28 30
35 33 31 30 28 27 28 30 36 41 43 42 43 43 42 42 41 37 40 41 37 37 35 32 32 32 31 30 31 28 28 27 26 25 26 27 28 27 28 28 29 30 32 34
41 38 37 34 32 30 29 30 32 35 37 39 40 40 41 42 40 41 44 41 39 36 33 29 30 30 31 30 31 28 29 29 29 29 29 29 29 29 31 33 33 34 35 37
44 43 42 40 37 35 35 35 35 36 38 39 40 42 43 44 44 44 41 39 37 35 30 29 27 29 29 29 29 28 29 29 30 31 31 31 32 33 34 36 37 38 39 41
47 44 47 45 43 40 39 39 40 40 42 43 44 44 43 41 38 37 38 37 35 31 28 27 28 28 29 29 28 27 28 31 32 33 32 33 35 37 39 40 40 42 44 46
46 46 48 49 46 44 42 43 44 44 43 44 44 42 41 38 36 37 37 33 30 30 29 28 27 29 29 28 28 28 28 31 33 35 35 35 37 40 42 43 44 47 50 52
43 48 47 49 49 46 43 44 44 43 43 43 42 39 38 38 37 36 34 32 30 30 30 29 30 28 28 29 28 29 30 30 33 36 37 39 41 43 45 47 49 51 54 57
42 46 49 48 50 47 43 44 44 45 45 44 42 40 38 38 35 32 32 31 30 30 31 32 32 31 30 30 30 30 30 31 33 37 40 42 44 46 48 50 52 55 58 61
44 47 47 48 48 48 44 45 46 48 47 46 44 41 40 40 39 38 37 34 34 34 34 35 34 33 33 33 34 33 33 33 34 35 38 41 44 46 49 51 54 57 59 59
42 44 45 46 47 49 48 47 51 50 50 49 46 44 43 42 41 40 40 39 38 37 36 37 37 37 38 37 36 37 38 37 36 37 38 39 41 43 46 49 51 53 55 57
40 42 43 44 45 47 50 49 52 53 52 49 47 47 47 45 44 42 41 40 38 37 37 38 40 42 42 43 42 42 42 42 42 40 40 39 40 43 47 49 52 54 57 60
38 40 43 44 44 44 49 51 52 55 56 53 51 49 48 46 45 44 44 43 43 43 43 44 44 44 46 48 47 47 47 47 46 45 44 43 43 45 48 51 54 58 60 63
38 39 41 42 43 46 46 51 54 56 58 59 57 56 54 52 50 50 50 48 47 48 50 51 51 51 50 50 51 52 52 52 51 50 49 50 50 51 52 56 59 60 62 64
39 38 40 41 42 44 47 48 51 56 58 59 60 61 61 59 57 56 55 55 54 55 56 56 56 55 55 53 53 54 55 56 57 55 54 54 54 56 58 62 62 62 64 66
36 37 38 40 41 43 44 46 48 50 55 60 61 61 61 62 63 62 61 60 59 59 59 59 59 59 57 55 54 55 57 58 58 59 59 59 59 60 63 64 63 64 65 67
31 31 34 37 39 41 43 45 48 50 51 53 58 61 63 64 64 64 63 63 62 62 63 64 63 62 59 56 55 58 59 60 61 64 64 64 64 64 65 65 65 65 65 66
27 27 28 29 32 35 38 42 46 50 52 53 53 54 58 61 64 65 65 64 64 63 64 64 64 64 63 61 60 60 62 64 65 67 68 69 68 67 65 64 62 61 63 65
25 26 27 29 30 32 35 37 39 43 47 52 56 57 57 57 57 58 60 63 64 66 66 66 65 65 66 67 68 68 68 68 70 71 69 66 63 61 59 58 59 60 62 64

GFSNGP_250_spd_042.txt.gz
Wind_Speed
27 29 32 34 36 40 42 50 53 61 62 69 71 77 79 83 83 82 79 75 75 75 77 79 81 82 84 88 90 92 95 100 104 106 90 82 79 73 69 67 63 61 60 61
27 29 31 35 39 40 42 43 47 52 57 61 63 71 74 82 75 74 72 75 80 84 85 86 88 89 87 87 89 96 101 95 86 78 75 67 63 62 62 60 54 54 52 51
25 27 30 33 39 44 44 43 43 44 51 56 62 64 63 78 79 77 78 76 76 78 82 82 81 83 85 92 91 84 81 77 75 65 60 59 59 56 56 53 50 49 46 44
20 22 26 30 32 39 44 49 51 50 51 54 56 62 62 63 76 83 81 78 77 79 82 86 88 88 80 77 72 73 71 66 60 58 56 53 52 50 50 49 44 40 39 39
21 22 23 25 29 32 35 39 47 48 51 52 56 60 64 68 70 72 74 75 77 78 74 72 69 68 68 66 63 56 56 55 56 53 48 48 45 43 42 39 34 36 36 38
24 22 23 27 27 29 31 34 40 44 49 50 53 53 56 61 64 62 61 60 59 58 59 60 62 62 57 50 47 49 50 53 50 46 43 42 39 36 34 32 29 31 33 34
23 26 26 26 26 28 30 35 35 37 42 45 48 51 52 56 57 57 56 53 53 55 58 58 51 45 45 45 45 45 47 46 43 41 38 38 37 35 32 28 28 28 30 31
24 25 26 30 28 28 32 33 35 36 37 38 39 39 39 39 42 44 44 43 44 43 44 43 41 40 43 43 41 45 45 40 37 35 34 34 34 33 30 29 30 29 30 30
28 27 27 26 30 34 33 34 33 36 39 41 43 40 39 39 38 39 40 42 44 44 38 37 38 40 38 39 40 43 45 40 36 32 30 28 29 29 27 28 28 30 31 31
30 31 30 29 28 30 35 36 35 34 35 36 37 39 45 48 48 46 43 40 38 36 36 37 38 38 38 37 40 41 40 39 36 31 30 28 26 27 27 29 31 33 34 35
33 33 33 32 32 30 30 33 36 38 39 40 41 39 40 43 43 40 38 38 38 37 37 38 38 37 36 36 38 37 37 36 34 31 30 30 29 29 30 32 34 36 38 39
36 35 37 37 35 34 31 30 31 33 39 42 45 46 46 45 43 43 43 42 43 40 38 40 40 38 35 35 36 34 33 32 31 31 31 31 30 30 32 34 37 40 42 44
37 37 37 41 40 36 35 33 31 29 31 37 42 46 49 49 49 48 46 43 43 42 42 42 41 37 34 34 34 32 31 31 31 31 31 32 33 34 35 37 39 42 45 47
41 41 41 43 44 41 39 37 35 33 32 31 33 38 41 43 44 45 46 43 45 43 43 42 39 37 34 33 32 29 29 30 31 31 32 33 35 38 39 41 42 44 47 50
42 42 42 43 46 47 45 43 41 39 37 36 36 36 36 38 41 43 44 45 46 44 41 39 37 33 33 32 31 29 28 28 29 31 32 34 36 39 42 43 45 46 49 52
43 41 42 43 46 47 49 49 46 44 42 42 41 42 43 43 45 45 45 45 43 41 41 38 35 33 34 31 31 30 30 30 30 31 31 33 35 37 39 42 44 46 49 51
42 42 42 44 46 47 47 50 51 48 46 45 46 46 47 46 44 44 44 44 42 43 40 38 35 35 35 32 32 33 33 33 33 34 34 34 34 35 37 40 42 45 46 47
44 43 44 46 45 45 47 48 50 51 48 47 48 48 47 47 44 44 43 42 41 41 39 37 37 37 37 36 36 36 38 38 37 39 40 40 40 39 40 40 41 42 44 47
43 43 44 45 45 45 45 47 48 50 50 48 47 47 47 47 45 45 44 44 43 42 40 40 40 40 39 40 40 40 42 43 43 44 46 47 46 45 46 46 47 48 50 53
41 43 42 42 44 44 44 44 48 49 51 50 47 47 49 49 49 47 45 44 44 43 43 44 44 44 43 41 40 40 41 43 45 47 51 53 53 52 51 51 53 54 56 59
39 37 35 37 39 42 42 44 46 49 51 52 49 48 52 53 52 51 50 48 45 46 46 46 46 46 45 45 46 46 46 48 50 52 53 54 55 55 55 55 56 58 61 63
35 36 37 36 38 41 42 43 45 45 49 52 52 49 53 57 57 55 53 51 49 49 49 49 49 49 50 50 51 51 51 52 54 55 57 57 57 56 56 57 59 62 65 67
35 36 37 37 38 40 41 42 43 44 46 49 53 54 52 55 59 59 57 55 53 53 53 53 54 55 55 57 56 55 56 56 57 59 61 62 60 60 60 61 64 66 68 71
34 35 36 37 38 39 40 42 43 43 43 46 48 54 56 56 55 58 61 60 59 59 58 59 59 60 61 62 62 60 58 59 61 64 66 66 65 63 64 65 66 69 73 73
29 30 31 33 34 36 38 41 43 43 44 45 47 49 52 57 58 59 59 60 61 62 63 63 63 64 64 66 67 64 64 66 66 68 68 67 66 66 67 68 71 73 73 71
28 28 28 29 29 31 32 35 39 42 43 45 46 47 49 51 54 57 60 61 61 62 64 65 66 67 68 69 70 71 70 70 69 68 68 69 69 69 70 71 71 70 68 66
30 30 29 29 30 31 31 32 33 35 38 42 45 47 49 50 52 53 53 54 57 61 65 67 68 69 70 70 71 71 72 72 71 69 67 66 65 64 64 64 61 57 56 56

GFSNGP_250_spd_045.txt.gz
Wind_Speed
29 31 32 33 36 40 44 48 51 55 57 63 68 70 75 78 81 84 87 88 88 88 88 86 84 81 81 81 79 79 77 76 78 81 85 88 93 97 98 99 95 85 72 70
28 31 34 35 37 39 44 46 51 52 54 60 64 67 72 74 76 78 80 81 82 79 79 79 78 69 67 68 70 72 74 77 81 85 90 96 100 97 96 84 73 66 66 65
24 28 33 36 37 38 41 43 45 48 54 54 60 64 68 69 71 73 73 72 69 69 71 74 65 66 68 72 75 78 80 81 86 92 94 94 95 86 78 64 61 60 59 55
22 25 31 35 36 39 41 40 42 46 46 50 56 58 61 65 71 72 73 74 73 71 70 71 75 78 76 74 72 76 82 86 88 92 94 86 78 66 59 56 58 55 50 44
23 25 28 31 33 38 39 41 43 44 44 47 51 52 54 58 64 70 73 75 77 81 82 75 71 71 71 68 73 79 82 84 89 83 76 71 57 56 54 54 53 47 41 38
21 25 27 26 29 31 35 39 42 43 45 44 45 47 48 53 55 61 59 63 59 59 61 70 77 72 74 72 77 85 79 76 72 71 60 53 51 51 51 49 46 41 37 37
20 24 27 24 27 29 32 34 36 39 42 46 47 47 47 47 49 49 51 58 59 58 60 65 75 78 80 78 73 65 65 69 61 55 52 50 49 49 46 44 41 39 37 37
22 24 24 27 28 29 29 30 32 34 38 42 43 46 48 49 49 49 50 54 58 64 65 65 65 63 58 58 60 59 53 51 49 49 47 47 45 44 40 37 36 35 35 36
26 25 24 25 25 30 30 31 32 34 34 36 41 46 48 49 51 51 53 53 53 54 53 53 54 56 55 51 49 44 44 45 46 45 45 46 41 39 37 34 32 32 34 35
29 28 27 28 27 27 29 32 33 34 37 38 38 38 40 42 46 49 51 51 51 52 52 48 43 42 43 42 40 40 40 43 42 44 44 45 39 36 35 35 33 33 34 36
31 29 30 31 32 32 29 28 31 36 36 38 40 42 43 42 43 45 45 44 43 41 41 42 43 41 40 39 39 40 40 39 39 42 43 40 37 34 34 35 36 36 36 37
33 31 35 34 34 32 33 32 29 30 36 39 39 40 41 43 47 50 50 48 48 46 45 44 40 40 40 39 40 40 40 37 38 39 40 37 35 34 34 36 37 38 39 41
35 37 38 36 38 36 36 35 33 32 30 33 39 42 42 44 44 43 43 45 46 49 49 44 41 41 42 43 42 40 39 37 37 38 35 33 34 34 34 36 39 41 43 44
42 42 39 40 39 38 39 39 38 36 34 31 31 35 41 44 47 47 44 42 43 44 44 45 44 46 47 47 43 41 38 36 37 37 34 33 30 31 31 33 35 37 40 42
41 43 41 40 43 41 42 42 41 41 38 36 34 32 32 35 41 45 46 45 44 46 48 47 48 48 49 45 42 40 39 39 38 37 35 34 34 34 33 33 33 34 36 39
39 39 41 43 43 45 43 44 44 44 43 41 38 36 34 33 32 34 38 40 43 44 46 48 50 48 45 44 43 41 40 39 39 39 38 36 37 38 38 38 39 39 41 43
31 40 40 43 42 43 43 44 44 45 46 47 44 42 40 39 38 38 39 39 39 43 45 45 44 44 44 45 45 43 42 40 40 41 41 41 42 44 45 45 46 46 47 49
33 40 41 43 46 47 45 43 44 46 46 48 49 48 46 44 42 43 43 44 44 44 45 44 44 44 44 45 44 43 41 41 42 43 45 46 46 46 47 48 48 50 51 53
37 40 43 44 45 45 46 44 44 45 45 46 48 50 50 48 46 45 46 47 47 47 45 44 45 45 44 43 43 42 43 43 44 45 46 45 44 45 47 49 49 50 52 55
38 40 41 42 42 44 45 45 46 45 46 45 45 48 49 48 47 47 46 46 47 47 45 45 44 44 45 45 44 46 46 47 47 48 47 48 49 51 53 53 53 55 57 58
34 37 41 41 42 43 44 44 42 43 43 44 45 47 48 48 47 46 46 44 45 47 47 46 45 46 46 46 48 49 49 50 51 50 50 53 55 57 58 58 58 60 62 65
33 35 36 38 39 39 37 37 37 39 42 45 47 48 48 48 48 46 46 44 44 47 49 49 49 49 48 49 51 52 53 54 53 52 54 58 61 63 64 64 64 64 67 69
32 35 37 38 38 38 38 37 39 42 45 46 46 46 47 47 48 48 47 46 46 49 52 53 54 53 54 54 54 55 57 58 57 56 60 64 67 68 69 69 68 70 71 71
30 33 34 35 36 37 39 40 40 42 43 44 44 44 45 46 47 49 50 50 49 49 53 56 57 58 58 58 59 60 61 64 63 63 67 69 69 70 71 73 75 74 74 75
29 31 33 35 37 39 38 39 40 42 43 44 44 45 44 45 46 48 49 52 53 53 53 55 58 61 63 63 64 65 67 69 70 69 70 70 70 72 73 74 74 73 72 70
30 31 31 32 33 34 35 36 37 39 42 43 44 44 45 44 45 46 49 51 52 54 55 57 58 58 60 61 63 65 67 69 70 71 71 72 71 70 69 67 65 62 58 56
30 30 30 30 32 32 33 33 32 33 35 37 39 40 42 44 45 46 47 48 50 52 54 55 57 58 61 63 65 67 68 69 69 68 68 68 68 67 64 61 58 56 54 52

GFSNGP_250_spd_048.txt.gz
Wind_Speed
28 29 32 35 37 38 42 46 47 51 53 59 63 68 74 78 81 83 87 90 92 95 96 95 95 95 96 97 98 98 99 99 97 96 92 93 92 89 85 83 85 86 89 94
30 31 33 34 36 39 41 42 44 47 51 55 60 64 70 74 74 75 77 81 85 87 89 90 90 90 91 90 90 90 89 88 84 82 84 78 76 75 80 84 88 91 93 95
24 31 35 37 37 38 38 41 42 42 50 51 55 60 64 67 69 70 72 75 79 81 81 81 82 81 79 79 78 77 77 76 76 72 69 70 74 80 86 90 90 90 88 76
19 24 30 36 36 39 39 37 38 43 44 48 52 56 58 60 62 66 67 69 72 75 75 75 74 75 74 74 76 71 69 66 71 67 70 75 83 82 84 87 87 78 68 61
18 20 25 25 29 36 40 41 41 41 42 45 49 52 52 53 55 59 62 64 67 69 69 70 72 69 67 67 64 65 66 67 65 71 79 79 80 84 87 83 71 60 57 57
20 19 19 20 25 29 34 40 41 40 40 43 45 47 47 50 53 54 56 57 62 65 67 66 64 62 64 65 67 66 69 70 71 74 74 76 82 84 82 65 54 53 56 54
22 21 18 19 24 25 28 32 35 38 40 43 43 41 42 43 46 48 51 54 56 58 63 64 66 69 70 72 73 72 71 69 70 75 78 78 85 75 61 53 51 52 50 48
25 24 21 21 23 23 24 27 31 34 36 40 42 42 43 42 40 41 42 42 44 46 48 53 61 72 74 73 68 57 59 61 66 68 72 69 68 57 51 50 50 46 44 43
27 27 25 24 23 23 23 26 27 29 34 35 36 40 44 45 44 40 38 37 39 42 44 45 49 54 57 56 56 59 63 64 59 58 59 58 53 51 48 49 45 42 41 40
30 30 28 27 26 26 25 25 27 28 29 33 34 36 41 43 44 48 49 51 52 52 50 50 51 52 52 55 56 54 50 54 56 52 51 49 48 46 44 45 42 40 39 40
33 32 31 32 30 30 28 27 27 26 28 30 32 36 36 38 42 46 47 47 49 52 53 53 52 52 52 53 54 52 47 47 47 48 47 44 44 43 43 42 41 39 38 39
36 31 34 34 35 33 31 30 29 28 28 28 32 34 37 39 38 39 42 43 45 48 51 52 53 52 48 46 44 44 43 48 48 49 46 42 40 41 40 39 36 35 36 37
40 35 35 37 36 36 36 34 33 32 31 30 28 30 35 36 41 44 46 44 44 43 44 45 45 46 46 46 46 45 47 48 50 48 46 42 40 41 40 40 37 35 34 33
42 42 39 41 39 38 37 37 37 36 35 33 31 30 30 34 39 41 44 44 47 51 52 51 51 49 48 51 50 51 49 50 52 50 46 44 42 42 41 41 40 38 38 38
45 45 46 44 40 41 39 37 38 39 38 37 36 34 33 32 33 38 43 45 47 46 44 43 45 49 53 50 46 49 49 47 49 50 49 45 43 43 43 42 43 44 45 44
35 43 40 42 42 43 42 40 39 40 43 41 41 39 37 36 36 35 35 37 44 47 48 46 45 45 46 47 49 49 49 50 50 50 49 48 47 46 46 45 45 46 48 50
34 39 40 39 41 42 42 42 43 42 41 44 44 43 41 40 39 37 37 36 35 36 40 44 45 47 48 49 51 52 51 51 53 52 51 50 49 49 48 48 48 49 49 48
33 37 39 41 43 42 42 44 42 42 42 42 42 42 44 44 44 42 41 40 37 37 37 37 39 42 45 47 48 49 50 50 50 51 51 51 50 50 49 50 50 50 50 53
34 34 29 35 41 44 43 42 44 44 43 43 42 41 42 45 47 48 48 46 44 43 41 42 43 44 45 46 47 49 49 49 50 50 51 52 51 51 51 51 54 55 55 57
34 36 39 42 42 45 45 44 45 46 46 45 45 43 42 43 45 49 51 51 50 49 47 46 45 45 46 47 48 49 49 48 49 50 51 53 53 53 54 56 58 59 60 62
33 35 37 40 44 45 45 47 47 48 47 48 47 43 41 43 46 46 49 51 51 51 51 50 47 45 45 46 48 49 50 49 50 51 52 54 54 54 56 59 61 62 64 66
28 34 37 39 42 45 45 45 46 47 48 47 45 42 42 45 47 47 47 47 49 49 50 51 50 47 44 45 47 49 50 50 51 52 53 54 54 55 59 62 64 65 67 69
28 30 33 37 39 40 42 44 45 44 43 42 41 40 43 47 48 48 47 46 45 48 49 50 50 49 45 45 48 50 52 53 54 56 58 57 56 59 61 64 66 68 70 74
29 29 30 32 35 37 39 40 41 41 41 42 42 44 47 48 47 46 47 46 46 45 48 50 50 50 48 47 48 51 54 56 59 60 62 61 62 64 66 68 70 72 74 74
31 30 32 33 35 37 39 41 42 44 45 47 48 48 48 49 48 47 46 45 45 44 46 47 50 51 51 51 50 52 54 58 60 62 65 67 68 68 69 70 70 71 71 69
35 35 34 34 35 36 38 40 42 43 45 47 47 47 47 48 47 47 46 45 45 45 45 46 48 49 51 52 54 55 55 56 58 60 62 64 66 68 68 68 68 66 65 63
38 37 36 34 32 34 35 36 38 41 42 43 43 43 44 44 45 45 45 45 45 45 45 45 46 47 48 50 52 54 56 57 59 61 62 63 64 65 65 65 64 63 59 55

GFSNGP_250_spd_051.txt.gz
Wind_Speed
26 29 30 33 33 33 36 42 42 49 55 60 65 68 71 76 80 83 85 87 88 90 90 91 91 92 93 93 94 95 96 98 100 100 100 99 100 101 98 99 99 95 94 90
28 29 32 33 34 35 35 35 40 40 46 53 57 62 65 69 72 75 77 78 79 81 83 85 85 86 90 94 94 93 94 95 96 95 95 94 94 92 91 88 87 85 82 79
22 24 28 33 35 35 35 38 39 41 45 45 50 55 61 64 66 67 68 69 71 74 76 78 79 80 83 85 87 88 90 91 90 90 87 86 86 83 82 79 77 76 76 78
24 23 26 34 32 34 35 36 35 40 42 42 46 49 53 57 60 62 64 64 66 68 70 72 73 75 76 78 80 81 83 84 82 81 75 74 74 72 71 68 71 74 78 82
26 25 28 28 28 29 35 40 35 39 35 38 42 45 47 49 50 53 58 58 60 62 64 66 67 68 69 69 71 72 71 69 65 67 68 67 67 63 65 69 72 77 83 86
26 27 28 26 27 28 30 32 35 38 38 39 39 43 39 41 42 46 50 54 57 59 60 61 62 63 64 65 66 65 61 64 67 67 65 61 62 63 67 71 78 84 79 81
26 27 26 25 27 27 26 26 28 33 37 40 39 37 39 40 39 40 43 46 49 52 54 57 58 59 60 59 61 61 62 62 58 57 59 63 62 67 73 68 70 75 74 67
29 29 25 27 26 25 26 26 26 28 32 34 36 38 40 40 38 36 37 39 40 43 46 48 50 53 57 59 60 60 60 57 54 55 59 65 67 72 64 64 69 69 64 56
31 31 29 28 27 26 25 27 27 26 26 29 31 33 37 40 40 39 35 34 34 36 39 42 44 47 51 55 58 59 56 53 58 61 66 63 55 59 63 61 60 65 54 50
33 33 32 31 29 27 27 27 27 27 27 25 26 30 31 33 37 40 38 36 34 33 34 35 36 37 37 38 43 44 47 52 49 49 53 56 58 57 53 57 57 55 50 44
36 35 32 34 32 31 31 29 28 27 26 27 27 26 28 31 31 34 41 43 41 39 38 38 39 40 40 43 46 47 51 53 54 52 53 54 52 52 53 55 52 51 47 42
37 37 33 36 35 35 34 32 31 30 29 27 27 29 28 28 31 31 34 40 45 45 48 52 51 50 50 50 51 52 53 54 55 56 54 53 50 51 53 54 51 48 46 43
36 37 35 40 37 40 38 35 35 34 32 31 29 28 28 30 31 33 36 35 37 40 43 46 47 48 49 51 53 54 54 56 57 55 51 48 47 53 57 55 50 48 47 44
29 37 42 43 41 42 42 38 36 37 36 34 33 32 31 30 31 34 35 38 41 42 41 40 41 44 45 46 47 45 48 52 52 50 51 52 54 57 57 55 53 49 49 47
38 43 49 49 46 47 44 43 42 39 39 38 38 36 35 34 33 33 33 37 40 41 43 45 46 48 47 47 47 47 47 49 53 52 53 54 54 57 54 53 52 50 50 51
41 48 51 45 40 44 46 45 45 43 41 41 39 39 39 38 36 35 35 34 35 38 41 43 44 41 42 45 48 49 50 52 53 56 56 54 51 53 55 55 53 53 53 53
38 43 42 37 38 41 42 44 46 45 43 42 42 41 41 42 40 39 38 37 37 35 36 37 38 41 45 47 47 47 46 46 47 48 50 51 52 54 54 55 55 54 54 55
31 34 37 36 39 43 40 38 45 45 43 43 44 43 42 42 43 43 43 42 41 39 38 39 40 39 38 39 41 43 46 49 50 51 51 52 53 54 54 53 52 53 54 55
28 28 31 36 36 36 37 42 43 44 43 43 43 43 43 44 43 43 43 46 46 45 44 44 42 41 40 39 39 40 41 44 46 48 50 51 51 53 53 53 53 53 54 57
27 27 29 33 37 36 40 43 44 45 45 45 44 45 44 43 43 41 41 42 46 49 50 50 50 48 46 45 45 45 46 47 47 49 52 53 54 54 53 53 53 53 56 59
26 28 28 31 36 38 40 44 45 46 46 47 46 46 44 44 45 44 42 42 44 47 50 53 54 54 53 53 52 50 50 50 50 51 53 54 54 53 53 53 53 55 58 60
27 28 29 31 33 39 43 46 48 47 48 49 49 48 47 45 46 45 43 43 44 47 49 50 51 53 54 55 56 56 55 54 52 51 52 53 53 53 54 53 55 57 60 62
29 29 30 31 32 35 42 46 49 49 50 51 50 51 50 48 48 48 47 47 47 49 49 47 48 49 50 52 54 55 55 55 54 52 51 51 53 55 55 56 58 60 63 64
33 31 32 31 32 34 36 40 45 48 49 49 49 48 48 48 48 48 48 47 49 49 47 45 45 46 48 49 51 53 54 55 55 54 52 51 52 54 56 58 60 63 65 67
36 34 34 34 33 35 37 39 41 45 47 47 48 48 48 48 46 47 49 50 48 47 46 45 44 44 45 47 48 49 52 54 54 54 54 53 53 53 55 57 59 61 63 65
37 38 36 36 36 36 36 38 40 42 43 45 46 47 48 49 50 50 50 50 49 48 47 46 45 44 44 44 44 46 48 49 51 52 53 54 56 57 58 59 61 62 63 63
40 40 40 38 37 37 37 38 39 40 40 43 44 46 47 47 46 47 48 49 49 48 47 47 46 46 46 45 44 44 44 46 48 49 50 52 53 54 56 57 59 60 60 60

GFSNGP_250_spd_054.txt.gz
Wind_Speed
17 20 23 26 29 33 37 42 41 52 51 60 64 68 73 78 82 85 88 89 91 93 95 98 99 98 93 87 86 84 81 81 84 85 85 86 86 87 87 87 89 89 92 92
21 21 20 23 25 25 27 30 35 40 48 52 55 59 65 70 73 76 79 81 82 85 86 86 86 87 86 84 84 85 85 85 83 82 83 86 87 86 88 89 90 94 92 92
19 20 20 23 26 24 26 30 30 33 41 40 46 52 58 62 67 70 72 71 72 74 76 77 78 78 78 78 79 80 81 81 80 80 83 84 84 88 88 94 91 87 84 79
23 20 22 31 29 27 31 33 31 32 33 33 36 39 44 51 55 59 64 66 68 67 68 68 68 68 69 72 73 73 74 75 76 76 76 78 81 82 83 83 78 71 66 69
27 26 30 30 28 28 31 33 30 35 34 33 32 33 43 42 44 47 51 57 60 62 63 63 63 64 66 67 68 69 70 70 71 70 69 70 71 65 63 60 57 63 65 62
28 29 33 32 30 30 32 34 32 34 34 35 35 37 32 30 37 42 44 49 52 54 56 59 60 60 61 62 63 63 65 66 66 63 54 49 56 56 50 54 61 61 59 62
29 31 34 32 34 33 32 35 34 34 33 34 36 36 33 35 34 34 34 38 42 47 49 51 52 53 53 53 54 55 56 56 53 54 55 57 52 53 58 59 60 54 60 62
32 35 33 33 33 32 32 32 33 34 33 33 32 32 33 34 35 34 33 32 34 37 41 43 46 48 49 51 53 53 53 53 52 49 46 47 51 57 59 55 53 55 59 62
34 35 33 30 34 33 32 31 31 31 33 31 30 29 31 31 33 36 35 33 31 31 32 35 39 41 44 46 50 51 52 54 51 47 52 52 53 54 55 53 53 58 59 59
32 32 34 35 34 32 33 34 32 31 30 31 31 29 29 29 28 30 34 36 34 32 30 30 32 36 40 40 42 43 46 48 49 55 57 57 54 47 49 52 55 55 57 63
37 35 34 36 35 35 36 36 34 33 33 31 30 31 31 29 27 27 29 32 36 37 36 35 34 35 36 39 43 45 47 48 51 52 47 47 45 48 53 53 55 57 59 60
37 37 36 37 35 34 38 37 37 37 35 35 33 30 30 32 30 28 28 28 31 38 40 38 37 36 37 38 39 39 41 40 40 41 43 45 49 53 55 58 54 56 59 62
33 34 36 40 41 36 39 39 37 38 38 37 36 36 33 31 31 32 31 30 30 33 37 41 40 40 41 42 40 39 40 40 41 43 45 48 52 55 57 60 59 57 60 60
32 35 39 40 42 45 42 45 43 40 40 39 39 38 37 35 33 31 32 33 33 34 35 35 38 41 45 44 44 46 47 48 51 55 56 55 55 58 60 62 62 61 60 59
31 35 39 45 47 50 47 46 48 46 43 42 42 40 39 38 37 36 34 33 35 37 37 39 40 39 38 39 41 42 44 46 50 52 53 53 52 52 54 56 59 60 60 60
34 35 41 46 50 51 50 46 50 49 48 47 45 43 40 39 39 38 38 37 36 36 37 40 41 40 42 44 46 47 47 48 47 47 48 50 52 54 55 56 60 60 61 60
36 36 40 41 43 49 43 34 44 43 45 49 47 46 44 42 40 40 41 41 40 39 39 38 38 40 42 43 44 45 46 47 48 48 49 49 49 50 52 53 54 55 55 56
34 34 37 38 37 42 41 39 44 43 43 44 45 46 46 46 44 43 43 43 42 41 42 42 41 41 41 40 41 42 42 43 46 48 49 50 51 51 51 51 53 55 56 57
35 33 34 36 35 38 39 38 36 40 43 43 44 45 46 46 46 46 44 44 44 43 45 46 46 45 45 45 45 45 44 43 41 42 43 44 45 46 47 49 52 53 54 56
36 32 31 33 32 34 35 35 37 35 34 42 45 46 46 46 46 45 45 45 45 45 44 45 45 47 49 50 50 50 48 48 46 44 44 44 45 47 49 52 54 55 57 58
38 33 30 32 32 31 32 33 34 34 41 45 47 47 48 48 47 45 45 45 45 44 44 43 44 46 47 50 53 54 55 54 53 53 52 51 51 51 52 53 55 56 58 59
40 37 32 32 32 29 31 33 34 40 48 48 47 48 49 49 49 48 47 45 45 45 45 46 45 46 47 50 52 54 53 55 57 58 59 58 58 59 58 58 57 57 57 57
37 39 35 33 34 31 31 34 35 40 46 49 49 49 49 49 49 49 49 49 47 45 45 46 46 47 47 50 51 51 52 52 52 53 56 58 59 60 60 60 59 58 57 56
37 39 38 36 35 34 33 33 36 39 43 48 50 52 52 51 50 48 47 46 47 47 49 49 47 47 49 49 48 45 45 48 51 52 52 52 54 56 56 57 57 58 58 57
40 37 39 39 37 37 35 35 35 37 40 43 47 51 52 52 51 51 50 49 49 49 49 48 48 49 47 46 44 43 43 45 48 49 50 51 51 52 54 55 56 57 58 59
41 38 39 39 40 38 37 37 36 35 35 39 42 44 47 49 50 50 50 51 51 49 48 48 49 48 48 47 44 44 43 42 44 45 46 47 48 49 50 52 54 55 56 57
39 39 38 39 39 41 40 39 38 37 36 36 37 39 41 43 44 45 47 47 46 47 48 48 46 45 45 45 44 43 42 42 43 44 45 45 46 46 48 49 50 52 53 54

GFSNGP_250_spd_057.txt.gz
Wind_Speed
27 34 37 37 40 41 41 47 40 55 50 65 63 63 62 66 70 75 80 84 86 89 93 97 100 100 99 98 98 97 96 98 93 88 87 83 82 83 84 87 84 84 82 80
19 21 23 27 31 33 35 38 38 45 48 53 53 57 60 61 64 69 73 76 79 82 85 86 90 93 93 93 90 87 87 85 82 81 78 76 74 75 76 75 74 74 76 86
17 20 22 28 26 27 30 33 33 36 47 44 45 48 53 57 58 62 67 70 71 72 75 78 79 80 81 82 82 84 83 82 80 77 74 71 70 72 74 73 76 81 79 81
19 20 25 27 26 27 28 29 28 33 36 36 38 39 45 51 54 55 56 60 64 66 66 68 70 71 71 72 73 74 75 75 74 75 72 72 73 72 72 72 75 78 72 68
23 21 24 26 25 23 24 23 26 30 32 33 33 35 43 38 37 40 46 52 59 62 63 64 64 65 65 65 64 65 66 66 66 66 66 65 67 68 69 68 67 68 64 65
26 27 29 27 29 30 30 28 28 29 30 31 33 37 38 33 33 37 40 43 43 47 52 56 60 62 63 62 63 61 61 61 62 62 62 62 62 62 61 59 60 60 58 60
28 32 31 30 31 32 32 32 32 32 32 32 33 36 34 33 37 38 36 35 36 38 43 46 49 51 54 56 58 59 58 58 59 59 59 58 58 56 55 53 52 51 55 51
30 33 31 29 31 31 33 34 33 33 33 32 31 33 35 34 36 37 39 36 34 34 34 37 40 43 46 48 51 52 53 54 54 53 53 51 48 46 47 47 48 53 50 50
28 30 30 28 30 33 34 34 35 34 35 34 32 31 33 36 36 36 36 36 37 36 33 32 33 36 39 42 43 45 47 48 48 48 47 48 48 48 49 51 53 45 48 55
28 28 31 31 30 32 34 34 35 35 36 36 34 32 30 32 34 34 34 35 36 35 34 31 31 32 34 36 39 41 44 47 47 49 49 48 48 49 47 45 48 54 57 58
30 28 28 31 31 31 32 33 34 35 36 36 35 34 32 30 31 32 32 33 34 34 35 35 34 33 33 33 35 38 40 43 46 48 47 48 51 52 48 49 55 59 60 52
33 30 34 34 33 35 36 35 37 36 37 38 37 36 35 33 32 32 33 31 33 34 35 38 40 39 38 35 34 35 35 35 39 42 45 48 49 49 52 56 58 54 52 51
35 36 37 37 37 37 40 41 40 41 41 42 40 39 38 36 34 33 33 32 32 33 34 36 38 38 38 37 36 36 35 34 34 35 36 38 42 46 45 48 49 49 51 53
35 38 40 40 44 41 42 45 47 49 48 46 45 43 41 40 39 36 34 34 33 34 34 35 36 36 37 40 41 42 41 38 38 38 39 40 41 41 43 46 48 52 55 58
32 36 40 44 42 43 44 47 51 53 53 51 49 49 45 43 42 40 39 38 36 34 34 36 36 34 36 37 39 41 43 41 44 46 48 50 51 53 54 58 60 62 63 64
36 34 38 42 45 45 47 49 50 51 51 53 51 51 50 47 44 44 43 42 40 36 35 36 36 37 39 40 40 41 41 40 40 43 46 50 53 54 56 58 59 60 60 59
40 38 41 44 45 47 50 49 45 43 44 46 48 49 48 51 47 46 46 45 44 41 40 39 38 38 39 40 41 43 44 44 44 46 48 49 50 52 53 55 56 58 60 60
40 40 41 45 44 45 45 44 42 40 42 42 36 47 45 44 50 49 47 46 46 44 45 44 42 42 42 42 43 43 43 43 43 45 47 49 50 52 54 55 56 56 57 57
38 40 41 42 44 45 42 40 40 39 42 39 38 46 45 45 47 48 50 48 47 46 45 46 46 46 46 47 47 46 46 47 47 47 46 46 46 47 48 49 50 51 52 53
36 38 41 40 41 45 43 39 39 38 39 36 35 41 45 46 45 47 48 50 49 49 47 47 47 48 49 50 50 50 51 51 52 52 52 52 51 50 49 48 48 48 49 49
38 36 37 39 39 42 42 41 38 38 38 39 38 38 41 44 46 47 48 47 48 48 49 50 49 48 48 48 48 49 51 52 53 56 57 57 57 57 56 54 54 54 54 54
38 38 36 37 38 40 40 41 40 38 39 41 41 42 43 42 46 48 48 49 49 49 49 48 48 48 47 47 48 48 49 51 53 55 55 55 55 55 56 58 60 60 60 60
42 40 37 38 37 37 40 39 41 40 40 42 45 48 49 46 45 47 49 49 48 50 49 48 48 46 45 46 47 48 50 50 51 53 54 53 52 53 53 53 54 54 56 58
44 42 38 37 38 36 38 39 42 42 42 41 44 49 50 51 51 50 49 50 51 50 49 49 48 47 47 48 48 49 49 48 49 50 50 48 48 49 50 50 50 50 51 52
43 41 36 34 37 36 36 38 40 44 44 42 43 46 50 50 51 52 51 50 50 50 49 47 47 44 46 47 46 47 47 48 48 46 46 47 46 47 47 47 48 48 49 50
39 39 36 33 32 36 35 37 38 42 44 44 43 44 45 47 49 50 51 51 50 50 51 50 48 48 48 48 49 49 48 48 48 48 46 44 43 43 43 43 45 45 46 47
37 37 36 32 30 34 35 37 38 39 44 44 45 43 42 42 43 45 46 48 49 49 49 49 49 48 49 49 48 47 47 46 45 42 41 43 43 42 42 42 43 44 45 45

GFSNGP_250_spd_060.txt.gz
Wind_Speed
31 33 37 40 45 49 51 55 54 64 61 76 75 74 71 70 68 69 71 74 78 82 84 88 92 95 96 96 97 100 98 97 98 97 88 86 85 87 92 94 93 91 89 88
26 30 35 40 44 48 52 54 58 64 62 68 63 65 66 64 65 67 67 68 70 73 77 80 84 87 91 91 90 91 91 92 94 97 100 97 87 85 85 83 83 83 77 80
22 25 29 35 40 44 46 47 45 48 54 49 55 56 59 63 63 62 64 65 66 67 70 73 77 80 82 84 86 86 86 86 86 85 86 85 86 87 86 87 84 81 82 80
21 25 28 30 28 30 33 33 35 41 44 45 45 47 53 52 54 56 57 59 61 64 67 70 72 75 75 75 77 78 80 82 82 81 81 79 77 79 80 81 78 74 77 75
23 24 24 23 21 23 24 26 28 31 33 34 35 37 38 43 49 51 50 53 57 61 64 65 66 66 67 68 69 70 70 70 70 72 73 72 74 75 75 73 71 72 73 72
26 27 26 25 25 25 27 24 28 29 30 30 31 34 35 38 41 42 42 46 50 53 56 58 60 62 64 64 64 64 64 63 62 63 64 65 66 67 66 66 66 67 66 65
29 30 28 30 31 32 31 31 32 31 32 33 33 33 31 31 34 37 40 44 44 47 49 48 50 51 52 55 57 59 60 60 60 60 61 62 62 60 60 61 60 61 60 57
32 34 31 35 37 37 38 38 38 37 36 35 37 36 35 33 32 34 35 37 42 44 43 44 45 46 47 48 50 52 53 55 57 58 58 58 58 58 58 58 57 56 56 56
31 33 35 35 37 38 38 39 42 41 40 39 37 37 36 35 34 34 33 34 36 41 46 46 43 44 44 45 46 46 48 49 50 51 52 53 54 55 55 53 53 52 52 49
34 32 35 36 36 36 40 41 40 41 40 40 39 38 37 35 34 34 33 32 33 35 39 42 43 42 42 41 41 41 42 44 45 46 47 48 49 49 49 49 49 50 50 50
34 33 35 38 38 39 40 41 41 40 40 40 40 40 39 38 36 35 33 32 32 33 34 36 39 41 41 41 40 39 39 40 42 45 46 47 48 48 48 49 49 50 53 55
36 36 38 37 37 39 41 39 40 41 41 42 42 42 41 41 39 38 35 32 32 32 33 34 36 36 40 43 42 39 36 36 37 38 38 41 43 48 48 49 50 52 53 54
39 41 42 42 38 41 45 44 44 45 47 47 44 45 44 44 43 42 40 36 33 32 33 33 35 36 36 41 39 39 38 37 36 35 35 36 38 38 40 47 52 53 57 56
33 41 45 46 46 43 43 47 49 52 52 52 53 49 49 48 47 46 43 41 38 35 33 34 35 36 36 37 37 41 43 42 42 41 40 39 38 39 41 42 43 44 45 47
31 35 41 48 47 48 47 49 53 55 54 56 57 57 55 53 51 49 48 46 44 41 38 36 35 34 37 36 35 37 41 45 46 46 42 41 45 45 46 46 48 49 50 52
34 34 37 41 47 49 50 51 53 55 56 58 59 59 57 55 54 53 51 49 47 45 43 41 39 36 38 37 37 36 36 38 41 43 44 44 48 50 51 52 54 55 57 59
43 41 39 39 42 47 49 50 50 53 56 57 54 51 53 55 55 53 53 52 51 49 48 45 43 41 40 39 38 37 38 39 40 42 42 42 43 46 48 49 51 52 54 56
47 39 42 46 45 43 46 48 48 49 50 47 36 39 48 49 52 51 50 51 54 52 51 49 47 46 44 44 43 41 40 40 41 42 43 44 45 46 48 51 53 55 56 57
52 51 47 45 48 47 44 42 42 45 47 45 38 40 44 40 43 48 47 51 48 51 54 51 51 50 48 47 46 46 45 44 45 46 46 46 47 48 49 50 51 52 53 54
49 52 52 49 47 46 44 43 41 42 41 38 39 39 43 41 43 47 47 49 52 52 51 53 50 50 52 52 52 51 50 50 50 49 50 52 53 54 55 55 56 57 57 56
52 51 53 52 48 44 44 39 41 42 38 36 37 38 41 42 41 43 47 48 51 52 53 53 55 53 53 54 54 53 53 53 52 54 55 55 56 58 59 59 58 58 58 58
58 54 50 52 48 43 42 40 37 40 39 36 36 39 41 42 42 43 47 48 51 52 54 54 53 54 55 54 53 52 51 50 51 53 53 54 55 57 57 57 59 57 55 54
60 55 51 50 49 42 40 42 37 38 39 37 36 39 41 42 45 48 48 49 51 54 55 54 53 53 53 54 53 52 50 50 52 53 53 54 54 54 54 56 58 56 55 55
60 54 48 47 46 41 39 42 37 38 38 37 37 39 40 42 45 50 49 50 49 50 52 53 53 52 53 52 52 51 51 51 50 51 52 53 53 52 53 53 52 52 51 52
58 52 46 44 43 39 37 39 35 36 37 37 36 39 39 42 45 48 50 51 52 52 52 52 52 53 52 51 51 52 50 50 50 50 52 51 51 48 49 50 50 51 52 52
55 50 44 42 39 36 36 36 32 33 35 37 36 37 38 40 43 45 48 50 51 51 52 52 51 51 51 52 52 49 47 47 49 50 51 50 49 47 50 52 52 51 51 51
54 51 44 40 34 33 34 33 30 32 35 36 37 38 38 39 42 44 46 47 49 51 52 52 53 52 51 50 50 49 49 49 50 51 49 48 48 47 49 49 48 46 45 45

GFSNGP_250_spd_063.txt.gz
Wind_Speed
32 36 39 43 45 48 51 54 52 63 65 72 72 74 74 77 80 82 83 84 83 84 85 86 87 89 91 95 99 102 103 104 105 105 103 103 101 100 97 96 95 95 94 93
29 37 42 44 48 50 51 54 54 60 59 65 67 72 75 78 77 77 76 77 76 77 79 81 80 80 82 86 90 94 96 99 100 102 101 100 97 97 91 90 88 87 86 84
27 34 38 40 42 49 51 52 56 59 63 62 63 65 68 68 69 70 71 72 72 73 74 75 74 76 78 79 82 86 89 91 92 92 93 94 94 94 92 92 93 98 99 94
23 26 31 35 38 43 47 47 49 52 54 55 54 55 55 55 56 60 62 63 64 66 69 71 72 74 75 75 77 79 81 83 85 86 87 87 89 89 89 88 87 87 86 87
24 25 27 27 30 32 35 38 43 46 49 52 53 53 47 47 49 53 53 52 54 58 61 64 67 69 71 71 72 74 75 76 78 79 80 81 81 81 82 82 82 83 81 80
27 27 27 30 30 31 33 33 38 40 42 45 45 45 45 44 46 49 49 49 50 53 54 57 59 61 62 65 67 70 71 72 72 72 73 75 74 74 74 75 76 77 75 75
27 29 28 34 35 35 34 34 39 40 40 41 42 43 44 40 42 44 46 48 48 48 50 52 54 54 56 57 60 61 63 64 66 66 66 66 66 66 66 66 66 66 66 66
29 29 31 38 39 39 39 40 43 44 44 44 44 43 44 42 41 41 42 41 44 47 48 50 52 52 52 53 53 53 53 54 56 57 57 59 59 59 59 60 60 60 58 59
33 35 35 37 39 40 41 43 45 45 45 46 46 46 45 44 43 42 42 42 42 43 44 44 46 49 52 50 51 51 51 51 51 50 50 50 50 51 53 54 55 56 55 55
35 35 36 38 41 41 42 44 45 46 47 47 49 47 46 47 46 45 43 42 42 42 41 42 42 43 45 49 50 50 49 49 46 45 46 47 47 49 49 49 51 51 51 52
36 34 36 38 40 42 43 44 45 46 47 48 48 50 48 48 47 47 45 43 43 42 40 40 40 40 41 44 46 48 48 47 44 43 44 42 43 45 47 46 46 46 46 46
37 35 37 36 38 42 45 46 46 48 49 49 48 50 49 51 49 49 47 45 44 43 41 41 40 39 40 40 40 44 46 47 45 42 39 38 38 38 40 43 42 45 46 47
51 42 40 41 40 40 44 48 49 51 52 53 49 50 49 50 50 50 49 49 47 46 43 41 41 40 39 38 37 38 41 44 43 41 39 38 38 38 38 38 41 41 43 47
57 58 45 42 43 44 44 45 49 52 53 55 57 55 55 55 54 52 52 51 50 49 47 44 43 43 41 40 38 36 36 37 42 43 43 41 39 37 37 38 40 42 42 44
66 63 48 42 41 43 44 47 49 50 52 57 59 61 60 61 60 57 55 53 52 51 49 48 47 45 43 43 40 37 37 35 37 41 44 45 45 43 42 41 43 44 44 46
81 79 70 44 43 44 44 46 48 52 54 55 56 59 62 63 62 60 60 57 55 53 51 50 50 49 47 46 43 40 39 38 37 37 40 43 47 47 45 45 46 48 50 51
85 80 72 71 51 38 45 49 50 50 50 54 57 58 57 57 59 61 59 59 56 54 55 54 50 50 50 49 47 44 41 40 39 40 39 38 39 41 42 42 44 47 50 52
86 81 76 64 60 56 48 40 42 48 51 51 51 55 57 56 54 48 50 56 59 56 51 54 52 52 51 51 50 48 45 43 41 41 40 41 42 43 44 44 45 46 48 50
93 89 79 65 55 53 52 51 45 39 39 44 50 51 52 52 49 42 45 56 54 50 52 50 53 52 53 53 52 51 49 47 45 45 44 44 44 46 46 46 46 49 50 52
101 94 84 65 55 51 51 51 49 44 38 39 43 49 51 47 44 44 49 51 49 51 51 49 51 51 52 53 53 53 53 51 49 48 48 48 50 50 49 51 53 53 55 56
101 94 79 63 54 52 49 50 49 45 40 40 43 45 47 48 45 45 47 47 45 47 47 49 50 51 52 53 53 53 53 54 54 53 54 54 55 54 54 56 57 58 59 60
96 89 73 62 56 51 48 47 46 44 39 39 42 42 44 45 46 44 46 45 43 46 45 47 49 52 54 53 53 53 54 53 53 54 55 56 57 57 56 56 56 56 57 58
93 77 66 59 55 49 47 45 43 40 37 37 39 40 42 42 42 44 45 44 43 48 47 47 50 53 54 56 55 55 53 53 55 56 55 55 55 55 55 55 55 57 57 57
82 71 62 56 50 46 45 41 40 36 34 34 35 37 40 40 40 43 44 42 43 48 50 49 51 52 53 55 56 57 57 56 55 56 58 56 56 55 55 55 56 55 56 58
77 69 60 52 46 42 41 39 37 34 33 33 33 34 38 38 38 41 42 40 42 47 49 47 49 51 53 54 56 57 57 56 57 57 56 57 57 54 54 54 54 53 54 55
72 65 57 51 45 40 39 37 34 33 33 31 31 32 35 36 37 39 39 39 41 46 46 50 48 50 52 52 54 55 55 55 54 54 54 53 53 52 50 51 51 53 53 53
67 61 57 51 45 39 37 35 34 33 32 30 29 31 33 34 36 37 38 38 40 43 45 45 47 51 49 50 52 52 52 52 52 52 52 51 51 50 51 52 52 52 51 50

GFSNGP_250_spd_066.txt.gz
Wind_Speed
21 26 33 36 40 44 47 54 52 59 61 65 66 67 68 72 74 76 78 80 83 86 88 90 93 94 95 96 97 98 99 101 103 104 104 104 105 103 104 106 105 103 104 103
20 22 26 32 37 42 46 49 52 57 60 63 62 65 71 74 74 75 77 79 81 83 84 84 87 88 90 94 96 97 99 100 101 103 104 105 105 106 106 105 105 104 105 105
21 24 27 28 36 42 47 47 52 57 60 62 63 66 70 71 71 73 75 79 79 79 79 79 81 83 83 85 85 86 87 88 90 92 94 96 97 99 100 102 103 102 101 100
20 22 29 33 34 38 39 41 48 52 55 57 61 66 68 68 68 69 69 69 70 70 71 74 76 77 80 81 81 81 82 82 82 83 85 87 88 90 92 94 95 96 96 95
17 21 24 27 35 41 42 45 48 50 51 53 54 55 51 54 56 57 59 61 60 59 61 64 67 69 73 75 75 76 77 77 78 79 80 82 84 85 86 86 87 88 87 88
28 22 21 27 37 34 36 35 44 45 50 53 54 55 53 54 52 52 53 55 53 54 55 56 56 58 62 63 64 67 68 69 72 74 75 77 78 79 79 79 79 80 80 80
35 28 25 32 38 38 38 38 42 44 44 45 47 48 49 47 47 46 47 48 49 50 52 53 53 55 55 56 58 59 60 63 64 64 65 67 69 71 72 73 73 74 74 74
40 37 33 32 36 40 40 42 45 47 48 47 47 48 48 49 47 45 46 47 49 50 49 50 51 54 54 56 56 56 56 56 56 56 57 56 56 57 58 59 61 62 61 62
43 36 35 34 35 36 41 45 46 48 50 52 53 52 52 53 51 50 49 49 50 51 50 50 49 49 50 53 56 56 57 56 54 53 53 50 48 48 48 48 49 50 51 52
47 45 42 38 33 31 37 40 44 47 50 50 53 54 54 54 56 54 53 52 52 51 50 49 50 49 49 50 53 55 55 54 55 54 53 49 47 47 45 44 44 45 45 46
55 49 46 43 40 33 31 36 41 44 46 49 51 54 55 56 55 54 54 52 52 52 51 50 49 48 47 46 47 48 50 50 51 52 53 49 48 47 41 41 40 40 40 42
60 63 47 43 45 44 37 33 35 41 46 47 50 53 54 56 55 54 54 53 52 51 51 50 50 49 47 46 44 45 44 44 46 47 48 47 47 46 42 39 38 38 39 40
68 69 74 59 59 57 49 38 37 37 41 48 50 52 55 55 54 53 54 54 53 53 52 51 51 49 47 47 46 43 41 41 42 42 42 42 44 44 40 38 37 37 37 40
79 82 87 85 73 67 65 48 37 36 38 42 48 53 55 57 59 57 56 55 55 53 52 51 50 50 49 48 48 46 41 41 41 40 39 39 42 43 42 40 37 37 38 38
97 100 98 92 91 81 73 59 44 37 38 39 44 49 54 57 59 61 61 59 58 57 57 55 53 52 50 50 50 49 45 42 41 40 40 39 40 44 46 45 44 42 39 40
104 97 108 100 99 87 79 69 53 41 38 40 42 45 48 53 58 60 62 61 62 62 60 58 57 54 52 51 51 51 50 46 43 42 41 40 38 40 42 45 45 44 43 43
96 94 103 101 99 88 74 64 57 54 42 38 41 45 47 48 51 56 59 61 62 62 60 60 59 58 55 53 53 51 51 50 46 44 44 42 41 40 39 40 41 41 41 42
98 102 105 103 99 87 71 60 53 49 51 48 43 40 43 49 51 53 54 55 58 59 59 60 59 56 54 54 54 54 51 51 50 48 45 45 43 42 42 43 43 43 42 42
103 114 110 106 93 80 68 59 53 50 48 49 49 45 41 44 50 52 52 52 52 53 55 57 56 55 53 54 54 55 54 51 50 51 49 47 46 44 44 43 43 44 45 45
111 117 107 103 90 74 65 59 53 50 49 46 47 48 44 41 43 50 51 49 49 48 51 51 54 57 58 58 53 55 55 53 51 50 51 50 48 48 46 46 46 47 46 47
120 112 107 97 84 70 60 54 51 48 47 46 45 46 45 43 43 49 51 46 44 45 48 52 58 56 47 49 52 54 55 53 51 51 50 51 50 49 48 48 49 49 50 52
116 110 98 86 73 65 57 52 47 44 43 43 41 39 40 41 42 47 45 43 41 42 47 53 55 50 48 50 50 53 54 53 53 53 52 50 49 49 51 53 53 53 54 54
108 104 89 77 66 59 54 48 44 41 39 38 38 37 37 37 38 41 39 40 39 40 45 49 51 49 48 47 49 52 52 53 52 51 51 51 47 46 48 49 50 51 53 53
101 97 79 68 61 56 51 45 40 38 36 35 34 34 33 33 34 34 36 37 35 38 43 45 46 46 46 46 48 50 50 51 53 53 51 50 49 49 49 49 50 52 53 54
99 86 73 65 59 52 47 44 39 37 35 33 30 29 29 29 29 30 32 32 34 37 40 41 42 44 45 46 46 47 49 49 50 52 52 52 53 53 52 53 54 55 55 55
92 80 70 61 56 51 48 45 41 38 34 32 29 27 26 25 25 27 28 29 33 35 37 38 41 43 43 45 46 46 48 49 51 52 53 54 53 52 53 53 51 52 53 52
85 73 66 61 55 51 48 46 43 39 36 33 30 27 26 24 23 24 25 28 31 33 35 38 41 41 41 43 45 45 46 49 50 50 51 51 53 53 53 52 52 51 50 49

GFSNGP_250_spd_069.txt.gz
Wind_Speed
7 9 19 28 35 39 46 49 51 56 57 60 61 64 66 67 72 74 77 80 81 82 83 86 89 92 94 95 96 96 97 98 99 101 102 102 103 104 105 105 105 105 105 104
12 10 12 16 25 34 40 44 50 52 56 55 59 64 68 71 70 71 74 77 81 82 82 84 87 88 91 93 94 95 97 98 98 99 99 100 101 102 104 104 105 106 106 107
16 15 14 16 19 23 33 39 46 50 54 56 60 66 66 68 71 73 76 79 80 80 78 79 80 82 85 87 89 91 92 95 96 97 99 100 102 103 103 103 104 105 105 106
22 20 20 19 22 24 26 32 39 45 50 52 58 62 65 68 69 71 73 74 74 74 74 76 78 79 81 83 85 86 86 86 87 87 88 89 90 92 94 95 96 97 98 98
30 23 21 26 25 28 32 37 38 41 44 47 50 50 54 57 60 63 64 66 65 65 67 69 68 68 71 74 76 77 79 81 83 85 86 87 87 88 89 89 90 91 91 91
40 35 24 22 25 29 34 39 42 45 47 49 49 51 48 50 51 54 56 56 56 58 57 57 57 59 61 65 67 68 69 70 73 76 80 82 83 83 84 85 85 85 85 84
44 38 39 38 34 28 24 33 42 45 47 49 52 54 54 53 54 54 55 55 55 56 57 56 55 55 56 57 59 58 59 60 61 65 69 72 73 75 75 75 75 75 75 76
43 45 47 31 32 32 31 31 33 39 45 50 52 52 52 53 52 51 51 51 51 50 51 50 50 51 51 51 51 52 54 53 54 55 56 57 59 60 60 60 60 61 61 61
53 49 46 43 32 29 32 31 34 40 43 48 52 55 56 56 56 56 54 53 51 51 52 50 50 50 51 51 51 52 53 53 52 53 54 53 53 53 54 52 51 49 47 45
57 53 53 51 42 46 43 40 33 30 41 46 50 54 57 59 60 59 58 57 56 56 56 56 55 55 55 55 55 56 56 56 55 54 52 52 51 50 50 51 50 48 42 42
56 56 67 58 63 61 58 52 39 32 29 39 48 52 56 59 61 61 61 60 60 60 58 59 59 59 59 58 56 55 55 53 53 53 51 50 50 49 50 48 48 46 41 40
60 63 69 65 69 68 65 61 53 40 31 30 40 51 54 58 61 61 61 61 61 62 61 59 59 58 58 57 56 54 53 51 51 49 46 47 46 45 45 47 46 44 41 39
71 73 75 75 72 76 77 74 64 51 39 34 34 44 53 56 58 60 60 60 60 62 61 60 59 58 57 55 54 53 52 51 50 46 44 44 43 42 43 43 43 42 39 34
84 86 83 91 82 87 86 83 73 61 47 39 36 38 43 53 57 58 59 60 60 60 60 59 59 59 56 54 53 52 51 50 49 47 45 42 42 41 39 39 40 40 40 38
90 95 92 89 87 88 89 86 85 69 54 42 37 37 40 45 51 58 60 60 61 62 61 59 58 58 56 55 53 53 52 51 49 48 46 44 42 40 39 38 38 41 42 43
91 96 95 92 91 92 91 88 87 75 62 51 43 36 38 42 48 51 55 57 58 60 62 62 62 60 59 57 57 54 53 51 50 50 48 46 44 41 41 40 40 41 42 43
93 100 93 92 94 98 91 91 79 68 59 54 49 45 41 38 46 50 51 54 58 60 59 59 61 62 63 62 60 59 56 54 50 50 51 49 47 45 43 42 42 42 41 40
97 99 98 93 101 99 93 87 71 61 56 51 49 50 48 47 43 44 51 54 55 57 58 59 59 59 60 63 63 63 60 57 53 53 52 51 50 48 47 45 44 42 41 41
98 99 99 102 101 93 89 79 67 61 55 51 50 48 49 50 48 46 44 49 54 55 56 57 59 58 58 58 60 61 61 59 58 56 55 54 52 52 49 48 46 44 42 42
103 101 101 103 101 92 85 73 63 59 55 51 49 46 46 47 47 47 45 43 44 50 55 55 54 55 56 57 58 58 57 58 58 56 56 55 55 53 51 50 48 47 46 44
105 106 109 103 101 90 79 66 59 57 55 52 48 46 44 44 42 42 44 43 39 44 50 50 47 49 52 56 56 56 56 57 58 56 55 55 55 55 52 50 50 50 50 48
107 108 104 103 94 86 74 63 57 54 49 47 45 43 42 41 39 39 39 40 39 40 45 46 44 45 49 51 51 53 54 54 54 56 57 57 57 55 54 52 51 52 51 50
108 112 105 100 88 80 70 60 54 52 48 43 40 38 39 39 37 35 34 36 37 37 39 41 41 42 45 47 49 50 49 44 46 54 58 56 54 54 55 55 53 50 49 49
110 112 106 92 85 72 66 58 52 50 47 43 38 35 35 35 33 32 32 32 32 32 33 34 37 39 41 45 45 44 41 40 45 51 52 53 54 53 55 54 53 49 48 48
112 108 97 89 77 69 63 58 53 51 48 44 39 34 30 31 31 29 28 28 29 29 29 30 34 36 38 39 40 39 39 40 43 47 48 49 52 53 55 54 51 49 48 48
108 103 87 81 71 66 62 57 53 49 49 43 38 34 30 29 28 26 25 25 25 25 26 29 31 32 33 34 35 37 38 39 41 43 44 47 49 51 51 52 52 52 51 49
107 96 87 76 67 62 60 57 52 48 45 42 38 34 30 28 26 24 22 22 23 23 25 28 29 28 30 32 34 35 37 38 39 39 41 44 47 49 49 50 49 50 50 49

GFSNGP_250_spd_072.txt.gz
Wind_Speed
6 2 3 7 14 29 38 43 48 52 54 56 60 63 65 68 70 71 72 72 74 76 77 80 82 85 90 95 98 101 103 104 105 105 106 109 112 114 113 113 114 115 114 114
17 9 5 6 9 16 24 35 43 47 51 54 58 62 66 68 69 68 69 71 74 75 76 79 81 83 85 88 91 95 98 100 102 103 103 104 105 106 107 108 108 109 110 110
34 24 16 9 10 16 20 25 30 37 45 52 57 61 63 65 67 69 70 72 73 75 76 79 81 83 84 84 84 86 88 91 95 98 101 102 103 103 104 105 106 107 107 108
41 37 30 22 15 13 16 21 26 30 34 41 49 55 60 64 67 69 71 73 74 77 79 80 81 82 83 82 83 84 85 86 88 90 91 93 95 96 98 100 101 103 104 105
38 39 33 35 29 27 23 21 25 27 31 37 40 44 50 55 60 64 69 71 72 73 74 76 78 78 79 80 81 82 83 85 88 88 87 87 88 88 90 92 94 94 96 96
37 36 33 21 25 26 27 26 28 32 35 38 40 43 47 51 54 56 58 60 64 66 67 69 70 71 71 71 72 74 77 78 79 81 81 80 81 84 87 88 89 90 89 89
49 49 47 45 34 34 30 21 26 28 33 42 46 49 49 51 54 56 57 58 59 61 62 63 64 65 66 69 70 71 70 70 71 72 73 72 73 74 74 75 75 76 75 75
49 50 52 50 49 46 43 42 41 33 31 36 41 51 56 56 57 59 60 60 59 61 63 63 63 64 64 66 65 64 63 63 62 62 63 62 61 61 62 64 64 61 60 59
54 57 60 54 54 53 50 49 50 48 49 36 39 45 51 59 63 63 64 64 63 62 64 62 60 60 61 59 59 58 58 57 57 56 56 55 54 52 52 52 52 54 54 54
59 62 65 65 65 58 54 50 51 47 51 52 44 39 49 55 61 66 67 67 66 65 65 66 62 61 61 59 58 57 56 55 54 53 52 52 52 53 52 50 50 49 49 47
63 68 72 71 74 68 69 67 62 53 53 59 49 42 42 49 57 62 67 68 68 67 67 68 66 65 64 64 62 61 59 58 58 57 57 57 56 54 53 51 50 48 46 45
66 70 74 79 76 75 72 76 74 65 63 55 54 49 41 44 50 57 63 67 69 69 69 69 69 69 68 68 67 66 65 64 62 62 60 59 57 53 51 51 48 46 46 45
73 76 83 80 83 83 82 84 81 75 72 69 58 50 46 45 45 50 56 63 69 71 70 70 70 69 67 66 67 65 65 65 62 62 60 58 56 53 50 51 47 45 43 42
81 83 87 83 86 93 94 92 88 84 77 72 63 53 47 44 45 48 51 56 61 66 70 70 71 71 69 66 65 64 62 62 60 60 58 56 55 52 51 49 45 42 41 39
81 87 89 85 90 97 102 95 94 83 82 75 63 55 49 46 45 45 48 52 54 58 63 68 70 72 71 70 66 63 61 59 58 57 56 56 55 51 49 47 44 42 41 39
84 89 93 95 94 103 104 94 93 88 84 72 61 53 51 48 45 45 45 48 52 55 56 60 65 67 70 71 69 66 62 59 57 56 53 52 53 51 49 47 44 42 41 39
89 93 96 96 99 105 104 98 91 90 83 70 59 51 47 46 47 46 46 46 46 51 54 54 57 61 66 69 70 69 65 62 58 54 52 51 51 50 48 48 46 44 43 41
90 96 98 97 105 104 106 105 97 92 81 67 59 52 48 44 44 47 47 45 44 45 49 52 53 55 59 63 66 68 67 65 62 59 56 53 53 50 49 48 48 47 44 42
92 99 102 101 107 102 103 102 94 84 73 62 55 53 51 47 43 43 45 46 44 43 45 46 49 51 53 55 59 63 66 67 67 64 62 60 56 54 52 50 49 47 46 46
97 101 103 104 107 105 102 97 86 76 64 55 51 51 51 47 46 44 42 46 43 39 41 41 45 47 48 50 53 56 61 64 67 67 66 65 63 60 57 54 51 51 50 48
101 104 105 112 109 105 102 91 80 69 61 52 49 49 49 47 46 44 42 42 39 40 37 37 40 45 46 46 48 50 53 59 61 64 65 67 67 65 61 58 56 54 52 51
103 105 111 112 108 109 99 87 76 65 58 52 50 49 46 44 44 42 39 39 37 36 37 34 35 39 44 47 45 43 45 52 57 58 60 65 67 66 64 62 60 56 55 53
106 108 115 111 110 106 95 82 72 63 57 52 50 49 45 41 41 38 36 35 32 32 34 33 31 32 36 41 43 43 45 48 50 53 54 57 60 62 61 60 57 56 55 53
107 114 115 113 108 99 89 77 67 60 56 52 47 45 44 40 36 35 33 32 30 29 29 29 29 31 35 37 37 40 42 44 45 46 49 52 53 56 58 58 58 58 56 54
111 116 114 112 105 91 79 70 64 59 57 52 47 44 41 38 35 32 32 30 29 28 27 26 27 28 30 32 33 36 38 38 39 41 44 46 47 48 52 55 56 54 54 53
117 115 111 110 96 82 71 66 62 58 57 53 47 44 41 37 35 31 29 28 27 26 24 23 23 25 27 29 31 34 36 37 36 36 35 35 41 46 48 51 52 52 53 53
117 114 109 107 90 77 67 62 59 58 55 53 48 45 41 38 35 31 27 24 23 23 21 19 20 22 23 26 28 30 31 31 32 33 34 35 39 41 43 45 48 51 50 50

GFSNGP_250_spd_075.txt.gz
Wind_Speed
21 13 5 1 7 15 28 36 39 44 46 48 49 50 54 57 61 63 66 70 72 73 73 74 77 82 87 93 99 105 112 115 117 118 120 123 125 125 125 124 124 124 125 125
42 32 23 15 6 5 11 21 31 38 43 47 50 53 56 57 60 64 65 67 69 70 71 75 77 80 83 84 88 93 98 102 106 111 115 118 118 118 119 120 121 121 121 121
49 46 41 36 30 18 12 13 17 25 35 43 48 51 55 57 58 60 61 65 69 71 73 75 77 78 80 83 86 87 90 92 93 96 100 103 107 111 114 116 116 115 115 115
43 43 42 41 37 35 31 24 17 18 26 33 39 45 52 57 59 62 66 68 69 71 73 74 76 77 80 82 83 83 85 87 88 88 89 90 92 95 99 101 103 104 105 107
47 46 42 43 38 36 36 35 33 27 23 24 33 41 46 50 56 61 65 68 70 73 75 76 77 79 81 83 82 82 84 84 84 84 83 84 87 89 90 89 91 92 93 95
51 52 56 50 45 40 41 40 38 33 29 28 28 32 40 50 54 57 61 65 68 72 75 77 79 80 80 80 81 81 81 82 82 83 84 87 88 87 88 88 89 90 91 92
52 54 60 55 52 48 47 49 44 44 37 31 30 30 36 40 47 56 62 64 67 70 73 75 76 76 76 77 77 79 79 80 80 80 82 85 85 84 86 86 86 87 84 83
55 56 61 58 60 59 54 54 57 51 48 45 38 36 34 35 45 50 57 62 69 71 73 74 74 74 75 76 74 75 76 76 77 78 79 79 79 80 79 79 79 78 75 74
56 61 62 63 65 61 66 68 70 66 62 58 42 47 48 40 37 44 54 60 65 70 76 79 78 76 77 77 76 76 77 77 76 75 76 74 73 71 71 70 69 68 65 64
59 63 64 67 70 71 72 70 74 72 74 71 64 62 55 52 48 46 46 53 60 66 74 80 79 80 80 80 78 77 75 74 71 69 69 67 65 63 62 62 61 60 59 56
60 62 66 69 72 76 80 79 80 83 79 78 73 68 63 56 53 52 51 52 55 59 66 71 78 82 82 81 80 77 76 74 70 67 65 64 62 60 58 58 56 56 54 52
60 64 69 73 76 81 82 87 87 91 91 88 80 76 70 64 57 55 53 52 54 56 59 64 68 74 81 83 83 81 78 76 73 69 67 65 62 60 60 58 55 55 53 52
63 68 71 75 79 84 84 89 91 95 96 88 87 83 74 67 62 56 53 51 52 53 56 57 61 67 71 77 81 82 80 79 76 74 71 68 65 64 63 60 58 57 54 53
66 71 75 79 81 87 88 94 98 100 96 91 91 83 75 67 61 55 53 51 49 52 53 53 55 59 62 68 74 77 78 77 76 75 73 71 68 66 64 61 58 56 53 53
71 75 79 81 86 91 95 100 102 101 97 99 92 79 71 64 57 53 50 49 47 47 50 50 51 53 55 60 66 71 74 75 74 73 71 69 66 63 62 60 57 54 52 52
74 79 83 86 91 95 100 108 101 104 101 100 88 78 70 60 53 51 49 45 45 45 45 46 47 49 50 53 58 64 69 70 71 71 69 67 63 61 58 56 54 52 51 51
78 84 87 91 96 101 104 112 107 107 105 95 86 77 67 57 51 46 45 43 41 43 44 43 43 46 47 48 51 56 61 66 66 67 67 65 63 61 57 55 53 51 49 49
82 87 89 97 100 103 114 116 114 108 103 92 83 73 65 56 50 46 43 42 40 41 45 41 41 44 44 45 46 49 54 59 62 63 65 65 63 60 56 54 53 50 49 47
85 90 94 99 103 107 116 115 111 111 96 86 77 69 62 54 49 47 45 43 38 40 41 41 41 41 42 42 44 46 49 53 57 59 62 63 62 60 57 55 55 51 48 46
87 93 98 104 106 114 116 113 111 104 89 79 72 64 58 53 48 46 45 44 38 39 40 36 37 38 40 40 41 45 46 48 52 54 57 61 61 62 61 58 56 53 50 47
90 96 101 105 109 118 115 114 109 94 83 74 67 61 57 52 46 44 45 45 39 37 38 35 33 34 36 38 39 41 43 46 47 51 53 57 58 60 61 62 59 57 54 52
94 98 105 106 113 118 116 114 103 87 79 71 63 56 55 48 44 46 41 43 41 35 34 34 31 30 32 34 35 37 39 42 43 44 49 53 56 58 60 62 62 61 59 56
98 102 110 111 117 118 115 112 97 82 75 68 60 54 53 46 43 46 44 37 37 36 32 30 30 29 29 31 33 34 37 38 40 43 46 48 51 55 57 59 60 61 61 60
100 106 113 117 118 117 115 107 92 79 70 64 59 52 51 49 45 42 41 39 36 34 31 29 29 28 27 29 31 33 34 34 35 38 40 45 48 50 52 55 57 58 59 60
103 111 115 116 116 115 112 101 88 77 70 64 57 52 49 46 47 44 40 36 33 32 29 27 26 24 23 24 27 29 30 30 33 35 38 40 43 44 45 49 51 52 54 58
106 114 113 116 113 113 107 94 84 74 67 64 57 51 49 46 45 43 39 34 31 29 26 25 23 21 21 22 24 25 26 27 30 32 33 33 35 37 38 41 43 45 48 51
113 113 112 113 114 114 99 86 77 68 63 59 56 51 48 45 43 40 36 33 29 26 24 22 20 19 19 19 19 21 24 25 26 27 27 29 27 29 33 36 38 40 43 45

GFSNGP_250_spd_078.txt.gz
Wind_Speed
42 39 31 24 17 13 13 14 16 20 19 24 31 36 41 46 53 57 61 65 69 72 76 81 85 93 101 112 117 123 130 134 137 142 145 143 141 138 136 136 137 137 137 140
47 45 42 37 36 30 21 14 14 18 21 24 25 31 38 44 48 53 56 61 65 68 71 74 77 79 84 88 93 101 110 118 125 131 135 141 144 147 149 149 147 145 146 146
52 49 45 42 38 35 29 26 23 18 18 23 27 30 35 39 44 49 55 60 64 66 69 72 75 77 81 85 89 92 94 100 106 112 120 126 130 133 135 136 138 137 137 137
49 47 46 42 38 35 34 35 27 25 21 18 18 24 33 42 46 51 55 59 62 66 70 74 77 78 82 85 87 89 89 91 95 99 102 106 110 113 116 118 119 120 121 122
47 46 47 48 44 44 43 40 33 38 28 29 28 24 27 31 36 46 55 60 65 68 72 74 76 79 83 85 86 89 89 90 93 94 95 96 97 99 101 102 103 103 104 105
45 48 50 45 47 49 47 45 46 44 41 44 38 37 29 31 37 43 45 51 60 67 72 76 78 80 82 84 85 85 87 89 89 90 91 92 94 94 94 93 94 94 95 97
49 50 52 54 52 54 56 54 60 57 57 58 52 44 38 38 36 38 42 49 54 59 68 74 79 80 83 86 87 88 88 88 88 87 87 88 88 88 89 88 89 90 91 93
50 52 55 54 56 57 61 60 64 65 71 68 68 65 62 55 50 45 43 43 49 56 63 67 73 78 84 86 86 87 88 89 88 88 87 87 87 87 87 87 87 88 88 88
50 52 54 57 58 60 63 63 68 69 75 78 81 76 77 71 66 61 52 45 47 54 59 64 68 71 79 84 88 89 89 89 89 88 88 87 85 85 84 83 83 83 81 80
51 54 56 60 63 65 67 70 71 75 77 86 86 85 81 79 81 74 64 55 51 51 55 61 64 68 73 79 84 86 90 92 91 90 89 87 85 83 81 81 80 78 75 74
51 54 57 62 66 68 70 72 77 79 87 91 91 88 87 87 89 78 70 65 58 55 56 58 61 65 67 72 78 82 87 89 91 93 92 89 86 84 81 80 77 73 70 66
53 57 60 64 69 73 75 80 81 84 88 90 97 93 95 94 90 78 70 64 61 59 58 56 57 60 62 65 71 76 79 83 86 88 90 89 87 84 81 77 71 67 63 61
54 59 62 66 71 75 78 82 86 88 96 96 101 96 98 97 87 74 63 58 56 56 55 52 52 55 56 58 62 69 74 76 79 81 84 86 85 81 78 74 69 65 63 59
57 61 66 69 73 78 81 84 90 92 100 100 103 102 99 93 79 68 58 52 49 49 50 49 47 49 49 51 54 58 62 68 71 74 77 81 82 81 77 74 71 66 64 62
60 64 69 72 77 82 85 90 94 102 103 107 108 105 100 85 72 63 55 50 47 46 45 44 43 44 44 47 49 51 53 57 62 66 70 73 77 79 78 75 72 69 67 65
63 68 73 77 81 87 90 94 99 107 109 112 111 109 99 81 69 61 54 48 45 44 42 41 42 42 42 44 46 48 49 50 53 56 61 64 69 73 75 74 72 69 66 64
66 71 76 81 87 93 96 99 107 111 113 114 110 109 93 77 67 59 52 47 44 44 44 42 42 43 43 42 44 46 46 48 49 50 52 55 59 64 69 69 67 64 62 60
70 75 80 84 90 96 100 107 111 115 117 115 113 104 85 73 63 57 52 48 43 43 42 41 41 45 44 42 41 44 45 46 46 48 48 49 51 54 60 63 61 58 57 56
73 78 84 88 93 98 102 110 112 117 119 116 113 93 78 68 60 54 52 49 43 45 42 39 41 43 45 41 39 41 43 44 44 45 46 46 46 49 54 58 58 57 55 53
76 81 86 91 97 101 108 112 115 118 117 115 102 85 75 66 58 53 49 48 42 43 42 40 39 38 40 41 38 38 41 41 43 43 44 45 45 45 49 54 56 55 53 52
78 84 89 94 100 108 111 116 116 120 117 111 94 79 71 65 58 51 47 47 45 41 40 38 37 36 35 36 37 35 39 38 39 40 41 44 44 44 46 50 54 55 54 53
80 86 92 97 103 110 116 119 120 119 114 103 87 74 67 64 57 52 46 44 46 43 41 37 34 34 33 32 33 33 35 36 36 37 38 40 44 43 44 48 51 53 55 53
84 89 95 101 105 111 121 121 119 118 113 98 82 71 67 63 57 49 51 45 41 40 39 36 33 32 30 29 28 29 31 34 34 34 36 38 41 43 44 46 47 50 54 55
87 93 98 104 107 117 117 119 120 118 109 92 77 68 62 60 58 47 46 45 42 39 36 32 30 28 26 26 26 27 28 30 30 31 33 35 38 41 42 44 45 49 52 54
91 95 101 105 112 120 117 119 117 112 99 86 74 67 61 56 53 49 43 42 40 37 34 30 27 24 22 22 23 24 24 24 26 28 29 33 36 39 40 41 43 46 49 52
93 99 104 109 116 114 116 117 115 107 90 80 72 65 60 54 50 46 43 41 38 35 32 29 25 22 20 18 18 19 19 20 22 24 27 29 33 35 38 39 40 42 45 48
98 103 106 112 118 113 119 114 111 99 84 74 69 62 57 52 48 43 41 39 36 33 30 26 23 20 16 14 13 14 16 17 19 21 24 25 28 31 34 35 37 39 41 43

GFSNGP_250_spd_081.txt.gz
Wind_Speed
49 50 49 46 43 40 41 34 26 20 12 3 5 11 17 22 28 36 46 60 73 88 117 136 133 136 134 131 128 130 131 128 129 128 135 134 129 135 131 130 134 135 139 138
54 56 53 52 50 50 49 43 36 31 27 18 10 9 14 20 27 33 40 47 53 62 72 88 120 139 133 139 139 137 140 137 136 137 141 139 138 142 141 144 147 143 148 149
50 48 48 48 47 43 38 34 35 37 30 25 21 19 17 15 19 25 33 41 48 55 62 70 79 90 102 135 140 139 144 146 142 144 146 148 151 151 150 150 153 156 157 157
45 44 45 40 39 37 41 37 32 34 31 31 32 27 25 23 25 26 28 32 38 49 59 66 72 79 87 97 114 131 140 152 150 153 151 150 152 155 158 158 155 155 156 157
44 44 40 42 43 40 41 40 36 35 38 39 32 32 36 35 27 23 28 33 38 45 49 54 64 74 82 88 93 100 105 115 130 143 150 156 159 159 160 160 159 159 160 161
44 45 45 43 43 43 42 44 42 44 44 50 52 54 51 50 42 35 37 38 40 44 50 56 60 65 71 81 86 93 98 102 106 111 116 120 125 129 132 135 136 137 139 137
43 42 44 45 46 47 47 47 50 52 53 53 59 61 58 58 55 55 60 55 55 54 51 54 61 67 71 74 78 84 91 96 103 105 107 108 110 111 113 113 114 114 115 115
42 42 44 46 48 49 49 52 53 58 60 60 65 66 70 70 68 70 70 65 66 64 55 52 54 66 72 75 77 80 84 88 94 97 101 104 104 105 105 106 106 105 105 105
41 42 44 46 48 51 54 56 57 60 62 66 69 74 74 75 74 76 75 74 74 70 65 57 56 60 70 76 78 79 81 84 88 92 95 97 98 102 103 102 102 100 99 98
40 43 45 48 50 52 56 59 61 63 64 70 75 78 82 83 81 85 83 84 81 76 67 59 55 58 63 71 77 79 80 81 83 87 89 93 94 96 97 98 99 98 98 96
42 44 46 48 53 56 58 62 65 67 72 75 78 84 90 89 91 91 88 89 81 70 63 60 57 56 56 62 71 78 80 81 81 82 85 88 90 94 94 95 95 94 92 90
43 45 48 51 54 58 61 65 70 73 76 79 86 92 96 96 96 92 92 86 73 63 58 57 56 57 56 56 61 69 75 78 78 78 80 84 86 88 91 94 93 93 90 87
45 47 50 53 57 61 65 70 76 78 83 88 92 98 101 99 99 94 90 77 67 59 55 52 53 54 52 52 52 56 61 67 69 71 73 77 80 83 86 86 89 90 89 89
47 50 54 57 60 64 69 74 79 84 86 93 96 103 104 105 100 96 84 71 63 56 51 48 48 48 47 48 47 48 51 56 61 63 63 66 71 74 76 79 81 83 86 86
49 53 56 60 64 68 74 79 83 89 90 101 102 106 108 106 102 93 76 65 59 52 49 47 46 45 44 43 44 45 46 49 52 55 57 58 61 64 67 68 72 75 79 80
51 55 59 63 67 72 77 82 87 89 98 104 107 110 111 105 99 88 72 61 56 52 48 46 47 45 44 43 43 44 43 45 47 49 52 52 53 57 59 61 62 65 68 71
55 58 63 67 73 77 83 85 93 94 104 109 111 110 110 105 97 80 68 59 53 51 49 48 48 45 42 42 41 41 42 44 44 44 47 48 49 51 53 55 56 58 62 65
57 60 65 71 76 80 85 90 99 101 105 111 112 116 110 103 89 75 66 59 51 51 48 46 45 46 44 42 42 42 42 43 44 44 45 46 46 47 49 52 52 52 56 58
59 65 69 73 77 83 87 93 99 106 109 111 114 113 110 99 81 70 63 58 51 50 53 48 45 43 44 44 44 44 42 41 44 44 44 45 44 44 45 48 49 48 50 54
63 67 70 75 80 86 92 99 102 108 114 112 114 112 111 94 76 67 60 57 51 49 51 48 45 44 43 43 44 44 43 39 41 42 42 43 42 41 42 44 46 46 47 50
65 71 73 77 83 91 95 99 104 111 117 119 112 112 104 86 74 65 58 56 52 47 46 44 44 44 43 41 42 42 38 38 38 39 39 40 40 40 40 42 43 44 46 48
68 73 75 81 87 93 98 106 109 115 120 120 109 110 96 81 71 66 59 53 52 48 45 43 40 39 39 38 38 37 34 34 34 36 35 36 38 39 39 40 42 44 45 47
70 74 79 85 89 99 102 112 110 114 118 115 113 104 86 76 68 62 60 54 50 47 44 42 39 37 36 34 32 31 30 30 31 31 30 33 35 36 36 38 40 42 43 46
73 79 83 89 94 99 104 114 113 119 119 113 108 96 79 71 68 60 56 54 51 46 42 39 37 35 32 29 27 25 23 25 27 26 26 29 31 33 34 36 37 40 42 44
77 80 85 92 97 102 107 116 113 117 118 114 103 87 75 68 64 60 55 51 48 45 41 38 35 31 27 24 22 20 20 21 23 22 24 27 28 30 33 34 35 37 40 42
81 84 90 95 99 104 109 113 115 116 114 112 94 82 73 68 62 57 53 49 46 42 40 37 33 29 24 21 19 17 17 18 17 18 21 23 25 27 30 32 33 34 37 40
83 87 93 98 104 107 116 115 114 114 113 104 89 77 70 65 60 56 52 47 43 40 38 35 30 26 23 19 17 15 14 14 14 16 18 20 23 24 26 28 30 32 34 37

GFSNGP_250_spd_084.txt.gz
Wind_Speed
49 43 43 48 52 48 43 38 33 27 24 15 11 11 17 30 43 66 90 117 126 128 128 139 131 126 123 124 125 128 129 127 130 125 131 134 130 124 120 121 118 120 122 123
55 53 54 50 47 46 45 40 38 36 34 29 20 13 9 12 20 35 66 87 112 126 131 129 136 137 135 135 135 130 132 135 136 137 136 136 135 138 138 141 139 137 139 141
53 52 53 48 43 40 37 37 35 35 30 28 26 23 17 12 2 11 25 44 62 91 125 131 134 139 142 144 142 141 136 135 138 139 141 142 139 138 143 144 145 147 147 146
47 46 45 42 41 39 36 33 28 33 36 28 30 25 27 17 12 4 8 17 24 35 53 78 102 127 141 143 143 148 148 149 150 146 142 143 144 147 148 148 149 146 147 148
42 40 39 38 37 37 37 37 36 39 42 41 37 35 30 35 30 28 18 14 17 21 30 43 52 62 78 96 118 141 156 151 152 159 153 149 150 151 152 152 155 156 152 154
36 37 35 34 35 35 32 33 36 37 42 42 43 47 44 48 47 47 43 36 33 29 35 38 41 48 58 68 79 92 108 124 151 167 166 158 159 167 165 160 158 161 164 161
35 34 34 34 34 34 37 37 39 39 45 45 44 48 53 52 57 60 56 53 48 43 44 45 50 57 61 65 73 82 90 99 111 123 131 143 159 173 172 168 169 169 168 171
32 31 32 32 32 34 35 37 40 44 46 50 51 51 57 59 61 62 63 63 60 58 57 56 62 65 65 70 78 82 89 94 101 105 109 119 126 133 137 144 156 167 176 177
29 29 31 33 34 34 37 41 44 47 49 53 53 58 64 69 73 72 69 73 72 67 65 68 67 66 68 68 71 79 87 93 96 97 101 108 110 114 120 128 132 134 136 138
27 29 31 33 35 38 41 43 47 51 53 57 61 62 67 74 74 80 79 81 78 77 79 76 67 64 65 66 68 71 76 84 92 96 96 97 100 108 111 114 116 123 127 127
28 29 32 36 38 41 43 47 49 53 57 61 64 68 72 78 84 83 84 86 83 88 85 76 67 62 57 60 62 66 69 73 78 86 91 92 92 95 99 104 106 107 110 116
31 31 34 38 40 42 46 50 52 55 61 66 72 75 79 86 90 88 94 89 87 89 77 68 63 59 54 53 56 59 62 66 69 72 77 82 85 86 88 89 93 95 98 101
36 35 37 40 43 45 49 53 56 61 65 70 76 82 83 91 96 97 97 90 94 82 70 62 57 53 49 51 51 53 56 59 62 65 67 70 74 78 79 79 81 84 87 91
38 37 39 42 47 50 54 59 62 68 71 78 83 88 89 97 101 104 96 93 89 73 63 58 54 51 48 48 49 49 51 54 55 58 60 64 66 67 69 71 72 76 79 84
38 39 42 46 51 55 60 63 66 72 76 84 85 93 96 102 106 106 94 93 81 66 58 55 53 50 48 46 46 47 49 50 52 53 54 56 58 61 63 63 64 65 70 75
41 43 46 51 56 60 64 67 70 77 83 89 93 100 104 107 108 103 94 86 72 62 53 52 53 51 48 47 47 47 46 45 45 47 50 51 52 54 54 58 59 57 60 65
46 50 52 56 61 65 69 71 77 85 89 93 97 107 112 113 109 102 97 81 67 59 52 50 54 50 49 46 47 46 44 44 42 43 45 46 49 50 49 50 52 54 55 57
50 54 57 60 65 69 74 77 82 89 93 99 106 110 115 114 108 100 94 79 66 59 53 50 49 50 50 47 45 46 43 42 41 41 42 43 44 46 46 46 47 48 53 54
52 55 59 64 68 72 77 80 86 94 98 100 110 113 116 111 102 99 87 75 65 61 58 52 49 48 48 46 43 44 43 42 40 39 39 42 42 42 44 44 44 45 47 50
54 59 63 68 71 74 80 86 89 95 103 104 109 115 115 111 104 95 80 72 63 59 56 53 50 47 46 43 42 41 41 40 39 38 36 39 42 40 42 43 42 43 44 45
57 62 66 72 76 79 84 89 92 98 102 111 111 117 113 105 101 90 75 69 64 58 54 51 48 46 44 42 41 40 39 38 36 35 34 35 39 37 39 40 40 40 42 43
60 65 69 75 78 84 88 93 98 105 110 114 115 117 109 104 98 85 72 65 62 57 54 50 46 44 42 41 40 39 37 35 34 32 31 32 34 35 36 36 37 38 39 40
64 68 71 79 82 88 92 95 102 107 112 114 118 114 106 102 89 80 73 65 59 56 53 49 45 42 40 39 37 35 33 31 30 29 28 27 28 28 30 32 33 36 37 39
68 72 75 81 84 88 93 98 105 110 114 118 120 107 103 100 86 75 69 65 60 56 50 47 44 42 40 36 33 30 27 26 26 25 22 20 22 24 28 29 30 33 35 36
70 73 78 84 87 90 96 104 107 111 115 118 118 109 103 92 82 74 68 64 59 55 49 46 42 39 37 34 30 26 22 21 21 20 18 18 20 22 23 26 29 31 32 33
73 74 79 85 89 93 99 103 109 112 114 117 108 104 99 89 78 72 67 63 58 54 48 44 40 38 34 29 24 20 18 17 15 15 16 18 19 19 21 23 26 28 28 30
76 79 82 87 91 96 101 106 108 111 114 115 105 103 96 84 76 71 67 62 57 52 47 43 39 35 30 25 21 18 15 14 12 12 13 14 15 17 18 21 24 25 26 28

GFSNGP_250_spd_087.txt.gz
Wind_Speed
49 52 51 51 48 45 42 34 30 23 19 16 10 18 34 48 94 83 103 113 106 99 103 109 109 113 108 109 110 110 115 114 116 120 121 118 110 107 109 111 112 110 112 108
56 55 52 53 49 45 41 37 33 32 31 23 18 11 15 29 47 85 87 104 117 115 111 111 116 115 109 109 114 118 117 120 119 120 124 129 126 119 117 116 116 120 121 117
51 50 47 45 42 42 42 38 37 38 37 34 28 22 15 6 16 41 87 98 106 109 112 113 106 114 120 121 118 122 124 128 129 131 131 131 130 128 129 127 122 122 124 129
45 44 41 38 37 34 34 37 34 32 31 29 26 27 19 18 14 3 20 57 98 103 100 111 113 122 129 127 126 129 130 129 131 133 135 138 140 141 140 141 136 132 127 126
38 36 34 34 33 31 31 32 32 30 24 28 23 17 23 19 11 7 2 10 25 50 94 108 112 119 122 129 138 131 136 139 139 143 145 145 141 144 148 147 146 148 147 146
30 30 27 27 26 26 26 28 27 26 27 30 29 29 26 29 21 32 25 11 23 21 21 39 57 76 112 140 139 153 137 143 151 155 157 150 148 148 149 151 157 158 156 156
25 24 23 23 23 22 22 23 24 25 26 29 28 33 37 37 38 41 42 38 36 30 36 42 47 60 70 82 108 125 133 135 156 165 166 170 172 165 164 165 163 160 160 161
21 21 20 22 23 23 25 26 28 28 29 34 36 38 43 44 50 48 52 55 59 52 51 49 52 55 58 66 76 90 102 118 130 138 150 163 164 163 168 170 171 177 183 181
20 20 21 22 24 25 27 30 33 33 35 37 44 44 49 50 52 59 65 66 72 68 64 63 59 59 67 76 89 101 106 116 118 127 128 127 132 140 146 149 148 145 144 161
24 22 21 23 25 27 30 34 37 39 40 42 47 53 58 58 64 68 73 76 81 79 75 74 70 72 78 80 80 82 89 95 103 113 122 129 129 132 134 136 132 130 136 140
29 27 26 27 30 32 35 38 41 45 48 48 51 60 65 66 72 76 82 85 91 88 84 81 84 84 83 76 68 66 68 72 76 82 88 94 101 108 113 119 125 128 130 128
34 31 30 32 34 36 39 42 46 49 53 55 59 63 70 71 79 84 89 94 97 92 89 88 87 83 76 67 62 59 58 61 63 67 71 74 79 83 88 94 99 103 109 112
34 37 36 34 37 40 43 46 50 54 57 60 63 69 74 79 88 94 99 101 101 96 91 88 82 75 66 63 58 56 54 54 57 59 61 63 65 69 72 76 81 85 90 94
37 39 39 40 43 46 47 50 54 59 61 65 70 74 79 85 93 98 107 107 104 96 91 83 75 68 61 59 56 53 52 51 51 54 56 58 60 62 63 65 66 71 75 79
39 43 44 48 49 50 52 57 60 63 67 70 76 80 86 92 100 105 113 110 102 96 89 78 69 63 59 56 55 53 52 52 51 51 52 54 55 57 58 59 60 61 64 68
44 49 50 54 55 57 60 65 68 70 73 77 82 86 91 99 104 111 116 112 101 93 85 71 65 59 58 56 53 53 52 51 48 49 50 49 51 52 53 54 55 56 57 60
46 51 53 55 60 62 66 70 73 77 80 83 88 92 99 105 110 119 118 110 101 91 79 68 64 59 56 55 52 52 51 48 45 45 47 46 47 47 48 49 50 52 54 55
47 54 57 63 66 67 70 73 76 80 82 85 93 98 105 111 116 121 119 109 100 87 76 66 60 57 55 52 48 48 47 46 44 41 41 42 43 43 43 46 45 45 48 50
48 56 61 65 70 69 69 77 79 83 86 91 98 105 109 117 121 123 116 108 96 82 74 66 60 56 53 50 47 45 44 43 41 39 38 39 40 40 40 42 41 41 44 45
50 58 65 66 71 72 74 80 83 87 91 97 103 109 113 118 123 123 110 102 87 76 68 63 58 54 51 47 44 43 41 39 38 36 36 36 37 38 39 39 39 38 41 41
52 60 66 70 74 76 79 82 86 89 95 100 105 112 117 120 122 117 106 95 81 72 66 61 56 52 48 45 42 40 39 38 37 35 33 33 34 35 37 38 37 36 37 38
56 61 68 73 77 80 82 85 89 92 97 102 106 113 117 123 120 113 102 88 78 70 65 59 54 50 46 42 38 36 36 35 34 33 31 30 30 31 33 34 32 31 33 35
58 63 71 76 78 83 84 86 90 95 100 104 109 116 118 120 115 106 97 84 75 69 65 59 53 49 44 41 37 34 32 31 30 29 28 24 23 24 26 28 27 29 31 30
61 67 72 76 81 85 86 88 92 97 103 107 112 117 120 118 110 102 90 80 73 68 63 57 52 47 43 38 35 31 29 28 27 24 21 18 17 18 20 22 23 26 27 27
66 69 72 78 84 86 87 88 93 99 104 110 114 117 118 115 106 96 85 78 72 67 61 56 51 46 41 37 33 29 26 24 22 20 17 14 13 14 15 18 21 22 23 26
69 68 74 80 85 86 88 90 95 102 106 110 112 116 115 109 103 92 84 77 72 66 61 55 51 46 41 36 32 28 24 21 18 16 13 12 12 13 13 16 18 20 23 25
71 71 76 83 86 87 90 92 96 101 105 110 113 113 112 105 98 89 82 76 70 64 59 54 50 45 40 34 30 27 23 19 15 12 10 8 8 9 12 15 17 19 21 21

GFSNGP_250_spd_090.txt.gz
Wind_Speed
53 52 49 48 46 44 40 33 31 29 23 15 8 2 11 17 21 37 62 78 84 85 76 80 85 82 90 92 89 84 104 107 110 107 107 107 103 104 105 106 105 101 105 105
55 52 48 49 49 49 44 44 42 38 35 30 24 13 4 15 23 23 39 77 85 91 86 86 85 88 94 95 99 100 100 107 116 118 111 111 111 112 110 113 110 109 109 111
45 46 49 46 43 40 42 40 38 40 39 36 31 24 15 4 12 22 47 48 78 86 80 82 86 84 92 94 98 102 105 112 114 117 121 123 122 122 124 119 118 120 121 123
40 42 42 40 38 37 36 36 35 29 29 27 32 27 22 21 16 6 16 58 76 90 92 88 85 87 88 98 100 102 106 111 116 113 119 124 129 132 131 131 132 134 129 127
36 34 32 31 31 32 31 30 30 29 28 28 27 28 26 16 15 11 7 17 47 77 93 97 95 92 96 102 99 109 111 117 116 121 124 128 131 133 135 134 137 137 141 142
29 28 26 26 26 25 24 24 22 21 23 24 24 22 26 24 15 23 22 20 12 16 35 73 104 96 102 103 110 115 116 123 129 132 135 142 141 139 140 142 147 151 155 154
22 21 21 20 20 20 20 19 20 20 20 19 21 22 24 29 31 33 31 32 36 38 22 38 40 41 48 72 102 109 111 126 134 140 145 150 150 150 152 157 158 157 155 158
16 16 15 16 18 18 18 19 21 22 24 24 27 29 30 32 33 37 41 45 50 52 59 61 65 60 63 61 68 82 94 109 128 145 152 159 156 159 172 169 168 167 164 166
15 17 18 19 20 22 24 25 24 25 28 31 34 35 38 37 43 47 49 53 57 60 68 71 78 77 75 74 70 72 92 101 112 119 127 133 137 137 162 175 170 170 171 166
20 20 20 23 23 25 28 29 30 32 33 35 38 40 43 46 50 53 58 61 70 73 80 82 85 84 79 75 76 81 88 96 102 112 123 134 136 135 135 137 140 139 134 135
22 25 26 27 27 29 32 36 36 38 40 44 45 47 51 54 57 60 65 72 79 81 89 91 95 94 89 87 84 83 82 82 81 80 82 86 94 105 116 126 134 138 137 134
25 27 30 33 34 34 38 39 42 46 49 51 53 55 60 62 63 67 73 80 85 91 96 99 99 96 95 91 85 77 71 69 67 65 65 67 71 76 81 87 92 100 109 120
21 27 30 35 38 40 41 44 49 52 54 57 59 63 69 70 72 78 82 88 91 101 106 106 102 99 95 87 78 71 64 62 60 58 57 58 60 63 67 69 74 78 83 89
19 23 30 36 40 44 46 49 54 59 61 63 65 69 73 77 79 85 89 95 101 108 112 108 103 100 90 78 70 67 62 59 58 57 56 55 56 58 60 63 63 66 68 72
29 27 31 38 42 47 52 54 58 60 64 67 72 75 79 85 88 92 98 101 109 114 114 107 104 97 83 72 66 63 61 58 56 55 54 54 53 54 56 58 60 60 59 62
36 37 36 36 42 50 55 58 63 64 68 71 76 80 84 89 93 97 105 109 114 116 112 105 100 89 78 71 64 60 59 56 55 52 52 50 50 51 53 54 55 57 57 56
42 44 43 43 43 48 57 63 67 67 73 77 80 85 89 94 100 103 111 114 118 118 111 103 92 80 74 69 64 60 57 55 52 50 49 48 47 47 48 50 51 53 54 54
47 48 48 49 50 50 55 65 71 72 77 80 83 89 93 98 105 109 113 116 120 118 110 101 87 78 71 66 61 58 55 52 49 47 45 44 44 44 45 45 46 49 50 50
52 53 55 56 56 57 57 65 73 76 81 86 87 93 97 102 108 114 114 117 118 112 107 94 83 76 71 65 59 56 52 49 46 44 41 41 41 41 41 41 41 42 44 44
58 59 60 62 62 61 60 66 72 81 84 88 92 97 100 106 111 115 115 120 116 109 100 86 78 72 66 60 55 52 48 46 43 41 39 38 38 38 39 40 39 38 39 38
63 67 66 66 65 64 64 68 72 83 87 90 94 99 103 108 111 114 117 118 113 105 92 80 74 68 62 57 52 48 45 42 40 38 38 37 36 34 34 35 35 34 33 34
66 65 64 66 67 67 67 71 74 83 88 93 97 101 104 110 112 115 116 115 109 101 87 78 71 64 57 53 49 46 41 38 37 36 34 32 30 29 28 29 30 29 29 31
70 67 65 66 67 66 67 74 76 84 89 95 99 102 105 110 113 116 116 114 106 94 83 76 70 63 57 51 45 41 38 36 34 32 28 26 25 23 22 23 24 23 25 28
70 68 68 67 67 67 70 75 82 87 90 96 100 103 108 113 114 115 113 109 101 87 78 72 66 60 55 49 45 39 35 32 30 28 25 21 20 18 18 19 20 21 22 24
73 72 68 68 70 70 74 78 81 86 92 97 101 103 106 111 113 113 113 106 95 83 77 71 65 59 52 46 42 38 35 30 26 23 20 17 15 13 13 12 13 17 20 21
71 71 70 69 71 72 73 77 81 88 92 97 100 104 106 111 112 112 110 101 89 79 75 69 63 57 51 46 41 37 32 27 24 20 16 13 10 9 9 10 10 12 14 16
70 70 69 70 70 73 72 78 84 88 92 96 100 104 106 109 110 111 105 96 84 77 72 67 61 56 50 45 40 34 30 27 23 18 13 10 8 6 7 8 9 11 14 16

GFSNGP_250_spd_093.txt.gz
Wind_Speed
50 51 50 50 48 47 44 42 39 36 31 27 22 19 20 15 7 2 15 22 38 43 47 53 59 72 79 80 69 69 76 86 81 90 100 105 105 102 105 106 104 111 102 99
46 46 46 44 44 43 44 42 41 41 41 37 31 27 23 16 10 8 9 14 18 37 46 50 60 69 70 77 89 79 80 82 92 97 96 105 105 107 111 114 112 109 108 107
41 40 40 39 37 38 39 39 39 42 40 37 35 34 32 29 24 12 8 16 23 31 43 62 62 66 70 72 78 86 94 92 91 96 98 103 106 115 110 111 112 114 117 118
36 36 35 36 34 35 36 35 35 34 33 35 34 29 28 27 26 26 18 9 14 26 40 58 66 71 75 71 76 82 87 96 100 100 103 105 109 113 121 130 131 125 124 125
29 29 29 28 28 29 29 29 28 27 27 27 26 25 26 24 22 22 20 11 9 7 10 20 57 73 79 82 79 80 84 88 94 99 107 104 113 115 119 123 130 132 135 133
23 23 23 23 23 23 23 22 21 21 20 18 17 14 15 16 12 14 14 10 8 13 17 19 25 27 37 82 85 92 88 89 96 104 109 114 119 124 127 129 132 140 141 147
17 16 17 16 16 16 16 16 15 15 15 16 16 18 18 19 22 25 26 28 30 31 32 33 35 26 32 40 50 51 63 70 74 82 102 115 125 127 133 140 149 153 150 151
12 12 11 11 13 13 14 14 15 15 17 18 20 22 22 23 24 30 33 36 38 44 48 49 53 55 57 64 68 70 73 74 80 85 98 98 106 117 137 149 150 145 149 158
11 11 12 13 14 14 15 18 18 19 23 26 28 29 32 34 36 40 43 45 48 51 57 59 65 71 74 76 79 80 84 88 86 86 98 104 116 121 117 118 129 131 127 133
16 15 14 15 16 18 19 20 24 29 33 34 36 39 39 39 42 46 50 52 56 60 64 72 74 83 87 90 94 96 97 91 89 87 89 93 98 104 112 118 127 129 124 126
18 18 19 21 23 23 24 25 28 32 36 39 43 44 45 46 49 53 56 61 65 69 75 81 87 92 97 101 103 103 100 95 88 83 80 80 80 82 86 91 94 100 108 114
22 22 21 24 26 29 32 34 34 35 39 42 45 49 52 55 58 62 65 70 75 79 84 89 93 97 105 107 107 105 98 91 82 75 72 71 70 71 71 73 74 77 80 83
25 26 26 28 30 33 36 39 41 44 46 48 50 54 57 61 64 69 73 75 80 85 90 96 99 103 109 110 109 102 93 84 77 71 67 66 66 65 67 64 66 67 68 70
30 32 34 33 33 37 40 43 44 47 51 54 58 60 63 67 70 76 79 82 86 91 95 101 105 108 111 110 103 94 84 77 71 69 65 62 59 60 60 62 59 61 63 63
35 35 37 39 40 43 44 45 48 52 57 60 61 66 69 72 75 80 85 87 91 95 99 106 108 110 110 104 94 86 81 75 70 65 62 60 56 54 56 57 58 56 55 58
40 41 43 45 47 47 49 52 56 59 62 64 67 70 74 77 80 85 90 93 95 99 104 109 109 110 105 95 86 81 77 72 67 63 59 56 54 51 50 52 54 53 53 51
47 44 46 50 52 52 54 56 59 64 68 69 71 75 77 82 86 89 94 97 101 104 109 111 113 110 102 90 83 80 75 67 63 58 55 52 50 48 47 47 49 49 49 48
61 60 56 54 56 56 58 60 62 67 68 70 72 76 79 82 86 92 98 101 105 106 110 111 112 107 96 88 84 77 71 68 60 57 53 50 47 45 43 43 43 43 44 45
67 66 65 64 62 62 63 65 67 70 70 71 73 76 79 84 90 95 99 103 107 109 112 112 113 106 94 88 82 74 67 64 60 54 51 48 44 42 40 39 39 40 39 39
72 70 69 68 68 64 66 68 70 74 74 74 76 80 83 89 93 97 101 103 106 111 108 111 110 103 93 87 78 71 64 60 57 53 48 45 41 39 37 36 36 37 36 35
77 75 73 71 69 69 69 69 72 75 76 76 80 82 85 90 94 97 103 105 108 110 109 111 106 100 90 82 74 67 62 57 52 49 44 41 37 35 33 32 31 31 32 31
77 76 75 74 72 71 72 73 75 77 78 80 82 83 86 90 95 99 102 103 107 109 110 110 104 96 87 77 69 64 60 55 48 44 42 38 33 29 27 26 26 26 27 27
76 76 76 76 74 74 74 75 77 76 77 80 82 83 87 88 94 100 105 103 107 110 111 107 100 91 82 72 66 61 57 52 47 42 37 34 29 26 23 22 21 22 22 22
65 77 78 78 77 78 78 76 74 74 78 80 81 83 85 90 93 98 98 104 103 108 109 103 95 86 77 69 64 59 54 48 43 38 34 29 26 22 20 18 16 15 16 17
56 61 71 76 79 79 77 73 72 74 76 78 78 78 83 89 94 98 101 103 104 109 108 99 90 82 74 67 62 56 50 45 40 35 30 26 23 19 16 13 11 10 9 12
54 56 64 73 75 76 75 73 72 73 74 73 71 77 82 89 93 97 99 99 105 107 103 96 86 78 72 66 60 56 48 43 38 34 29 23 19 16 12 9 7 5 4 7
54 53 60 66 66 68 67 67 68 68 69 68 70 78 82 88 93 96 97 98 103 103 99 92 82 73 69 64 59 54 47 42 37 32 26 22 18 14 11 7 5 4 5 7

GFSNGP_250_spd_096.txt.gz
Wind_Speed
44 44 45 44 44 45 45 42 41 43 43 37 33 29 26 25 24 21 11 13 20 9 22 18 23 33 38 45 57 60 59 52 51 55 64 72 74 82 83 82 87 90 92 97
41 43 44 44 43 44 47 47 44 42 41 41 42 40 38 33 25 18 14 14 9 15 15 15 25 29 27 43 54 59 63 67 68 70 71 74 78 83 87 92 96 95 104 109
37 37 36 36 36 36 37 37 38 40 39 35 35 36 34 33 32 28 26 22 19 17 15 21 26 29 31 36 49 59 65 61 67 69 70 71 77 81 88 94 100 108 108 107
29 29 28 30 29 29 29 29 29 28 28 27 27 26 24 24 24 22 21 17 17 15 16 14 14 16 25 35 48 54 65 68 68 73 74 80 87 91 92 93 97 101 108 115
20 21 21 21 21 22 23 23 22 22 22 23 22 21 21 20 20 20 20 16 14 14 15 17 15 17 20 22 26 55 56 66 77 75 81 88 88 91 94 98 109 111 112 115
15 15 14 14 14 15 14 15 15 16 17 18 16 16 14 14 13 15 15 15 15 15 15 17 18 23 26 27 29 33 39 41 51 61 62 77 96 100 105 107 116 114 118 129
14 13 12 11 10 9 10 10 10 9 9 9 10 11 11 11 11 12 12 13 16 17 21 24 27 32 35 39 39 42 47 53 61 65 70 75 78 86 95 108 119 129 133 135
15 14 14 12 12 11 11 11 10 10 9 11 12 13 14 15 15 18 21 23 26 29 34 38 41 45 48 51 55 59 62 66 71 76 77 79 84 91 96 106 111 116 125 137
16 15 15 14 13 13 13 12 12 15 15 16 17 19 20 23 23 25 28 31 33 37 40 45 49 52 55 59 62 67 72 76 80 85 90 89 88 92 98 117 120 123 128 125
22 22 20 21 23 22 20 22 24 25 27 29 31 34 35 37 37 39 41 44 46 49 54 59 61 64 66 71 73 79 83 87 93 96 96 97 95 92 91 95 102 114 122 127
26 26 24 26 27 29 31 33 35 38 40 41 42 44 46 48 51 54 56 56 58 61 64 68 71 74 77 81 83 89 91 97 100 99 95 92 90 86 82 80 79 81 85 88
30 28 28 27 29 30 32 33 34 37 40 42 44 46 49 52 56 58 60 63 65 66 71 75 78 82 85 89 93 97 101 103 103 98 92 87 82 78 74 70 69 68 71 73
35 33 32 32 32 31 32 33 36 39 42 44 47 50 52 56 61 62 66 69 73 76 78 83 86 89 92 95 100 105 108 107 100 92 84 78 73 70 67 65 63 62 64 66
42 40 41 40 40 40 40 41 43 46 47 50 52 54 57 61 63 67 70 74 77 80 85 88 91 94 96 100 104 109 110 104 93 86 79 74 68 65 61 62 59 56 57 59
57 52 49 48 46 46 46 47 49 50 54 56 58 60 63 65 68 71 74 77 80 86 91 93 96 99 98 102 108 112 108 97 90 83 74 70 67 64 59 56 55 53 50 52
61 62 61 58 54 54 55 55 54 56 58 61 63 65 67 68 71 75 78 81 83 90 96 99 100 100 101 103 110 110 102 92 84 78 73 70 65 61 56 52 50 48 47 44
63 66 67 66 64 64 64 63 64 64 64 66 67 68 69 71 74 77 80 84 88 93 97 100 103 100 100 104 109 105 95 90 83 76 73 69 64 58 52 48 46 43 42 40
56 64 70 71 70 69 68 66 68 70 69 69 70 71 72 74 76 80 84 87 90 96 98 102 102 99 99 105 105 98 90 84 79 75 72 65 59 54 49 43 40 38 36 35
49 50 57 66 73 74 73 72 73 75 74 74 74 74 76 77 78 81 84 89 92 98 101 102 99 97 101 104 102 93 86 80 76 72 67 61 54 49 45 39 35 33 31 30
44 48 48 50 58 69 76 75 77 78 79 80 79 79 79 80 81 84 87 91 94 98 100 100 95 96 99 102 98 89 81 76 72 66 60 57 52 44 39 36 32 29 28 28
47 46 48 50 50 53 60 70 78 82 83 83 85 86 85 83 84 87 91 92 95 98 98 94 91 95 97 98 95 85 79 73 67 61 58 53 47 42 36 32 30 27 26 25
52 49 48 49 51 53 54 58 66 75 80 82 82 84 84 87 86 88 88 92 96 97 97 93 88 94 96 96 91 82 75 70 63 59 53 47 42 36 33 30 26 24 23 22
58 54 49 47 50 53 56 56 59 67 71 78 81 83 82 84 87 88 87 91 92 94 91 87 88 92 95 94 86 78 71 65 60 55 48 41 37 34 30 27 23 20 17 16
61 57 52 48 48 51 54 58 60 60 64 69 74 78 78 79 77 81 84 86 88 87 85 83 89 90 93 90 82 74 68 61 56 50 43 39 35 31 28 24 20 17 14 10
62 59 55 50 47 49 53 57 59 59 60 64 65 67 62 64 67 71 79 79 82 83 82 80 87 90 91 85 76 70 65 60 55 47 41 37 33 29 25 21 17 14 11 7
64 62 56 53 50 51 53 56 56 58 57 59 64 62 64 63 66 72 76 77 80 79 80 80 86 89 88 81 73 68 63 59 53 45 39 36 33 28 24 20 17 14 11 8
69 66 60 55 53 52 53 55 56 56 55 55 57 57 61 64 66 70 73 75 76 76 74 82 84 87 86 77 70 64 60 57 52 44 38 35 32 28 23 19 16 13 10 7

GFSNGP_250_spd_099.txt.gz
Wind_Speed
42 43 42 42 40 40 40 41 42 41 42 41 41 35 30 28 27 24 24 20 22 23 24 16 13 12 9 23 25 38 38 42 47 46 48 49 53 53 51 64 64 62 65 72
32 32 32 33 32 34 35 34 32 33 35 35 37 36 36 34 31 31 31 29 26 22 16 12 13 12 10 7 16 25 34 43 47 54 56 57 59 64 66 70 71 63 72 73
26 25 25 25 26 27 27 28 28 27 28 28 28 28 27 27 26 26 26 24 25 25 25 22 17 15 16 10 10 13 21 27 36 53 56 62 64 69 75 76 78 79 81 79
19 19 18 18 18 19 19 20 20 21 21 20 20 19 18 18 18 16 14 12 11 10 9 7 6 5 6 8 12 16 18 26 40 51 54 61 66 69 75 79 85 84 90 93
17 17 17 17 17 16 15 15 14 13 13 13 13 12 11 11 12 11 10 10 8 8 9 8 10 12 14 17 21 25 27 31 33 39 50 59 66 69 75 84 87 87 90 95
19 19 18 17 15 15 15 14 12 11 11 12 11 12 12 10 9 10 10 10 10 11 10 12 13 16 18 22 27 30 34 38 41 46 52 56 62 69 76 82 89 95 102 109
22 20 19 18 17 16 15 14 13 12 13 12 12 13 11 10 11 12 13 15 17 18 20 22 24 24 26 29 34 38 41 46 50 54 58 60 64 73 75 80 91 98 104 109
26 23 21 19 18 17 18 18 16 14 14 17 17 18 20 20 21 21 21 22 24 25 26 28 31 35 36 37 41 45 48 53 57 58 60 67 73 77 81 87 94 101 115 122
33 28 24 23 22 20 18 17 18 19 21 21 20 20 22 23 24 25 26 27 30 32 33 33 37 39 44 49 53 56 62 64 68 69 74 77 81 86 90 94 98 102 106 111
35 34 35 31 27 25 25 26 25 25 26 27 28 29 30 30 32 34 36 38 40 43 45 46 48 52 56 61 62 65 72 70 75 78 81 84 90 96 99 103 102 98 96 96
43 41 36 38 35 33 30 29 29 31 31 32 33 35 37 38 41 43 46 48 50 52 55 59 60 62 66 71 72 74 80 80 84 87 88 91 99 103 103 99 96 93 89 86
44 51 42 43 38 37 38 38 37 37 36 38 39 41 43 45 47 49 52 55 58 60 61 64 67 71 74 77 81 81 88 88 93 92 94 99 104 106 100 93 87 83 79 78
43 54 57 50 47 43 44 47 48 48 46 44 45 46 48 51 53 56 59 62 63 66 68 71 74 77 81 85 88 88 91 96 95 96 101 106 106 97 91 87 80 73 71 70
50 44 54 66 58 54 53 53 55 57 55 54 55 55 56 57 59 62 65 68 69 71 73 76 79 82 87 91 94 95 96 98 99 100 105 107 97 91 84 77 74 72 65 63
63 51 44 52 63 66 65 65 64 65 65 64 63 64 66 66 66 69 70 72 74 76 79 82 85 89 91 95 98 100 98 104 98 103 108 99 91 84 78 73 68 65 62 55
65 58 52 49 48 57 61 67 71 70 70 70 71 72 73 73 73 74 77 79 81 82 84 87 90 93 95 99 101 102 102 98 100 107 101 91 85 79 73 68 62 57 54 51
75 65 63 55 52 51 52 57 60 63 71 75 74 75 78 77 77 81 83 84 84 86 89 92 94 95 98 101 104 101 101 96 103 105 94 86 81 75 70 64 57 51 47 46
79 75 72 61 57 52 50 50 54 57 58 62 68 73 77 78 80 84 85 85 86 88 89 92 95 97 98 101 102 97 91 96 102 95 86 82 77 71 65 58 53 47 43 42
79 77 77 73 62 58 52 50 50 51 53 54 57 62 68 74 78 81 84 86 87 88 87 91 94 97 100 100 96 88 89 97 98 89 81 77 72 67 60 55 51 44 40 37
79 76 80 77 70 63 58 53 50 51 51 53 55 57 61 64 68 73 75 78 82 84 88 92 95 94 92 92 87 82 90 95 91 83 77 72 66 61 57 50 46 41 36 33
83 81 80 80 75 67 62 58 54 51 51 53 55 56 58 58 62 68 73 75 81 83 86 86 80 82 87 85 78 84 91 92 84 77 72 68 62 57 51 46 41 36 32 28
93 83 77 81 78 74 65 61 57 54 53 53 53 55 54 57 61 63 66 69 71 74 79 76 79 81 82 79 79 85 88 87 78 72 67 62 58 52 46 42 37 32 27 24
97 82 78 82 79 76 71 65 61 56 54 53 52 52 54 56 60 61 61 64 65 70 71 78 80 81 80 75 80 84 86 81 73 68 63 57 52 46 41 37 32 28 25 23
94 82 80 84 80 75 72 68 64 59 54 52 51 51 52 54 56 60 61 61 62 66 67 72 78 77 75 76 80 82 83 75 69 65 58 53 48 43 38 33 28 24 22 20
90 85 82 84 82 78 76 70 64 60 56 53 52 53 54 55 54 55 58 57 58 63 63 70 72 74 71 75 79 81 78 70 64 62 57 51 45 40 37 32 26 21 18 16
88 86 83 84 82 79 77 73 69 60 55 54 54 54 55 54 54 52 53 54 56 56 63 68 70 68 68 73 77 78 74 67 61 57 54 48 43 38 35 31 26 21 18 15
85 87 83 84 81 78 76 73 72 67 57 54 54 55 56 54 51 48 49 51 52 55 60 64 63 61 68 70 75 75 71 65 59 55 50 46 40 36 33 30 26 22 18 15

GFSNGP_250_spd_102.txt.gz
Wind_Speed
33 32 32 31 28 27 27 28 30 29 30 31 31 28 27 27 26 23 20 16 12 15 16 17 14 9 9 8 15 23 25 34 36 35 28 40 38 45 43 45 46 46 52 59
26 24 23 22 22 21 20 21 21 22 22 25 26 25 26 27 26 26 26 28 22 18 17 16 13 10 6 4 2 6 10 14 20 31 36 45 47 45 45 50 50 51 54 54
28 26 23 19 17 16 15 15 16 16 17 17 17 17 16 16 16 16 15 16 15 14 13 12 12 12 9 6 2 3 7 9 17 28 29 29 33 45 51 50 60 63 64 65
28 27 25 23 22 20 19 18 16 14 13 11 10 10 10 9 8 8 8 8 7 7 7 6 5 5 7 10 12 13 16 17 19 20 26 33 37 43 47 56 62 66 68 73
30 28 26 24 22 22 22 22 21 19 16 15 13 12 13 13 13 12 10 9 7 7 7 8 9 10 11 14 17 20 23 25 28 33 36 40 44 47 52 57 61 65 71 76
31 31 30 27 26 23 20 19 18 18 17 15 15 15 14 15 16 16 16 16 16 17 19 20 20 20 22 24 27 30 31 32 34 38 39 46 51 56 60 64 68 74 77 83
37 33 29 28 29 28 25 21 21 18 16 15 18 19 19 18 17 17 17 17 18 19 21 23 24 24 27 30 33 36 37 39 40 42 46 49 49 53 56 61 64 68 73 79
47 37 32 30 29 28 29 30 27 23 21 22 24 23 23 23 24 22 22 22 23 25 27 30 33 33 34 35 38 41 42 44 49 52 56 58 57 62 63 68 69 73 80 88
62 60 49 33 36 35 33 32 31 31 31 27 27 26 26 26 26 28 29 31 33 34 35 37 39 42 45 46 48 49 52 56 60 63 65 68 67 69 73 77 79 85 92 97
70 68 58 48 47 43 40 41 36 37 36 37 36 35 34 34 36 37 38 38 40 41 43 45 47 49 50 53 56 58 61 65 68 72 75 78 80 81 84 87 90 96 100 105
76 75 73 64 55 53 46 44 47 45 46 43 42 42 42 45 45 45 46 46 48 50 53 56 58 59 60 62 64 68 71 75 78 80 81 84 88 90 92 94 97 101 106 106
78 73 73 74 65 60 54 47 49 53 54 53 51 52 52 54 55 56 56 56 58 60 64 67 68 70 71 71 73 76 78 81 84 85 88 92 93 96 99 98 101 106 103 102
82 82 81 76 73 68 63 56 50 51 59 62 62 61 60 60 62 65 65 66 68 70 72 75 76 77 77 78 81 83 85 87 89 91 93 95 97 96 91 99 107 106 101 97
74 79 86 78 73 72 72 67 56 53 52 57 64 69 71 72 73 74 74 75 74 75 79 79 81 82 83 84 85 87 89 91 92 94 97 98 94 88 93 99 102 103 98 88
73 79 83 84 78 74 69 70 67 59 57 55 55 60 68 75 79 80 79 79 80 80 81 82 85 84 85 87 89 91 92 91 94 95 96 91 85 89 96 99 96 91 87 82
79 83 87 87 78 81 68 65 68 66 61 57 57 58 62 66 68 71 76 82 85 86 88 89 87 88 88 87 89 90 91 92 94 95 90 86 86 93 97 94 88 83 78 72
83 84 87 88 85 83 79 69 69 68 65 62 60 58 58 61 66 68 69 71 74 75 74 78 79 79 81 82 84 87 90 92 92 89 85 82 90 94 90 85 81 76 71 66
83 86 82 85 86 84 82 75 72 72 70 66 65 62 59 58 60 65 68 67 65 65 69 69 72 74 77 78 82 86 88 86 88 84 79 85 91 88 83 79 75 70 64 59
84 84 81 83 87 85 81 78 74 75 75 71 69 67 64 60 58 59 61 63 63 64 66 66 68 72 75 77 79 82 80 84 82 78 80 86 85 80 75 72 69 63 58 53
86 83 81 86 84 87 80 79 75 76 77 76 74 70 67 63 60 57 57 58 60 62 63 64 66 69 72 75 76 77 78 79 74 76 82 81 76 73 70 67 62 57 52 48
87 84 82 84 83 86 83 80 78 76 76 77 76 74 70 66 61 58 57 57 59 61 62 65 66 67 68 70 72 74 74 72 71 77 79 74 72 68 65 61 57 51 47 43
87 83 81 82 83 84 83 82 79 78 77 75 76 74 72 69 61 58 58 58 57 59 61 63 66 65 65 65 67 68 68 68 72 77 73 68 65 63 60 55 50 46 42 37
86 85 83 82 80 84 83 82 81 79 81 77 77 76 71 70 64 58 56 58 58 59 60 62 63 62 61 61 62 62 63 65 73 73 69 63 60 58 54 50 45 40 36 32
87 83 84 82 81 83 84 82 82 82 82 80 81 80 76 70 63 59 58 57 58 59 59 59 59 58 55 56 56 59 60 66 70 71 65 59 57 54 50 46 41 35 32 29
86 82 82 81 82 81 85 83 82 83 83 79 80 82 80 74 66 61 60 60 59 57 56 56 56 53 52 51 52 54 59 66 68 68 62 57 54 52 47 43 38 33 29 26
84 81 81 83 80 81 84 83 82 83 82 79 79 80 80 77 68 63 61 59 56 53 53 52 51 48 46 46 50 53 60 65 67 65 59 55 52 48 44 40 35 30 27 23
82 79 81 82 81 83 83 82 81 82 81 79 78 79 76 74 68 64 61 57 54 51 50 50 47 43 44 45 49 53 60 64 66 62 56 53 50 47 42 37 32 28 24 22

GFSNGP_250_spd_105.txt.gz
Wind_Speed
29 27 25 24 24 24 23 22 22 21 21 21 23 21 22 23 19 14 11 9 10 10 9 5 2 3 8 13 15 23 25 24 26 29 28 31 33 37 41 43 47 48 48 49
32 29 26 25 23 22 20 20 18 17 18 18 15 14 15 16 16 17 18 18 19 17 14 11 8 6 2 4 8 13 17 22 25 26 29 36 34 31 34 41 43 48 47 48
29 27 26 25 24 22 22 21 20 18 16 14 14 14 15 15 15 15 13 12 11 10 10 8 7 8 7 6 4 3 2 4 7 12 18 21 25 29 31 35 41 42 46 53
45 36 27 25 26 25 25 24 22 19 17 17 15 14 15 15 14 14 14 12 12 13 12 11 10 10 10 10 11 11 12 14 16 17 20 22 24 29 33 38 40 44 47 49
65 51 39 30 27 26 25 25 26 25 23 20 18 15 15 15 15 14 13 12 12 11 12 12 13 14 16 18 19 20 21 23 25 28 30 32 34 37 40 43 45 49 53 57
66 65 58 49 33 29 29 26 26 27 28 27 25 23 23 23 21 21 22 21 21 21 21 21 22 23 25 27 29 30 31 32 35 37 39 41 44 45 47 48 51 55 58 63
68 66 65 56 54 48 40 32 31 30 31 30 30 29 31 31 31 30 29 28 28 27 27 27 27 27 28 31 33 34 36 37 39 41 44 47 51 53 54 57 60 64 67 69
65 67 67 63 58 54 48 45 36 33 33 34 35 35 35 35 35 35 35 35 34 33 34 34 35 36 38 38 39 41 44 46 48 51 51 55 56 59 63 66 70 75 79 82
64 68 66 69 63 61 55 50 48 40 34 34 40 42 43 43 43 42 42 42 43 43 43 44 44 45 47 49 49 49 51 53 55 57 59 62 65 68 72 74 77 80 83 85
64 69 70 68 68 65 61 55 50 47 44 39 37 39 45 51 51 52 52 52 52 53 54 54 55 55 57 59 61 63 65 65 66 69 70 72 74 77 80 82 84 87 88 91
63 65 69 68 68 65 65 62 55 49 48 47 46 43 43 47 53 57 60 61 62 64 65 65 66 67 68 70 72 74 75 77 78 78 79 82 84 84 87 90 91 94 93 94
63 66 69 69 68 67 66 67 62 56 51 50 49 49 48 46 48 54 61 67 70 72 73 74 75 76 77 79 81 83 85 85 87 87 87 88 91 93 96 97 98 96 96 96
67 67 69 69 72 69 67 69 67 61 57 54 53 52 51 51 52 52 54 58 65 73 79 83 84 85 86 88 89 89 90 91 93 93 95 96 97 97 96 100 100 98 97 95
67 69 70 69 71 72 66 68 68 69 65 59 54 52 52 51 52 54 55 57 60 62 67 72 76 81 84 85 83 84 88 92 95 96 95 95 93 93 94 95 96 99 97 94
68 72 74 74 73 75 71 68 68 70 71 68 67 64 58 54 53 55 56 57 58 60 63 64 67 70 73 73 76 78 80 81 84 86 87 87 89 91 92 92 93 87 88 93
70 73 76 77 78 75 78 73 72 71 71 72 71 69 67 67 65 60 58 58 60 60 60 61 62 63 65 68 70 72 73 74 77 80 83 84 87 89 88 88 82 84 89 86
71 74 79 83 85 82 77 78 75 74 72 74 73 72 70 67 68 67 66 63 62 62 61 59 59 60 63 66 68 70 72 74 76 79 81 83 85 85 83 79 80 85 83 79
74 76 79 82 87 88 80 81 78 75 74 75 74 73 74 71 68 69 68 65 63 63 63 60 57 57 59 61 63 65 68 71 73 77 81 82 82 80 76 78 81 80 77 73
78 77 80 82 87 89 85 81 81 78 75 77 77 76 76 74 72 69 70 69 66 65 62 60 58 56 56 58 61 63 66 69 71 74 77 77 74 71 74 75 74 73 69 65
81 81 82 84 86 89 87 81 84 80 78 77 79 79 79 77 74 71 68 67 67 64 62 58 57 56 56 57 60 62 64 65 67 68 69 67 66 69 72 69 67 65 61 56
86 85 86 87 88 89 91 85 84 82 81 79 80 80 80 80 77 76 73 66 64 62 59 58 57 57 57 59 60 60 59 60 61 62 62 62 67 70 67 62 61 58 52 49
91 91 89 90 89 92 92 90 87 85 84 81 81 80 81 81 80 79 77 73 69 64 59 58 58 58 58 57 55 54 54 54 55 55 56 62 67 63 60 58 55 51 47 44
94 94 94 90 89 93 93 92 90 86 86 82 82 80 81 82 83 83 79 77 73 68 65 62 60 59 55 52 50 50 50 49 50 51 57 65 62 58 56 54 51 47 43 40
98 97 96 94 90 93 92 93 91 87 87 83 81 81 83 82 82 83 82 77 73 68 66 63 61 57 52 49 48 47 45 46 48 52 60 61 59 55 53 50 46 43 41 37
99 100 99 97 92 92 92 93 92 87 88 83 81 80 84 83 82 84 83 79 74 68 65 63 59 53 50 47 45 42 42 43 47 54 58 58 56 53 50 47 44 41 39 34
101 103 100 96 93 90 91 91 91 86 87 83 82 81 84 83 82 84 85 81 76 71 68 65 58 53 49 46 41 38 39 41 49 56 57 57 54 50 48 46 41 38 35 32
99 97 96 95 91 90 89 89 89 85 85 83 84 81 84 82 81 83 83 80 77 71 68 64 58 52 48 42 39 36 38 43 50 55 56 55 51 48 47 44 40 37 33 28

GFSNGP_250_spd_108.txt.gz
Wind_Speed
24 23 22 22 22 22 23 25 24 22 22 22 20 19 20 20 20 20 21 21 21 20 19 19 16 13 12 10 10 14 18 19 19 21 24 27 31 35 38 42 45 49 51 52
39 30 24 20 19 18 18 19 22 23 24 23 23 22 22 21 19 19 18 17 17 15 14 12 13 11 9 8 7 9 12 17 21 25 27 27 32 34 36 37 37 41 44 46
54 53 48 40 31 25 22 21 18 17 18 21 22 24 25 25 25 24 23 23 21 19 17 15 13 11 11 10 8 7 7 9 11 16 18 19 22 26 28 35 39 40 42 42
61 59 56 50 45 42 36 31 24 24 23 21 20 20 21 23 24 27 28 29 29 28 26 25 24 23 21 20 20 19 18 18 19 20 22 23 24 25 27 30 33 37 39 41
58 58 56 52 52 47 40 40 36 32 30 29 28 26 26 24 26 28 30 32 32 33 34 34 34 34 33 32 30 30 29 30 30 31 32 33 35 35 37 38 40 43 45 48
58 56 53 51 50 51 49 42 37 34 30 31 33 38 34 37 35 35 35 34 35 36 36 36 37 38 38 39 39 39 38 38 39 40 42 43 44 45 46 48 50 52 54 55
54 55 53 54 52 49 47 47 45 38 34 31 28 30 33 37 40 41 42 42 41 40 41 42 42 42 43 44 45 47 49 49 48 47 47 47 48 49 51 52 55 57 60 64
54 55 56 55 55 56 51 48 45 45 43 39 36 33 32 31 34 39 44 47 48 49 50 49 49 51 52 53 54 55 55 56 55 56 56 57 58 60 61 63 66 68 71 74
51 55 56 56 58 57 56 53 50 45 44 44 43 41 40 39 37 37 37 39 43 49 54 58 61 62 62 63 63 64 64 64 64 66 67 68 69 71 73 74 77 79 80 81
54 57 57 56 58 61 64 60 57 58 51 46 45 44 44 45 45 45 44 43 43 45 47 52 57 63 68 71 73 74 75 75 76 76 77 77 79 80 82 84 85 83 84 87
56 56 57 59 62 62 64 67 68 60 59 58 53 49 48 47 48 48 49 50 51 49 49 51 53 56 61 67 72 77 80 81 82 83 83 84 85 88 89 88 87 87 92 92
56 55 56 60 64 67 68 69 73 73 65 64 62 60 56 54 52 49 50 51 50 51 53 54 54 56 59 61 64 68 73 77 78 77 81 84 85 84 83 88 90 86 81 81
54 57 57 61 65 67 71 73 72 73 76 69 67 65 64 64 62 63 59 57 59 59 55 53 55 57 58 60 62 64 65 66 70 72 72 72 75 78 80 81 78 80 81 83
58 61 61 63 70 72 76 78 77 78 78 79 74 72 70 69 69 68 68 63 63 62 62 60 60 58 58 60 60 60 59 61 62 62 64 67 69 71 73 77 81 84 84 84
62 64 64 67 74 77 79 82 82 82 83 84 82 78 75 75 73 73 73 68 66 65 64 64 63 63 62 59 58 56 55 56 56 57 58 60 63 67 69 73 76 80 83 85
62 66 69 73 79 81 82 84 86 87 89 87 85 85 82 78 78 75 76 72 67 68 68 67 65 65 66 62 57 53 51 52 53 54 55 58 61 65 69 72 76 78 79 78
69 71 74 77 82 82 85 85 88 88 90 91 91 87 87 81 79 79 78 76 72 72 72 69 67 66 65 63 57 54 51 51 53 54 56 59 62 66 69 71 73 73 72 70
70 73 78 78 81 82 84 88 89 90 90 91 93 91 89 87 80 81 80 79 75 75 76 73 67 64 61 60 57 54 53 53 55 56 57 59 61 64 65 66 67 64 67 69
74 77 78 80 80 83 86 90 92 93 95 92 96 94 91 89 85 80 81 82 80 79 78 78 72 67 61 56 54 53 52 52 52 53 55 56 58 59 61 58 60 63 64 64
78 79 80 82 84 86 90 91 92 92 95 95 96 94 94 91 87 84 82 83 82 81 80 78 73 68 65 61 57 54 52 50 49 50 51 52 55 54 54 59 60 60 60 57
82 82 82 84 87 89 92 93 94 92 96 96 98 96 94 93 89 87 83 83 83 83 82 80 74 66 63 61 59 54 50 49 47 47 49 49 49 51 57 58 57 56 54 51
89 89 89 88 90 92 94 94 95 95 97 97 97 95 94 94 90 88 84 83 84 83 83 82 75 70 67 65 60 54 49 46 46 45 44 47 49 55 56 55 53 51 49 46
93 94 96 95 94 94 97 96 97 96 98 97 96 95 95 92 89 88 83 83 83 82 83 82 78 72 70 68 62 55 49 46 45 43 43 45 52 55 54 51 49 48 46 43
96 95 96 96 97 95 97 95 99 99 98 97 95 95 93 90 89 85 83 83 82 81 81 81 78 73 72 68 63 56 49 46 44 43 43 48 52 54 52 48 47 45 42 39
96 96 97 97 99 100 99 97 100 98 97 98 96 91 92 88 86 82 82 82 82 80 80 79 77 73 71 68 63 56 50 46 44 42 44 49 51 52 49 46 45 43 41 38
96 96 95 97 100 102 99 97 99 96 94 95 95 90 87 85 84 80 81 81 80 79 78 77 75 71 70 67 61 57 50 42 43 44 46 49 51 51 47 45 43 41 38 35
89 90 94 94 96 98 96 95 94 92 92 93 89 82 82 84 81 80 79 80 78 78 76 76 74 70 68 65 60 54 48 41 41 44 47 49 50 49 45 43 42 40 37 34

GFSNGP_250_spd_111.txt.gz
Wind_Speed
49 46 45 44 40 34 30 29 28 26 25 22 22 22 21 21 21 23 24 24 26 28 30 32 31 27 25 24 20 16 16 19 20 22 23 25 27 30 31 32 34 36 38 41
50 49 49 47 43 42 39 36 33 29 26 28 28 28 28 27 26 25 24 23 23 23 25 25 26 27 28 27 24 21 19 18 17 21 25 28 30 31 32 32 34 35 37 39
49 46 45 44 44 45 43 38 38 40 35 30 25 24 28 30 33 33 35 36 35 35 33 31 27 25 26 27 27 27 26 25 23 23 23 27 30 32 34 36 36 40 42 45
50 50 51 49 47 43 42 42 41 39 38 38 36 35 31 30 30 33 35 38 40 40 40 41 40 38 37 34 32 31 31 32 32 32 33 33 33 33 34 35 35 36 38 40
52 51 51 52 52 50 48 45 44 41 42 40 38 36 35 36 36 37 39 39 42 44 47 48 47 46 45 45 44 43 43 42 42 41 41 43 43 43 44 45 45 45 45 45
51 48 45 51 52 53 53 55 55 49 43 41 41 41 41 40 38 37 37 38 39 41 44 47 50 52 53 54 54 52 51 50 50 50 50 51 50 51 52 52 53 54 54 55
49 49 50 53 55 54 58 60 60 57 56 55 51 47 43 42 43 43 43 43 44 44 44 45 47 49 53 57 60 61 62 62 61 61 61 61 61 61 61 62 62 62 63 62
45 47 52 53 54 58 60 62 62 63 64 62 60 60 56 52 48 47 47 45 46 47 49 50 51 52 52 54 57 60 64 68 70 72 74 73 73 73 73 72 71 71 73 75
43 48 51 53 53 58 60 64 67 67 68 69 70 68 64 63 59 53 52 48 47 47 46 48 51 54 55 57 59 59 61 65 67 69 73 78 81 83 85 85 84 84 84 85
48 50 54 54 57 60 64 66 71 73 74 74 76 78 73 70 65 66 59 57 52 50 48 47 51 53 54 55 58 61 63 64 66 69 72 74 76 78 81 83 87 90 92 95
48 49 53 55 55 59 61 66 70 74 72 76 79 79 82 76 78 70 68 64 60 59 57 55 54 55 58 60 62 64 64 66 67 68 70 72 74 76 76 77 79 83 85 86
46 51 53 54 57 60 63 65 68 71 74 75 78 83 82 81 79 77 70 69 66 64 64 63 60 58 61 62 65 67 68 68 67 67 69 72 72 73 72 72 73 74 76 80
52 54 55 56 58 61 64 66 67 71 74 79 83 83 85 85 83 83 81 76 73 69 67 68 67 65 66 67 69 69 68 70 69 66 66 66 66 67 70 67 67 67 68 71
59 59 61 60 59 62 66 68 70 72 74 77 79 84 86 86 87 87 85 82 79 75 73 71 73 72 71 71 72 71 68 67 67 63 59 59 58 59 60 61 64 64 64 65
63 64 64 65 65 67 70 71 75 75 77 79 81 84 87 90 90 90 88 86 83 82 77 76 76 75 75 74 74 72 68 64 63 61 56 55 56 56 56 57 60 64 67 70
67 67 71 72 73 73 73 76 79 81 82 83 86 87 90 93 92 92 92 91 86 84 79 79 78 78 78 77 76 74 69 64 60 57 56 56 57 57 57 58 59 61 63 65
72 73 72 75 77 79 80 82 84 86 87 88 90 91 93 94 94 95 96 90 88 85 82 80 80 81 81 79 76 74 70 66 61 55 53 52 51 51 52 53 55 57 59 61
83 81 79 77 78 82 83 83 86 88 88 89 91 92 93 93 96 97 97 92 91 87 84 80 81 82 81 82 78 73 67 65 59 55 52 50 48 48 48 50 52 54 55 58
90 89 88 86 86 87 87 88 91 91 90 90 91 91 95 96 98 99 98 94 90 89 84 80 81 82 81 83 81 78 72 67 61 57 53 49 48 48 48 48 49 52 56 58
92 93 92 92 92 92 91 93 93 93 92 92 91 94 96 96 98 100 97 94 91 89 82 80 80 82 81 82 81 79 73 70 65 60 56 52 49 48 47 47 52 55 56 54
99 97 97 96 96 94 94 93 93 95 93 91 91 94 96 97 98 99 97 94 90 87 80 80 79 81 79 80 81 79 74 70 66 61 58 54 49 47 48 52 54 54 52 51
102 102 100 97 96 97 94 94 92 93 93 91 90 93 96 98 97 95 92 89 88 85 80 78 79 79 78 79 80 77 74 70 67 61 58 53 48 48 51 55 55 52 50 49
94 97 99 97 96 94 94 92 92 91 90 90 89 92 94 94 92 92 90 85 86 82 79 78 77 77 78 77 79 76 73 69 67 61 58 52 47 48 54 56 54 50 48 47
89 92 94 94 94 93 92 87 88 88 85 85 86 87 88 90 88 88 84 83 83 80 79 79 77 75 76 76 77 75 71 68 66 61 57 51 47 49 54 56 53 49 46 44
82 85 86 88 88 89 86 83 84 85 80 82 82 84 85 85 83 84 82 83 79 78 78 78 76 74 75 75 74 73 69 67 65 60 55 50 46 48 54 55 51 47 45 42
78 79 78 79 82 81 81 80 79 80 78 78 80 82 83 80 79 79 80 79 76 76 77 76 74 73 73 72 73 72 68 66 64 59 53 47 44 46 52 52 48 45 43 40
74 74 74 75 78 77 76 75 73 76 74 77 79 80 78 75 75 76 78 74 74 75 76 75 72 72 71 71 71 70 66 65 62 56 50 44 42 45 50 50 46 42 41 38

GFSNGP_250_spd_114.txt.gz
Wind_Speed
54 52 52 52 49 48 45 43 42 40 39 38 36 35 33 30 29 28 28 29 31 33 34 35 36 36 36 38 38 37 35 34 33 32 29 27 27 29 31 31 33 36 41 43
54 53 55 56 56 56 53 53 52 50 48 46 43 41 40 38 38 38 37 36 35 35 35 35 35 35 36 36 35 36 36 37 36 34 33 34 34 32 32 35 37 39 40 40
52 53 52 54 55 57 57 59 58 59 59 57 53 50 47 44 43 43 42 42 41 41 41 41 41 41 41 40 40 39 39 39 39 39 40 40 39 40 40 40 40 40 41 42
50 50 55 51 53 57 56 58 60 57 57 60 63 59 57 55 50 46 44 45 44 44 44 43 43 42 42 41 42 43 44 45 46 46 47 47 46 46 47 47 47 47 48 48
49 50 51 54 53 55 56 60 59 59 61 62 64 64 63 60 58 54 53 51 49 47 45 47 47 45 44 44 44 46 47 48 48 50 52 54 56 57 57 56 56 56 56 57
47 50 49 50 50 51 54 58 58 61 62 61 61 65 65 63 63 61 57 55 54 51 48 47 47 47 47 49 50 51 51 52 52 54 56 57 59 62 65 67 68 67 67 66
43 45 50 53 54 52 54 54 58 61 63 64 65 64 66 67 63 67 63 59 57 53 53 50 47 44 42 45 46 47 49 52 54 57 58 60 62 64 66 69 71 72 75 77
43 44 46 50 52 54 54 56 58 60 62 66 67 69 71 67 69 69 70 70 66 61 57 55 51 49 48 46 46 47 51 54 56 58 60 63 64 65 67 69 70 70 73 75
43 45 47 49 52 53 54 57 58 61 64 68 68 72 74 73 73 75 76 74 73 72 66 61 60 56 53 54 53 53 55 57 60 61 65 68 69 68 67 66 67 69 70 72
49 46 47 47 51 55 57 59 61 63 65 67 70 71 75 76 77 77 77 78 76 76 74 69 64 62 60 58 59 59 60 63 65 65 68 71 71 70 68 63 64 65 68 70
51 50 50 49 52 51 56 62 63 66 67 68 70 72 74 76 79 80 80 80 80 77 80 79 70 68 66 65 65 64 64 67 68 69 69 70 69 66 64 61 60 63 65 67
49 52 52 54 56 57 57 59 62 65 67 68 71 74 77 80 81 83 82 83 82 81 80 81 79 73 72 69 69 68 69 70 71 72 70 67 63 61 59 57 57 57 58 61
59 59 62 63 62 62 63 63 64 67 70 71 74 74 76 79 81 83 85 84 84 84 83 83 85 79 76 72 71 71 73 73 72 72 71 66 64 62 59 55 53 53 54 57
67 68 68 66 68 70 69 72 74 74 75 77 78 80 82 83 85 84 87 86 85 84 83 85 86 81 77 74 73 73 75 76 74 71 68 66 64 60 58 57 55 53 53 57
72 71 69 70 73 73 74 75 77 80 81 82 83 83 84 86 87 87 87 88 86 85 85 85 85 83 78 75 74 74 76 77 77 75 71 68 65 59 56 53 53 53 55 56
78 78 79 78 77 78 78 77 81 83 85 86 87 87 87 88 89 89 89 88 87 85 86 86 84 84 78 76 74 75 76 77 77 76 74 70 68 63 58 54 52 52 52 54
90 88 85 85 85 85 86 86 88 88 88 89 90 90 89 88 90 90 91 89 88 85 85 85 82 83 78 77 75 75 75 77 76 76 74 71 69 64 60 55 50 49 47 47
96 94 93 91 90 91 92 93 91 91 92 91 90 90 91 89 90 89 90 88 86 83 84 83 81 83 78 77 76 75 75 76 75 75 73 71 70 66 62 56 50 47 46 50
104 100 98 96 96 95 93 95 95 98 94 90 90 88 87 88 89 88 91 87 85 82 82 82 80 80 78 78 78 75 75 75 75 74 73 72 69 68 63 58 51 47 49 53
111 103 99 99 97 97 95 98 100 96 93 88 85 86 85 84 85 87 90 86 83 80 79 80 78 78 78 77 77 75 74 74 75 74 74 72 70 68 64 59 52 49 51 54
107 103 102 101 96 95 95 92 88 85 85 84 84 86 84 82 82 85 88 83 80 78 78 78 77 76 76 76 76 75 74 73 73 74 73 72 70 69 64 59 53 50 52 53
104 101 98 98 95 90 86 87 81 78 82 84 83 84 81 80 82 83 84 80 77 75 76 76 76 74 76 77 74 75 74 72 72 73 72 71 69 68 63 59 52 50 52 51
93 92 89 89 87 84 81 83 76 74 79 78 79 81 79 75 79 81 80 76 73 72 74 74 74 73 75 75 74 73 73 70 70 71 71 69 69 68 63 58 52 51 52 50
84 84 80 78 79 81 81 78 72 73 75 72 75 80 75 71 73 76 76 72 68 70 71 71 70 71 74 73 73 71 71 69 69 70 69 68 68 67 61 57 51 52 52 50
80 73 71 70 66 71 73 75 70 68 67 68 73 76 75 70 71 71 68 67 66 68 67 66 67 69 70 71 71 70 68 67 67 68 67 66 67 65 59 54 49 50 51 49
70 71 68 65 63 64 63 63 62 63 65 68 69 71 72 67 67 66 64 61 64 65 65 64 65 66 68 69 68 68 66 66 66 66 64 65 66 62 57 50 47 49 49 47
59 62 64 60 59 61 62 62 58 60 65 67 68 68 65 63 62 61 59 59 61 61 62 61 62 65 65 67 66 65 65 65 65 64 63 63 63 58 53 46 45 47 47 44

GFSNGP_250_spd_117.txt.gz
Wind_Speed
53 52 54 54 53 53 53 54 54 53 55 51 49 48 48 48 43 40 39 40 40 39 38 40 40 40 39 38 38 39 40 39 38 38 39 39 39 38 38 38 36 34 35 38
51 51 53 52 53 52 51 51 53 54 53 54 55 53 52 55 53 54 52 48 44 42 41 40 40 41 42 42 40 39 38 38 39 40 40 40 41 43 44 45 45 46 47 46
49 51 51 52 52 54 54 55 56 57 57 57 58 58 57 56 58 59 59 60 59 52 47 46 45 45 44 45 45 44 43 43 42 41 40 42 43 45 45 47 50 52 54 55
44 45 46 47 48 49 51 51 53 55 57 57 59 59 58 59 60 63 63 61 61 58 56 53 49 47 46 46 46 46 48 49 47 47 47 47 46 46 48 50 52 53 56 58
39 41 42 43 44 45 44 45 49 52 54 56 57 57 57 59 61 62 64 67 66 62 60 58 57 57 49 45 46 46 47 47 49 50 51 53 54 55 55 55 55 57 59 61
40 43 39 41 41 42 43 43 46 50 52 54 56 57 58 59 60 61 62 64 66 68 67 66 62 59 59 54 51 49 48 47 49 50 51 52 53 56 59 61 62 63 63 64
33 36 44 38 41 40 42 42 47 50 52 55 55 56 57 60 62 64 66 67 68 67 68 68 67 64 62 62 59 55 54 53 52 51 53 55 55 57 58 61 64 67 68 67
37 38 36 40 38 41 43 47 48 51 52 54 56 58 61 63 65 66 68 70 70 71 71 69 69 66 64 64 63 60 58 57 55 55 55 57 57 60 62 63 66 68 69 67
45 48 43 44 45 43 45 49 53 54 55 57 60 62 63 63 67 70 70 70 73 75 74 75 73 71 68 67 66 65 63 62 60 60 61 61 60 63 63 63 63 63 63 64
44 46 49 54 52 51 52 56 58 56 57 61 63 64 66 68 70 73 73 72 72 74 76 75 77 75 73 70 69 68 67 65 64 64 66 66 63 63 63 61 61 61 59 57
46 49 56 61 60 59 61 60 61 63 62 62 64 67 68 70 72 75 78 79 78 77 77 78 79 78 76 73 69 68 69 68 66 68 69 69 68 66 65 61 61 60 56 53
50 52 53 58 60 62 65 68 70 70 69 69 70 71 73 75 78 80 80 79 78 79 79 79 80 79 79 75 73 70 71 69 68 69 70 73 74 72 68 65 62 61 57 53
70 71 69 68 71 74 77 78 77 75 76 77 77 77 78 80 80 80 80 85 82 78 79 78 78 79 80 77 74 72 72 71 71 70 71 73 75 74 74 69 63 62 59 54
74 74 77 81 78 81 81 77 81 81 83 85 85 83 80 79 82 82 84 86 84 80 79 77 77 77 80 79 76 73 72 73 72 71 71 73 75 74 74 71 69 66 61 57
82 82 83 86 90 92 89 88 89 89 91 92 89 90 88 84 83 85 86 86 83 78 77 76 76 74 76 78 77 74 73 74 73 72 70 73 75 76 75 72 70 68 65 60
88 90 93 94 97 98 96 96 95 99 99 98 98 91 90 89 86 85 86 84 81 77 75 75 75 72 74 77 76 74 74 74 74 73 70 73 74 76 76 73 71 69 66 62
101 104 105 103 104 105 106 102 102 105 104 102 103 102 97 94 91 89 87 84 80 78 76 74 73 71 72 76 75 73 73 73 73 73 71 73 74 76 77 74 73 71 67 61
112 113 112 109 106 108 107 106 107 107 108 108 109 109 101 97 91 91 87 84 77 75 77 76 74 71 71 73 73 72 72 73 72 72 71 72 74 76 77 74 72 71 67 61
107 110 110 105 106 106 107 109 108 101 105 107 107 103 96 92 88 85 84 79 75 73 75 75 73 70 70 71 72 71 71 71 71 71 70 72 74 76 77 75 72 71 66 62
105 104 105 108 108 106 104 101 99 97 101 102 101 97 86 83 83 82 79 76 72 72 74 73 70 68 69 70 71 70 70 69 69 69 69 71 73 75 75 74 72 71 66 62
112 112 116 115 111 101 96 96 97 96 92 91 92 86 79 78 81 79 75 72 69 71 73 70 65 67 68 70 69 69 68 67 68 68 68 69 71 74 75 73 71 71 65 61
115 110 110 110 99 96 92 91 89 82 78 78 77 76 73 74 75 75 72 69 68 67 69 65 64 67 68 69 69 68 66 66 66 66 66 69 71 73 74 72 70 70 64 59
100 100 91 87 83 82 81 82 81 75 72 71 70 70 69 70 72 73 71 67 65 63 65 59 63 66 67 67 67 66 66 64 65 63 65 67 70 71 72 70 70 68 62 57
92 89 82 78 78 75 69 73 73 65 66 66 67 68 66 67 70 69 66 64 61 61 62 57 64 65 65 65 65 65 63 62 63 61 63 66 68 69 70 68 69 65 60 54
84 79 74 77 75 69 66 68 67 66 62 62 64 65 64 66 67 64 62 58 59 60 60 59 62 64 63 63 63 62 61 61 59 60 62 65 67 68 68 68 67 62 57 51
73 71 70 70 68 65 64 63 63 61 63 60 60 63 64 62 61 58 57 56 58 58 59 58 61 61 61 61 60 59 58 57 56 59 61 63 65 66 65 66 63 58 53 48
67 65 60 59 62 61 58 56 57 61 59 57 57 61 60 58 58 57 55 55 56 54 56 57 59 59 59 58 57 57 55 54 56 58 60 62 63 63 64 63 58 53 48 45